GFSWCAN_sfc_thetae_000.txt.gz
Theta_e
307 307 307 307 307 307 307 307 307 308 308 308 308 308 308 307 306 304 302 306 299 293 294 299 299 294 294 296 293 297 295 298 299 301 301 301 302 304 304 309 309 308 306 304 307 304 301 318 318 313 321 326 326 327
306 307 307 307 307 307 307 306 307 307 307 307 307 307 306 306 305 306 299 309 309 297 295 302 302 303 301 300 297 297 295 295 297 299 304 306 306 310 306 301 314 306 310 307 309 308 317 319 318 323 327 326 327 328
306 306 307 307 306 307 307 306 307 307 307 307 307 307 306 305 305 306 302 306 303 297 296 298 298 303 305 303 306 296 297 299 301 304 299 303 303 311 306 308 310 314 318 312 313 314 316 317 320 323 324 324 327 328
306 306 307 308 307 307 307 307 306 307 307 306 306 306 306 305 305 305 302 306 302 297 290 295 304 302 305 306 303 304 302 303 303 303 302 301 303 313 311 314 314 313 316 314 313 315 316 317 317 319 320 323 325 327
306 306 307 306 306 306 306 307 306 306 305 305 305 306 305 306 306 307 307 306 306 297 291 293 299 305 306 303 303 303 301 298 298 297 301 300 306 308 314 313 304 307 310 312 309 315 314 309 313 315 316 318 321 322
307 306 307 306 306 306 306 306 306 306 305 306 306 306 305 306 306 304 297 303 306 304 293 291 301 302 306 305 302 302 303 300 300 300 303 302 307 308 304 300 304 309 314 317 315 315 310 310 311 313 313 314 316 317
306 306 306 306 306 306 306 306 306 305 305 306 306 306 306 306 305 299 296 302 304 305 293 290 297 305 306 306 305 303 305 303 302 303 301 303 307 309 301 297 305 309 313 314 314 312 307 310 308 312 313 314 314 316
306 306 306 306 306 306 306 306 306 305 305 305 305 306 306 307 306 301 306 305 305 299 297 290 294 300 306 302 300 305 301 301 304 304 302 303 307 306 298 303 306 308 309 308 309 311 310 311 312 313 314 314 312 312
306 306 306 307 307 306 306 306 306 306 306 306 306 305 306 303 299 303 306 307 306 297 291 293 292 293 307 304 304 303 302 297 306 302 306 306 300 297 301 303 305 308 307 308 309 309 310 310 312 310 311 313 314 314
307 307 307 307 306 306 306 306 306 307 307 306 305 302 298 304 308 308 303 299 298 297 297 294 300 296 301 305 301 301 303 298 296 304 309 300 298 304 306 307 308 307 310 310 305 303 306 308 310 310 311 313 313 314
307 307 307 307 306 307 307 307 306 306 307 304 299 299 306 309 306 303 297 295 297 294 299 300 300 298 307 300 302 307 302 302 294 302 300 297 294 302 307 307 310 311 311 312 313 312 312 312 311 312 312 314 316 317
307 307 307 306 306 307 307 307 306 306 304 303 302 304 306 303 300 294 294 297 294 294 302 300 300 301 302 306 303 306 301 303 296 307 301 291 297 305 307 309 311 313 312 313 313 311 312 312 314 313 313 313 315 317
307 306 306 307 307 307 307 307 307 306 306 308 302 298 298 298 289 290 289 293 294 299 303 303 301 302 305 306 304 305 298 299 305 300 297 298 304 307 309 310 311 313 312 312 311 311 312 313 314 314 313 315 315 315
306 306 306 306 306 307 307 307 307 306 305 298 294 287 288 288 292 294 295 297 302 304 303 304 303 301 306 302 304 298 303 306 297 293 294 302 306 309 310 310 310 309 310 310 311 311 311 312 314 316 317 317 316 317
306 306 305 306 306 307 308 306 305 309 303 294 291 285 289 295 299 301 303 303 305 306 305 305 303 304 302 301 302 302 297 294 294 292 300 308 310 312 311 312 312 312 312 312 312 312 313 313 313 315 318 319 319 320
306 305 307 305 306 307 307 308 310 310 303 300 297 294 299 298 298 300 301 302 307 306 308 305 299 298 298 300 297 296 293 289 295 300 305 310 313 313 314 314 314 315 315 314 314 315 314 315 315 315 317 318 320 321
306 306 307 307 307 307 306 309 309 303 302 299 298 303 301 300 299 300 302 303 307 306 301 302 297 295 302 295 292 295 290 292 303 307 312 314 314 315 317 317 316 317 317 316 316 316 317 317 316 316 315 318 318 319
306 308 308 307 308 310 311 309 306 302 297 300 297 299 302 303 301 302 303 305 305 304 305 300 302 296 294 291 293 299 302 306 310 312 314 314 315 316 317 317 318 318 317 317 318 317 317 317 313 313 316 318 317 314
306 308 307 307 308 307 304 304 306 298 299 300 301 302 302 303 305 305 305 306 307 309 307 302 298 296 297 301 302 305 307 309 310 311 312 316 318 318 318 319 318 317 316 314 312 312 314 315 314 313 313 313 312 313
307 307 307 308 308 307 300 303 308 300 297 299 302 301 302 302 305 305 305 306 306 304 301 298 299 301 302 304 306 307 309 311 313 311 311 316 314 315 314 313 311 311 311 311 309 304 310 310 311 311 311 312 311 311
308 309 308 309 308 307 304 301 302 302 301 300 302 302 302 304 303 303 303 305 302 301 299 302 304 306 310 311 311 311 312 312 312 312 312 306 307 308 307 307 308 307 306 306 306 306 304 306 306 307 308 308 308 309
309 307 308 309 304 303 304 304 301 303 302 302 301 302 301 300 301 303 306 303 302 304 305 307 309 311 312 313 313 314 315 316 315 315 305 308 307 306 305 305 305 304 304 304 304 304 304 304 304 304 305 305 304 307
307 307 307 304 298 296 296 305 299 299 296 298 302 299 297 299 301 305 298 301 302 308 307 311 311 315 314 315 316 315 315 315 315 316 316 311 306 305 304 304 304 303 303 303 304 304 303 299 302 303 304 304 305 306
305 302 299 298 299 296 304 301 304 302 303 300 293 292 296 300 305 300 299 302 308 313 313 312 315 312 312 311 305 305 307 308 308 310 311 309 306 305 307 306 305 304 304 304 304 303 303 303 299 302 302 302 304 304
296 294 298 292 301 300 299 300 300 301 297 300 298 300 302 305 300 300 299 305 309 310 310 307 306 305 304 304 304 305 307 305 304 304 307 308 307 308 308 308 306 304 304 302 301 301 301 301 302 302 301 301 300 300
291 300 296 302 304 301 301 299 301 300 301 299 301 306 307 303 297 296 301 306 308 306 305 304 303 302 302 303 301 301 302 304 304 303 305 305 305 303 302 301 301 301 302 302 301 300 300 300 301 300 300 300 296 299
297 304 307 307 304 303 304 306 306 304 299 299 303 302 302 295 295 301 304 305 303 304 305 305 304 303 302 301 302 302 302 303 305 304 305 304 302 302 301 299 298 298 302 301 301 300 299 299 299 299 299 300 300 299
307 306 303 307 305 306 301 303 300 299 301 306 304 298 297 297 296 301 302 305 306 306 305 305 305 304 303 302 301 301 300 301 302 303 304 304 303 302 301 301 301 294 300 299 298 298 297 297 296 296 296 296 296 295
307 311 309 305 305 305 305 303 302 304 306 306 302 300 298 301 302 300 302 304 305 303 301 302 301 303 302 302 302 301 300 299 296 295 294 294 295 296 298 298 298 297 297 296 290 292 293 292 294 293 293 293 294 294
308 312 306 305 303 303 307 310 306 307 306 305 305 302 301 302 305 307 305 305 304 303 302 300 300 299 298 297 296 297 299 298 298 295 293 293 294 295 295 295 294 294 294 294 293 293 291 292 292 293 291 291 291 290
312 311 307 307 306 308 310 309 309 309 307 303 303 301 300 302 304 308 306 306 302 301 301 300 299 298 296 295 295 294 293 296 296 296 294 295 294 293 293 293 293 293 293 292 291 291 290 290 290 289 289 288 288 288
310 308 307 303 306 312 313 310 308 302 302 299 300 306 305 304 301 305 303 303 302 300 297 298 296 295 296 296 296 296 291 294 293 292 291 291 291 291 292 292 292 292 291 290 290 290 289 289 288 287 287 286 287 287
308 307 307 305 304 303 309 310 307 303 302 303 305 307 307 304 299 306 304 302 300 298 298 297 297 296 296 295 295 295 293 295 290 287 287 286 286 287 290 290 290 290 290 290 289 289 289 288 287 287 286 287 287 287

GFSWCAN_sfc_thetae_003.txt.gz
Theta_e
308 308 307 308 308 308 307 307 307 307 308 308 309 308 308 308 308 307 307 311 300 294 295 300 300 297 295 297 292 296 299 298 299 295 296 295 295 299 300 304 304 301 303 303 305 303 301 321 319 313 322 327 328 329
308 307 307 307 308 308 308 308 307 306 308 308 308 308 308 307 307 307 301 309 307 297 297 304 304 304 303 302 299 298 296 296 300 299 300 299 300 304 303 298 309 304 308 306 308 308 322 325 324 326 327 327 329 329
307 307 307 307 308 308 307 307 307 307 307 307 307 307 307 307 306 307 303 306 304 297 297 300 300 306 308 306 306 296 299 301 303 303 299 299 298 307 303 303 308 311 317 312 314 318 320 322 325 326 326 326 328 332
307 307 307 307 307 307 307 307 307 307 307 307 307 307 307 306 306 306 305 307 303 299 293 296 306 303 307 308 306 304 301 306 302 303 298 300 299 307 304 308 312 310 316 313 315 319 319 320 322 323 324 327 326 329
307 307 307 307 307 307 307 307 307 307 306 306 306 307 307 307 307 307 308 310 310 298 292 295 302 306 306 305 305 304 303 301 298 297 297 299 305 304 310 312 302 306 308 313 311 320 318 316 319 320 319 319 321 323
307 306 306 307 307 307 307 307 307 307 306 306 307 307 307 307 308 306 299 307 308 309 297 291 304 305 308 305 305 304 304 304 302 298 297 305 308 305 301 299 306 311 317 320 315 320 315 315 316 316 315 314 317 318
307 307 306 307 307 307 307 306 307 307 306 306 306 306 307 307 306 302 298 302 305 307 295 291 294 304 309 306 305 305 306 303 302 298 299 306 306 306 300 297 307 310 314 315 319 318 315 315 310 313 315 315 315 317
307 308 308 307 307 307 307 306 307 307 307 307 307 307 307 308 306 302 307 306 305 301 297 290 294 303 309 303 302 307 301 301 304 300 306 303 305 304 297 303 306 308 311 313 313 317 316 316 315 313 314 314 312 312
307 307 307 307 307 307 307 307 307 307 308 308 308 307 307 304 301 307 308 307 305 299 291 292 290 291 308 302 302 303 304 298 303 301 304 304 300 295 300 301 305 307 306 310 312 314 313 311 310 311 312 312 312 313
307 307 307 307 307 307 307 308 308 308 307 308 308 302 302 306 307 311 306 300 297 299 296 293 301 297 303 302 300 300 302 299 297 301 304 299 295 302 306 306 309 309 308 309 305 305 309 309 309 310 310 311 311 314
307 307 307 307 307 308 308 308 308 307 309 306 302 301 308 312 308 305 297 296 297 295 300 302 305 302 308 301 301 305 302 301 294 299 298 295 294 300 306 307 311 311 313 309 309 310 312 311 312 312 311 313 315 317
307 307 307 307 307 307 307 308 308 308 306 304 304 305 307 304 300 295 295 298 296 294 304 300 303 305 306 308 305 306 300 300 295 303 295 291 299 305 307 307 308 312 312 311 312 313 314 315 315 315 314 314 316 319
307 307 307 307 307 307 307 308 308 308 307 309 304 300 298 300 291 290 289 291 293 301 304 304 303 306 309 308 302 303 298 297 305 297 292 295 302 307 309 310 310 314 312 312 311 312 313 313 315 315 316 317 318 318
307 307 307 307 307 308 308 308 308 308 307 301 297 288 289 291 294 298 298 299 304 306 307 306 304 304 306 304 304 298 301 302 295 291 291 300 304 308 312 312 312 310 312 312 312 312 312 313 315 317 317 318 317 318
306 306 307 308 308 308 308 308 307 312 307 297 296 288 293 298 301 301 305 305 306 308 305 304 305 305 303 302 303 301 298 290 292 294 301 304 308 310 311 311 311 312 313 313 313 313 313 314 315 315 318 318 320 320
306 307 309 307 307 307 307 311 314 312 309 305 300 297 301 300 300 301 303 304 309 309 308 306 302 299 298 299 296 294 292 287 292 301 308 310 310 312 313 314 315 315 315 314 314 314 314 314 315 317 317 317 319 321
306 309 307 308 307 307 310 311 313 305 304 300 298 302 301 300 301 304 306 306 311 307 302 302 297 295 301 294 292 293 290 293 301 305 310 310 313 315 315 315 316 315 316 316 316 316 317 317 317 316 316 316 317 318
308 311 308 307 308 311 315 312 308 303 298 301 299 301 303 304 304 306 307 310 308 307 306 301 303 298 295 292 293 300 303 306 310 312 315 316 317 317 318 317 316 318 317 317 317 318 317 317 317 316 317 317 319 317
308 309 308 308 308 308 306 307 308 299 301 302 303 304 304 305 308 309 309 309 311 310 308 304 299 296 297 303 303 307 310 312 312 315 317 318 318 318 318 318 318 317 315 315 316 313 314 316 314 313 313 314 312 313
307 308 308 308 310 310 302 306 310 303 300 302 304 303 305 304 307 308 307 307 307 305 302 298 300 302 302 306 309 310 312 315 315 312 312 313 314 314 314 314 313 315 312 314 311 305 310 310 311 311 311 311 311 310
310 313 310 312 314 311 308 305 304 305 304 303 305 304 303 306 306 306 307 309 305 303 302 307 308 311 314 315 316 317 315 315 314 314 310 307 309 310 310 311 312 310 309 309 308 308 306 307 307 308 308 308 308 309
312 309 313 315 310 309 308 308 305 306 302 304 305 306 302 301 302 304 309 304 302 305 308 310 312 314 314 313 314 315 317 317 317 316 309 312 308 308 306 307 307 306 307 306 306 306 306 306 306 305 306 305 305 308
308 309 312 311 305 302 303 313 303 304 300 302 305 301 301 304 304 309 300 303 306 309 314 314 313 314 312 311 311 310 313 313 311 311 312 311 310 310 309 309 307 306 305 305 306 306 305 300 303 304 305 305 305 306
305 306 304 304 307 301 311 306 310 308 306 304 303 299 302 306 311 305 300 304 310 314 310 312 308 306 308 310 305 305 306 307 307 309 309 308 307 307 309 307 307 306 305 305 305 304 304 303 300 303 304 303 303 303
300 298 305 295 310 305 301 302 303 305 299 302 300 302 305 311 301 299 299 304 306 305 306 308 307 306 304 304 304 304 306 305 305 305 307 307 307 307 306 306 305 304 305 303 302 302 302 302 302 302 302 302 301 301
296 306 299 306 307 304 304 299 300 300 302 300 301 307 309 305 299 297 301 304 302 304 305 305 304 304 303 303 302 301 301 304 305 303 304 304 303 302 302 301 301 301 303 302 301 300 300 300 300 300 300 300 296 299
299 305 312 316 310 309 307 310 309 305 300 300 304 303 301 296 294 296 302 303 303 304 306 306 305 304 303 303 304 303 303 303 303 303 306 305 304 302 301 299 297 297 301 300 299 298 297 296 296 297 297 297 297 297
310 311 306 310 310 312 305 304 302 301 302 306 304 299 297 296 294 299 302 306 307 307 306 307 306 304 304 304 303 302 302 302 303 303 303 304 303 301 300 299 299 294 298 297 296 296 295 293 293 294 294 294 294 295
310 312 312 307 307 306 306 303 303 306 308 306 304 299 298 302 302 301 303 305 307 305 304 302 302 304 303 302 302 301 301 300 297 295 295 295 295 296 297 297 296 296 296 296 289 291 292 292 293 293 293 293 294 294
308 313 308 306 306 305 308 309 308 309 309 307 303 300 299 301 304 309 310 310 306 303 304 303 303 301 298 297 297 298 300 299 297 294 292 292 293 295 295 295 295 295 295 294 294 294 291 293 293 294 292 291 291 290
310 308 306 307 307 309 309 310 310 310 308 305 304 300 299 304 308 310 307 306 305 304 302 300 299 299 297 296 296 294 294 296 295 294 292 293 293 293 294 294 294 294 294 293 293 292 292 291 291 290 289 289 289 289
309 306 305 302 306 312 312 309 309 306 307 304 303 305 304 303 300 305 305 304 302 300 298 299 297 296 297 298 298 297 291 296 295 293 292 290 291 292 293 293 293 293 293 293 292 292 291 290 289 289 288 288 288 288
309 308 307 305 306 302 310 309 307 304 304 305 306 309 306 304 299 303 307 305 301 299 298 299 298 298 298 297 296 296 295 296 290 286 287 286 285 287 291 292 293 293 292 292 292 291 290 289 288 289 289 288 287 288

GFSWCAN_sfc_thetae_006.txt.gz
Theta_e
308 308 308 308 308 309 309 309 308 308 308 308 309 309 309 309 309 307 306 311 300 293 295 299 300 296 296 295 290 295 292 299 297 291 289 291 291 295 296 301 301 300 298 300 306 304 301 320 318 312 321 326 325 326
308 308 308 308 308 308 308 308 308 308 308 308 308 308 308 308 308 307 303 311 310 299 296 302 303 305 302 301 298 297 294 294 299 297 298 298 295 300 299 294 304 298 304 302 305 306 319 325 326 327 327 326 328 331
309 308 308 308 308 309 309 308 308 308 308 308 308 308 307 308 308 306 307 309 305 297 297 299 299 305 308 306 305 296 297 300 301 303 299 298 296 302 298 300 303 307 311 305 308 314 320 323 325 326 328 329 330 331
308 307 307 308 308 308 309 309 308 308 308 308 308 307 307 308 307 306 303 308 305 298 291 294 305 304 308 308 306 304 301 304 304 303 298 297 296 304 299 302 306 309 310 311 310 322 322 323 325 326 326 328 327 327
308 307 307 308 308 308 308 308 308 308 307 307 308 308 308 307 308 307 308 310 309 297 291 295 302 304 307 306 305 305 302 300 299 296 298 295 304 302 305 304 301 308 307 307 311 321 320 320 323 322 321 322 323 323
308 309 308 308 308 308 308 308 308 308 308 307 307 307 307 307 309 305 299 309 311 307 295 291 302 303 307 305 303 303 302 302 300 299 299 298 305 303 299 297 306 311 316 318 308 316 313 316 316 318 317 317 318 319
308 308 308 308 308 308 308 308 308 308 308 308 308 308 307 308 306 302 299 303 306 307 296 291 294 306 308 304 303 303 304 302 302 300 298 299 303 305 301 296 305 310 313 313 314 314 311 314 313 316 316 317 318 319
308 308 308 308 308 308 308 308 308 308 308 309 309 309 309 308 307 302 307 307 305 301 297 289 292 299 307 300 299 306 301 302 303 300 299 302 304 302 297 304 307 309 312 313 315 315 313 316 316 315 316 317 316 314
307 308 308 308 308 308 308 308 309 309 309 309 309 310 308 305 301 308 308 308 306 299 291 293 289 291 303 301 304 302 303 295 304 297 300 303 297 294 300 303 305 308 309 310 313 313 314 313 312 313 314 313 314 315
308 307 308 308 307 308 307 308 308 309 308 309 309 304 302 309 310 310 304 299 297 297 297 292 299 295 298 298 299 300 301 297 294 299 304 297 295 302 304 307 308 308 309 313 309 308 309 311 312 311 311 312 312 310
307 307 307 307 308 307 307 307 308 308 309 307 303 301 308 313 308 303 297 294 296 293 298 300 302 301 305 299 301 307 302 303 294 295 297 294 293 300 306 307 311 309 309 310 312 314 312 310 308 308 310 311 312 314
308 308 308 308 308 308 307 307 308 309 307 304 302 306 307 305 301 294 291 295 294 289 299 302 304 305 306 308 301 303 299 300 293 303 295 291 297 304 305 306 309 310 310 311 313 313 314 314 315 314 313 314 315 318
307 307 307 307 308 308 308 308 309 308 308 310 306 303 300 300 291 291 288 288 293 299 305 305 303 304 307 308 302 299 296 295 303 295 291 294 301 305 307 309 309 311 311 312 312 313 313 315 315 315 315 318 319 318
307 307 307 307 309 308 308 308 309 310 307 302 298 292 294 292 293 295 297 298 304 305 306 305 303 300 301 300 301 295 300 300 294 292 291 298 302 306 309 312 312 310 311 311 312 313 314 315 314 316 317 318 319 317
307 307 307 308 308 308 308 308 309 313 308 302 302 293 297 302 304 305 306 305 308 308 307 305 305 305 302 301 302 300 295 291 291 294 299 305 308 311 312 311 312 312 313 312 313 313 313 315 316 316 318 318 318 319
307 307 311 308 308 307 307 311 315 315 312 306 304 298 301 300 300 303 305 304 310 308 309 308 302 299 297 298 293 291 291 288 292 300 305 309 310 309 310 312 313 314 314 315 315 316 317 316 315 317 317 319 318 320
306 311 308 308 308 307 310 312 314 306 303 301 299 303 303 302 301 304 306 307 311 308 302 302 297 296 300 293 289 293 291 295 301 305 307 309 309 309 314 314 315 313 315 315 317 315 312 319 318 319 318 320 316 320
310 312 309 308 308 311 314 313 308 304 299 302 300 302 306 306 305 306 308 309 308 307 306 300 303 296 293 291 294 299 303 306 308 309 310 313 315 317 319 316 317 317 315 312 312 316 316 317 312 310 313 314 313 315
308 308 307 307 309 308 308 307 309 299 301 303 305 306 306 307 309 311 309 310 311 310 307 304 298 297 299 304 304 306 309 310 311 314 316 318 317 318 319 318 317 316 317 315 314 310 312 317 312 310 311 311 311 311
307 308 309 309 309 311 305 307 311 303 300 303 305 305 306 307 310 309 309 311 309 307 304 302 303 306 307 310 313 313 315 316 314 311 312 316 312 316 316 312 311 315 311 314 311 305 310 309 308 308 308 308 308 307
310 314 311 314 314 313 309 306 305 305 304 303 307 307 306 307 306 306 306 309 304 302 302 308 309 313 314 316 317 314 316 314 314 313 311 307 310 309 310 310 310 309 308 307 307 306 305 305 305 305 306 306 306 307
315 310 316 318 312 311 309 311 307 308 305 307 306 307 304 303 303 302 306 303 303 307 310 310 312 308 308 310 309 312 316 317 316 316 309 310 307 308 308 309 308 307 306 306 306 305 304 304 303 304 305 304 304 306
311 312 315 314 308 304 302 313 306 307 301 303 306 303 304 305 307 309 303 306 307 316 316 314 315 315 312 313 311 308 310 312 309 309 309 309 309 309 308 308 307 305 304 304 305 304 304 300 302 303 304 304 304 304
306 311 308 308 309 302 311 306 308 306 306 305 304 300 304 307 309 304 299 305 309 308 308 312 309 306 307 309 304 304 306 307 306 307 307 306 305 307 306 306 306 304 304 304 304 303 303 302 300 303 303 302 303 302
302 302 306 295 312 306 302 303 303 302 300 302 301 302 305 310 301 298 298 301 303 303 305 307 306 306 303 303 304 303 307 303 303 303 304 304 303 304 304 304 303 302 302 301 300 299 300 300 300 300 300 300 299 299
294 309 299 306 306 304 304 300 301 301 302 300 302 305 304 302 298 296 298 301 303 304 305 305 304 304 303 303 302 301 302 304 303 301 303 304 302 300 299 298 297 296 299 300 297 296 296 296 295 295 296 296 294 296
299 305 312 317 312 310 308 308 307 304 301 299 304 304 303 296 293 296 302 303 303 306 308 307 306 303 302 302 303 303 304 303 303 302 304 304 302 301 299 296 294 294 298 297 296 295 294 293 293 293 294 295 295 295
309 311 298 300 306 309 303 305 304 301 302 306 306 299 297 296 293 300 301 304 307 308 307 307 307 305 303 302 302 302 302 301 301 301 302 302 300 299 299 298 297 294 297 296 295 295 294 293 293 293 293 293 293 294
308 309 310 307 307 307 306 303 303 306 307 307 304 300 298 302 305 305 307 308 309 307 305 302 302 303 302 301 301 301 300 298 295 292 292 292 293 294 296 296 296 296 296 295 290 292 293 293 293 293 293 292 292 292
307 312 308 306 304 304 306 308 307 308 308 306 305 303 304 305 308 311 309 307 304 303 303 302 301 299 297 297 297 297 298 297 295 292 289 289 291 294 295 295 294 295 295 295 294 294 292 293 293 293 292 291 291 290
311 309 306 307 304 307 309 312 310 309 308 306 307 304 303 304 309 307 306 305 303 302 300 298 298 298 297 296 295 294 293 297 295 294 292 292 293 293 294 294 294 294 294 294 294 293 293 292 291 291 290 290 289 289
310 307 305 303 307 312 313 311 309 307 306 306 305 304 304 305 303 304 306 304 301 299 298 298 297 297 298 298 297 297 294 296 294 292 291 291 292 293 293 294 294 294 293 293 293 292 291 290 290 289 289 289 289 289
308 308 308 306 306 306 311 310 309 305 306 303 306 307 305 304 299 302 307 305 301 299 298 298 299 299 299 298 297 296 296 294 290 287 287 286 285 288 291 293 293 293 292 292 291 291 290 290 290 290 290 289 289 289

GFSWCAN_sfc_thetae_009.txt.gz
Theta_e
309 309 308 308 309 309 309 310 310 309 309 309 309 309 309 309 309 306 303 308 301 292 293 295 296 293 294 294 289 294 292 293 291 290 287 289 288 291 292 295 295 293 293 295 299 297 295 318 316 310 315 320 324 325
309 309 308 308 309 310 310 310 310 310 309 309 309 309 308 308 308 308 301 309 308 297 295 300 300 301 299 299 296 295 293 292 292 292 294 295 290 295 295 290 301 293 299 297 298 301 315 319 315 320 322 324 325 326
309 309 309 309 309 309 309 309 309 309 309 308 309 309 308 308 308 307 303 306 304 296 295 296 296 302 304 303 304 293 295 297 297 302 296 297 292 299 293 294 300 304 309 302 306 307 313 316 319 327 325 323 323 326
309 309 309 309 309 309 309 309 309 309 309 308 308 308 308 308 308 307 302 306 303 297 289 292 302 300 305 305 305 302 300 300 302 301 296 295 293 302 297 298 299 307 306 306 307 313 317 319 322 323 323 323 321 322
309 309 309 309 309 309 309 309 309 309 309 309 309 309 308 308 309 307 304 306 306 297 289 291 298 302 303 303 301 303 301 298 297 294 296 295 300 300 302 302 298 305 306 303 303 310 311 314 316 319 319 318 318 318
308 308 308 308 309 309 309 309 309 309 309 309 309 309 309 309 308 303 298 308 311 305 293 289 299 299 304 306 304 302 301 299 297 298 298 300 302 299 296 295 303 307 311 314 310 312 312 313 313 316 314 315 317 317
308 308 308 308 308 308 309 309 309 309 309 310 310 310 310 309 305 299 298 304 306 304 295 290 291 302 304 305 300 300 301 299 299 300 298 299 299 300 299 293 303 308 312 313 315 314 310 311 309 313 313 314 314 316
308 308 308 308 308 308 308 308 309 309 309 310 310 310 310 310 307 302 305 306 305 299 297 288 290 296 304 299 296 302 298 300 301 300 299 296 299 300 296 302 307 309 313 313 313 314 313 314 313 313 315 315 313 313
308 308 308 308 308 308 308 308 309 309 309 309 310 310 307 304 301 306 309 307 306 300 291 292 288 288 302 300 302 301 302 294 302 295 295 298 296 293 299 301 304 309 309 310 313 313 311 310 311 313 312 312 311 311
308 308 308 308 308 308 308 309 309 309 309 309 308 305 301 307 311 310 305 299 297 297 295 290 296 292 300 297 298 299 299 294 290 294 302 295 294 301 304 306 307 308 310 311 308 307 309 309 308 309 311 311 309 311
308 308 308 308 308 308 308 308 308 308 308 308 302 300 305 312 307 302 295 293 294 291 295 296 299 296 305 296 297 302 298 298 290 295 295 293 292 299 305 306 308 310 311 311 311 310 310 310 309 310 310 313 314 313
308 308 308 308 308 308 308 308 308 308 306 303 301 306 306 305 300 293 290 292 290 289 295 297 301 302 303 303 300 301 297 296 291 302 295 289 295 302 305 306 308 310 310 311 313 313 313 310 308 309 311 314 315 317
307 307 307 307 307 308 308 308 308 309 308 310 304 303 299 299 290 290 286 287 289 299 302 302 300 300 303 304 301 298 291 294 302 294 290 293 300 304 306 307 308 310 312 312 312 313 313 314 315 314 314 316 317 316
307 307 307 307 307 309 309 308 309 310 308 303 300 289 296 293 293 295 297 295 300 303 302 304 300 299 301 299 298 295 300 300 293 289 289 296 300 303 306 309 309 309 311 311 312 313 313 314 315 316 317 317 317 315
307 307 307 308 309 309 308 308 309 311 309 304 302 288 297 301 303 303 304 304 304 309 307 304 304 303 300 299 299 297 293 289 290 292 297 302 305 307 309 309 309 309 311 311 312 312 313 314 314 313 315 316 316 316
307 307 310 308 309 308 308 310 314 314 313 307 304 299 302 301 301 303 304 302 307 307 307 304 301 298 295 294 292 289 290 287 292 298 304 306 307 308 309 310 311 312 313 311 311 313 313 312 314 314 315 315 314 316
306 305 309 308 308 308 311 312 316 310 304 301 300 305 303 303 302 304 305 305 310 304 299 301 295 294 297 290 289 294 291 296 301 304 305 307 307 308 309 310 310 312 310 309 310 311 311 310 311 311 309 310 311 313
307 311 310 308 307 310 317 313 310 305 300 302 300 304 306 306 306 306 307 309 306 304 303 299 302 295 293 292 295 300 302 304 306 307 307 309 311 312 312 311 313 312 309 310 311 310 309 307 307 308 309 311 309 309
306 307 307 307 308 306 309 309 312 302 302 305 306 308 308 307 309 309 309 310 309 309 305 303 298 296 297 301 302 304 304 305 304 306 308 311 310 310 311 312 313 313 312 309 308 306 305 304 303 304 305 305 304 306
307 308 309 310 310 310 306 309 315 306 301 304 306 306 306 306 308 307 307 307 306 304 300 298 298 301 302 304 307 307 307 309 308 306 305 307 309 310 311 308 308 310 307 307 304 302 302 302 302 302 303 302 301 303
312 314 312 314 314 313 308 306 306 305 305 307 309 307 306 306 304 303 303 307 302 301 300 304 302 304 307 305 306 309 310 311 309 308 307 305 308 308 308 308 307 306 304 304 302 301 300 300 300 301 302 302 302 304
315 312 315 319 313 312 311 314 308 312 308 308 308 308 306 303 302 303 307 302 301 305 307 307 307 306 303 303 303 303 304 311 313 308 305 305 305 304 306 306 305 302 302 302 302 301 300 301 300 301 302 302 302 302
312 311 314 315 309 302 302 316 308 309 303 304 307 303 305 305 307 309 302 303 304 309 309 309 311 311 308 309 305 303 304 306 304 303 303 306 306 306 303 302 301 300 300 300 301 300 300 298 299 300 301 301 301 301
307 311 308 309 309 301 312 308 310 308 309 305 304 301 303 306 308 302 298 300 303 305 306 307 306 304 305 306 301 301 302 302 302 304 303 302 302 302 302 299 298 298 299 299 298 297 298 297 296 296 297 297 296 296
301 302 304 293 311 308 305 304 304 304 301 304 302 301 300 303 299 297 296 299 301 303 304 305 305 304 301 301 301 302 304 301 299 300 303 302 300 300 299 298 295 295 297 296 294 294 294 294 293 293 294 294 293 294
293 309 301 306 306 305 304 301 303 302 303 302 303 304 305 301 296 294 297 300 302 303 304 304 302 302 301 300 299 299 300 301 300 298 300 300 298 296 294 293 291 292 296 295 293 292 292 292 292 292 293 293 292 293
298 300 306 308 307 306 307 307 308 304 301 300 303 303 302 293 292 297 303 304 304 306 307 307 305 302 299 299 300 301 300 299 298 297 301 298 297 297 295 292 291 293 296 295 294 293 291 291 291 292 292 292 292 291
307 305 301 307 308 310 304 303 302 300 300 304 305 298 296 294 294 301 303 306 307 308 308 307 304 301 299 299 299 299 297 297 296 296 296 297 296 295 296 296 295 294 294 294 294 293 292 292 291 291 291 290 290 291
310 312 310 305 305 305 305 303 302 303 304 304 302 298 298 302 305 304 306 308 309 306 301 300 300 300 299 299 299 298 296 294 291 288 287 288 289 291 294 294 294 294 294 294 291 292 293 292 293 291 291 291 291 290
310 312 307 306 304 302 305 307 305 306 306 304 303 303 303 304 306 309 306 304 301 299 299 299 299 297 295 295 294 295 295 294 292 289 286 286 288 292 293 293 293 293 293 293 293 293 292 292 292 292 290 290 289 289
311 309 306 307 305 307 309 310 309 308 307 305 306 303 302 304 307 307 306 305 302 300 298 296 296 297 295 294 293 292 291 293 292 291 291 291 291 292 292 293 293 293 293 293 292 291 290 290 290 289 289 289 289 289
309 307 305 303 307 311 312 309 307 306 306 305 304 305 305 305 302 306 307 304 300 297 296 296 295 295 297 296 296 296 294 292 291 291 291 290 291 291 292 292 292 292 292 292 291 290 290 289 289 289 289 289 289 289
308 308 308 305 307 308 310 310 308 306 305 303 306 305 304 302 298 302 307 304 300 297 296 297 297 298 298 296 295 295 294 293 291 288 288 288 287 288 290 291 291 291 291 291 291 290 290 289 289 289 289 289 289 289

GFSWCAN_sfc_thetae_012.txt.gz
Theta_e
309 309 309 309 309 309 310 310 310 309 309 310 310 309 309 309 309 301 297 300 297 291 293 294 294 291 290 288 286 288 289 290 286 287 286 285 284 287 286 292 293 293 293 295 295 294 293 307 312 304 308 320 323 325
309 309 309 309 310 310 309 310 310 310 309 309 309 309 309 309 309 306 294 300 302 296 295 298 298 299 297 296 289 289 291 289 291 289 289 289 286 289 287 287 299 293 297 296 296 298 304 307 312 322 321 319 321 322
309 309 309 309 309 310 309 309 310 309 309 309 309 309 309 309 309 307 297 298 297 295 292 292 292 298 300 299 300 290 291 295 293 295 292 291 290 294 288 291 297 301 305 299 301 305 308 317 321 321 319 320 322 322
308 309 309 309 309 309 309 309 309 309 309 309 309 309 309 309 309 308 297 298 299 297 288 290 299 295 300 299 299 299 297 297 299 296 292 288 289 298 293 297 295 302 304 303 301 306 309 314 318 319 318 320 320 320
308 308 308 308 309 309 309 309 309 309 309 309 309 309 310 309 309 306 302 301 302 296 289 291 295 297 297 297 298 299 297 295 293 290 292 291 297 295 299 298 296 304 303 302 302 307 308 308 317 319 316 315 316 316
308 308 308 308 308 309 309 309 309 309 309 309 309 309 309 310 310 298 292 300 304 303 293 286 292 294 298 302 299 297 297 296 294 290 293 298 301 296 291 292 301 304 307 309 308 310 309 313 313 315 313 314 316 315
308 308 308 308 308 308 309 309 309 310 310 310 310 309 310 310 305 295 292 299 305 302 294 289 286 296 302 299 295 294 295 293 295 295 296 297 298 295 294 293 301 305 309 313 313 312 309 311 310 314 314 315 315 316
308 308 308 308 308 308 309 309 310 310 310 310 310 310 310 309 308 301 304 306 305 298 297 288 288 292 300 295 294 300 294 296 297 297 297 295 297 295 293 299 301 305 309 312 312 313 311 313 313 312 313 313 312 313
308 308 308 308 308 308 308 309 309 310 310 310 310 310 306 302 298 302 308 307 305 298 291 291 288 287 301 298 299 299 300 293 299 294 295 295 296 292 297 300 303 307 309 310 311 311 312 311 311 310 311 310 310 311
308 308 308 308 308 308 308 308 309 309 309 309 306 300 296 303 311 310 304 298 296 296 295 289 294 290 296 297 294 296 298 293 288 293 299 293 293 299 302 306 307 309 310 311 307 306 306 307 308 310 310 311 311 310
308 308 308 308 308 308 308 308 309 309 308 300 295 296 301 311 305 301 294 292 293 290 293 293 294 291 302 295 294 300 294 294 286 293 293 291 290 298 305 307 310 310 310 310 310 309 310 310 309 310 311 313 313 314
308 308 307 307 308 308 308 308 308 303 300 300 300 302 302 299 297 292 286 289 288 288 295 294 299 301 301 303 295 299 294 295 290 300 292 287 295 302 305 306 308 310 311 311 312 312 312 310 309 311 312 313 314 315
307 307 307 307 307 308 308 308 309 308 307 302 299 298 294 294 290 287 285 288 290 296 299 301 298 300 301 302 298 296 292 292 301 291 286 291 299 303 304 307 308 311 311 311 312 313 313 313 314 312 313 314 316 314
307 307 307 307 307 308 309 309 309 307 302 297 294 289 291 290 294 295 297 298 299 300 300 301 300 298 301 299 298 295 297 296 290 287 286 295 299 302 304 307 308 308 311 311 312 313 313 313 313 315 316 314 313 312
307 307 307 306 309 309 309 308 309 304 302 297 296 289 294 297 300 302 304 302 303 303 302 300 301 300 297 295 295 295 291 287 288 290 296 302 305 306 307 309 309 309 310 311 311 311 313 312 312 312 313 313 314 313
308 306 306 309 309 308 307 307 308 306 304 300 299 298 299 298 299 302 302 302 306 303 301 299 297 294 293 293 291 289 288 287 293 299 302 304 305 306 307 309 308 309 309 308 309 309 307 308 308 308 309 310 310 308
307 301 308 308 308 307 309 306 307 305 301 300 297 300 299 299 298 301 302 302 306 303 297 297 294 293 295 290 289 294 292 297 301 303 305 306 305 304 307 307 307 308 308 307 306 302 302 303 305 307 304 305 308 308
301 305 308 308 307 306 307 307 303 301 298 300 295 299 300 300 300 301 302 303 301 300 300 298 301 295 292 289 292 299 301 303 305 305 306 308 308 309 309 306 306 308 306 305 303 299 300 300 299 300 300 303 303 303
303 305 307 308 307 303 303 303 303 298 298 298 300 300 300 300 302 303 303 304 303 300 299 299 296 293 294 299 299 301 302 303 303 305 306 308 309 308 308 309 309 305 301 299 298 297 297 297 297 298 298 298 299 300
307 309 310 310 309 303 302 299 305 299 298 301 302 301 298 298 300 301 302 302 300 298 294 293 294 297 296 297 300 303 304 306 305 302 302 304 305 304 304 302 301 300 298 297 297 297 296 297 298 298 298 299 298 297
308 310 311 309 308 305 302 299 299 299 299 298 300 300 299 300 299 298 299 299 298 296 295 296 295 296 297 298 299 301 303 302 299 298 298 295 298 300 301 299 299 299 297 296 295 295 295 294 296 298 298 297 299 298
308 312 308 312 307 306 303 304 300 302 299 299 299 300 297 296 296 297 298 298 297 298 301 297 297 297 297 296 296 298 298 301 298 300 302 299 295 294 295 295 296 294 294 294 294 293 292 293 294 295 295 296 297 296
309 308 307 309 303 296 297 306 301 301 299 298 302 299 298 296 297 300 294 297 299 301 300 299 299 299 298 297 296 296 296 296 296 296 298 297 296 296 294 294 294 293 292 292 293 292 290 291 291 291 292 292 292 293
309 305 302 303 302 296 305 302 303 300 303 301 298 296 297 299 303 295 293 296 297 300 300 299 299 298 297 295 294 295 295 296 296 297 295 296 292 290 290 290 291 292 291 292 291 290 289 289 290 289 290 290 290 290
298 298 301 291 303 300 300 299 300 298 296 299 296 295 296 299 296 295 294 294 299 299 298 299 299 298 293 291 292 293 294 293 292 292 292 292 290 290 288 288 288 288 289 288 287 287 287 287 287 288 290 289 289 289
293 301 296 300 299 298 299 297 298 300 298 297 298 299 301 297 293 290 291 294 296 297 297 298 299 295 291 292 290 290 290 291 292 290 289 290 289 287 286 285 285 286 288 288 287 287 287 288 288 288 288 288 289 288
293 297 300 303 301 302 300 301 301 297 295 296 297 298 297 292 289 292 296 298 297 299 300 301 299 291 290 290 290 289 290 290 288 288 289 288 288 288 288 286 284 286 288 289 288 288 287 287 287 287 287 287 286 287
301 301 298 302 302 304 300 297 297 294 294 297 298 294 292 291 289 295 297 300 301 304 300 296 293 292 291 290 289 288 288 288 289 288 287 287 287 288 288 288 288 292 288 288 288 288 287 287 287 287 287 285 285 286
304 307 305 301 302 301 300 298 296 296 297 297 296 293 293 297 298 298 299 300 294 292 291 290 290 291 290 291 290 289 288 286 284 283 282 281 282 284 287 287 287 287 287 288 290 290 290 288 287 287 287 286 285 285
306 308 304 302 299 298 300 300 298 299 298 298 298 297 297 298 301 302 297 295 292 290 289 290 289 289 287 287 286 286 286 286 284 283 281 281 282 285 286 286 286 287 287 287 287 286 290 288 287 286 286 285 284 284
308 306 304 302 300 302 302 303 302 302 300 299 299 297 296 298 300 299 298 294 292 291 290 289 289 289 288 287 286 285 283 285 286 286 285 284 285 285 286 286 286 286 286 287 286 285 285 285 284 285 285 285 285 285
304 301 300 300 301 304 304 302 301 301 301 301 301 300 299 299 297 299 298 295 292 290 292 290 288 288 288 288 288 288 289 286 285 285 285 285 285 285 285 285 286 286 287 287 286 286 286 286 285 285 285 285 285 286
302 303 303 301 302 303 305 304 302 302 300 300 301 302 301 298 294 296 296 295 292 290 289 290 290 290 290 290 289 289 289 287 287 288 288 288 288 286 284 285 286 287 287 286 286 286 286 286 285 285 285 285 286 286

GFSWCAN_sfc_thetae_015.txt.gz
Theta_e
309 309 309 309 309 309 309 309 309 309 309 309 309 310 310 309 309 300 296 299 295 292 292 294 294 290 290 289 285 286 286 288 285 285 285 282 282 286 284 288 288 289 290 290 290 289 288 312 312 306 311 316 321 320
308 309 309 309 310 309 309 310 309 310 309 309 309 309 309 309 309 307 298 299 301 296 292 296 297 297 296 294 291 289 287 287 289 285 285 286 284 287 284 283 293 288 295 294 295 296 303 309 312 319 318 317 320 320
308 308 308 309 309 309 309 310 310 310 310 309 309 309 310 310 309 307 300 298 297 294 293 293 292 297 299 299 299 290 292 292 291 295 292 289 286 291 283 286 290 295 300 298 299 303 308 312 315 317 318 317 318 319
308 308 308 309 309 309 309 310 310 310 310 310 309 309 309 309 310 309 300 297 298 295 288 289 298 294 297 297 297 297 295 296 298 297 291 288 287 294 289 291 289 293 299 298 300 305 309 313 314 316 316 317 317 319
308 308 309 309 309 309 309 309 309 309 310 310 311 310 310 310 310 307 301 300 301 294 289 290 294 295 295 295 296 296 295 293 292 292 291 289 293 293 295 292 291 300 300 297 296 306 307 309 313 315 314 314 313 316
308 308 308 308 308 309 309 309 309 310 310 310 311 311 310 310 309 300 293 299 301 302 293 286 289 291 294 296 296 294 295 294 294 292 288 291 298 294 290 285 300 304 306 307 307 309 310 312 313 314 313 314 318 317
308 308 308 308 308 309 309 309 309 310 310 310 311 311 310 309 306 297 293 300 305 303 293 289 288 292 298 297 295 294 296 292 294 290 290 291 294 295 291 288 300 303 305 308 312 310 308 312 310 313 315 316 316 316
308 308 308 308 308 309 309 309 309 310 310 310 310 311 310 309 307 302 306 306 305 298 295 288 288 291 300 294 293 299 292 294 297 296 297 295 296 295 288 295 301 302 307 308 312 311 311 312 312 312 313 315 313 312
308 308 308 308 308 308 308 309 309 309 310 310 310 310 306 302 298 300 309 308 304 298 289 289 286 287 300 297 298 298 299 292 299 294 294 295 291 288 295 297 299 304 306 309 311 310 311 310 310 310 310 311 311 312
308 308 308 308 308 308 308 308 309 309 309 309 304 300 295 301 310 310 303 297 296 296 295 288 292 288 295 296 295 295 297 292 287 291 298 290 288 296 299 303 306 309 310 310 307 306 307 307 308 308 309 310 311 312
307 307 308 308 308 308 308 308 308 308 306 299 295 294 299 307 305 301 292 291 292 288 292 292 292 288 299 293 294 298 289 292 285 290 291 287 287 298 305 306 309 310 311 309 310 309 310 309 308 307 309 310 313 314
307 307 308 308 308 308 308 308 308 302 299 300 301 304 299 297 297 292 289 290 287 287 293 293 296 296 299 302 295 296 291 292 288 298 290 286 291 301 305 307 309 311 311 311 312 311 311 311 310 310 310 311 313 314
307 308 308 308 308 308 308 309 309 309 306 302 298 297 293 294 291 288 285 290 293 296 298 299 298 300 301 302 297 294 293 293 300 289 285 288 297 302 304 306 309 311 312 313 313 313 312 313 313 313 314 315 315 314
307 307 308 308 307 308 309 309 309 306 301 297 293 290 292 291 295 295 296 298 301 299 300 301 300 297 300 296 298 294 295 294 289 285 287 296 303 306 308 309 308 308 308 309 312 312 312 312 312 313 312 312 310 308
307 308 308 307 309 309 309 308 309 303 301 297 296 287 294 298 300 301 301 301 302 304 302 299 299 298 294 294 295 293 291 286 288 291 297 302 305 306 306 306 306 305 305 306 307 308 309 309 308 307 308 308 307 308
308 307 305 308 308 308 307 307 307 304 300 301 300 297 298 296 297 298 298 298 303 303 301 300 295 293 293 293 291 289 287 286 293 299 303 305 304 305 305 304 303 301 300 299 300 301 301 303 304 304 305 304 304 305
307 300 307 307 308 307 307 305 304 301 299 301 299 301 296 296 295 298 298 298 302 301 297 297 293 293 296 292 291 295 293 297 301 303 305 305 305 304 305 303 302 301 299 298 298 298 298 300 300 300 300 301 304 305
300 302 307 307 307 304 304 305 301 303 298 297 294 296 297 298 298 299 299 300 297 296 297 297 299 294 292 291 293 298 300 302 303 304 305 306 305 305 305 302 301 298 296 296 297 296 296 297 296 296 297 300 302 301
303 305 307 308 307 303 303 302 304 298 299 297 301 299 297 298 300 300 300 301 300 297 295 293 292 290 291 295 296 299 301 302 301 303 303 303 304 301 299 298 297 296 295 294 294 294 295 296 296 296 297 298 296 297
307 309 310 310 308 302 299 298 301 297 295 298 299 298 297 296 297 298 300 299 296 294 292 291 291 293 295 295 298 298 299 300 300 298 294 296 298 297 295 295 294 294 294 293 293 294 294 294 296 296 296 295 294 293
306 309 310 308 306 304 300 297 297 297 297 297 298 297 296 298 296 296 297 297 296 293 292 293 295 295 295 296 297 296 296 295 294 292 290 290 293 295 294 292 292 292 291 290 289 289 290 289 291 292 295 295 294 293
304 310 305 309 305 303 300 301 298 299 300 300 299 298 296 294 293 294 295 293 294 297 297 294 294 294 292 292 292 295 297 298 296 295 294 293 291 291 292 293 290 289 289 288 288 287 287 287 289 289 290 292 293 290
307 307 305 306 301 295 296 303 299 302 299 300 301 297 298 297 296 296 292 294 297 298 296 296 296 295 293 293 293 292 292 294 292 291 290 288 288 288 290 291 291 290 288 288 287 286 286 289 288 288 289 290 290 288
307 303 301 299 299 294 302 299 300 299 300 296 293 290 297 299 299 292 289 292 296 298 296 296 295 292 290 290 288 288 289 290 290 289 289 287 286 285 285 286 286 286 286 285 285 285 285 286 288 288 288 288 287 286
296 296 298 290 298 297 298 297 297 296 294 295 292 292 293 298 291 290 287 291 293 294 295 296 294 290 288 286 286 286 288 288 286 286 286 286 285 284 285 285 285 285 285 285 284 285 285 286 286 287 287 286 286 285
290 298 294 297 296 296 296 295 296 295 295 295 296 299 298 292 290 287 289 292 294 295 295 295 294 288 286 286 284 285 285 286 286 285 285 285 285 284 283 283 283 284 285 284 285 285 286 286 286 286 285 286 288 285
291 295 297 300 299 299 297 298 297 293 292 293 297 296 292 288 285 289 293 295 295 300 299 291 289 288 286 284 285 285 284 284 285 285 284 284 284 285 285 284 283 284 285 287 286 286 285 285 285 285 284 284 284 285
299 299 296 298 299 300 298 295 294 292 292 294 295 292 290 289 286 292 295 297 296 293 289 288 288 288 286 285 285 284 284 284 285 284 284 284 284 284 285 285 285 289 286 286 286 286 286 285 285 285 285 284 283 284
300 302 301 298 300 299 297 296 294 294 295 295 293 291 292 295 295 296 297 296 289 288 288 287 286 286 286 285 285 284 283 283 282 280 280 279 281 283 284 285 285 285 285 285 290 289 288 286 286 285 285 284 283 284
303 305 300 301 298 296 298 298 296 297 295 296 296 295 295 296 298 299 293 289 288 289 290 287 286 285 284 283 282 282 283 282 282 281 279 279 281 282 283 284 284 284 284 285 284 284 288 286 286 285 285 284 283 283
305 304 301 299 298 299 300 300 301 301 300 296 297 296 295 296 297 295 290 289 288 288 287 286 285 285 285 284 282 282 281 283 283 283 282 282 282 283 284 284 284 284 284 284 284 284 284 284 283 283 284 284 284 284
300 298 298 298 297 299 300 299 298 299 299 297 296 297 298 296 294 296 292 289 288 287 289 287 286 285 286 286 286 285 287 284 284 284 284 283 283 283 283 283 284 285 285 285 285 285 285 284 284 284 284 284 284 285
298 299 298 300 298 298 300 300 298 300 297 296 297 300 298 297 294 294 293 291 290 288 287 287 287 287 287 287 286 285 287 285 286 288 288 288 287 286 283 283 284 285 285 285 286 286 286 285 285 285 285 285 284 284

GFSWCAN_sfc_thetae_018.txt.gz
Theta_e
309 308 308 309 309 309 309 310 310 310 309 310 310 310 310 310 310 302 298 298 298 292 291 292 294 290 290 289 284 287 285 286 285 284 284 282 280 283 282 285 284 283 283 283 285 284 283 305 310 306 310 316 317 319
309 309 309 308 309 309 310 310 310 310 310 310 310 310 310 311 310 308 298 298 301 295 293 297 296 297 295 293 291 291 289 285 286 283 286 284 284 285 286 280 289 283 290 288 290 290 298 308 307 315 317 315 316 316
308 308 309 309 309 309 309 310 310 310 310 310 310 311 311 311 311 308 301 301 298 294 291 290 290 296 297 297 298 289 291 293 292 295 291 289 285 289 282 284 288 292 295 292 293 297 302 309 314 314 315 315 316 318
308 308 309 309 309 309 309 309 310 310 310 311 310 311 311 311 311 310 302 301 299 295 287 287 297 293 297 297 297 296 294 292 294 297 291 287 286 292 288 290 287 290 292 291 292 298 305 311 313 312 315 316 316 318
308 308 308 308 309 309 309 309 310 310 310 311 311 311 311 311 311 308 305 302 303 295 286 287 294 294 294 294 295 296 294 292 292 291 290 289 291 290 292 291 289 293 290 290 290 299 302 305 311 314 313 315 315 316
308 308 308 308 308 309 309 309 310 310 310 310 311 311 311 311 311 301 293 299 303 302 292 287 291 292 295 293 293 293 293 292 292 290 289 293 294 292 288 287 293 297 300 300 301 307 309 311 313 315 314 317 319 318
308 308 308 308 309 309 309 309 309 309 310 310 310 310 311 310 305 297 294 300 303 302 293 288 289 293 295 296 294 292 293 292 291 291 290 288 292 295 291 286 293 298 300 303 307 308 308 311 310 314 316 316 317 319
308 308 308 308 308 309 309 309 309 310 310 310 310 310 311 310 307 302 305 306 305 298 295 287 288 291 297 291 291 294 290 291 293 292 294 292 296 294 288 293 296 299 300 303 305 309 311 313 314 313 315 316 314 313
308 308 308 308 308 308 308 309 309 309 310 310 310 310 305 302 300 301 309 309 305 297 287 287 286 286 299 296 297 297 297 291 297 293 294 295 291 287 291 293 297 300 301 304 309 310 311 311 312 313 313 313 313 313
307 307 307 308 308 308 308 309 309 309 309 308 301 297 294 299 309 310 301 296 295 295 294 286 290 287 293 294 295 294 296 291 287 290 295 290 287 293 296 298 302 302 306 308 307 306 309 309 310 311 311 312 313 314
307 307 308 308 308 308 308 308 309 309 305 298 294 293 300 306 305 300 292 291 291 287 288 289 290 288 297 290 293 296 289 289 285 289 288 285 286 295 302 303 308 310 310 310 310 309 309 309 310 311 311 312 313 314
307 307 307 307 308 308 308 308 309 306 299 302 302 304 300 298 297 293 290 292 288 288 294 292 295 294 296 300 295 295 289 287 286 297 287 285 291 300 306 307 310 311 311 311 312 311 311 311 310 312 314 314 314 315
306 306 306 307 308 308 309 309 309 309 306 302 296 294 295 297 291 290 287 291 294 299 298 300 298 300 301 302 297 295 292 290 297 287 284 293 300 301 302 306 308 311 312 312 311 313 313 312 311 311 310 313 315 314
306 306 307 308 308 309 309 309 309 305 301 296 294 289 293 292 293 295 294 295 300 300 299 298 298 297 298 293 297 292 295 294 288 284 288 296 299 299 299 300 301 302 307 307 307 308 307 306 306 307 308 311 310 310
306 307 307 307 308 308 309 308 309 302 300 295 296 288 290 297 298 299 299 299 300 301 298 297 296 296 295 295 295 292 291 286 288 289 295 299 301 300 298 298 299 299 300 301 302 302 303 304 303 303 304 305 304 303
307 306 304 307 308 308 308 306 306 303 301 299 297 293 296 295 294 295 295 294 299 301 300 299 295 293 293 294 292 290 286 287 293 298 301 301 300 299 298 297 297 298 299 299 300 301 300 301 302 302 303 302 301 300
307 301 307 307 308 308 307 304 302 300 299 298 295 296 294 294 293 295 296 295 297 298 295 297 293 292 296 291 291 294 292 296 299 299 301 301 300 298 296 295 295 295 295 296 296 297 298 301 300 300 298 299 299 299
300 301 307 307 307 304 305 302 301 300 295 295 293 295 295 294 294 296 297 299 294 291 295 295 297 291 289 289 291 296 299 302 300 297 297 297 297 297 296 294 294 293 293 294 295 296 296 296 296 296 297 297 297 297
303 305 307 308 308 301 300 301 301 295 295 295 296 296 295 295 297 297 299 299 298 294 293 293 290 288 290 293 294 296 297 299 297 296 295 296 294 294 294 293 292 291 291 291 291 293 295 296 295 296 296 296 294 294
307 308 309 310 307 300 298 297 300 297 294 297 299 296 295 294 295 297 298 297 294 292 290 288 290 292 292 294 296 296 296 295 297 291 290 293 293 292 291 290 290 289 289 290 290 291 291 293 293 295 294 293 292 291
305 308 309 307 305 301 298 296 296 296 295 296 297 297 295 296 294 293 294 296 293 291 289 291 291 291 291 294 293 294 294 292 290 290 289 288 292 293 292 291 291 289 288 287 287 288 288 287 289 292 292 290 290 290
302 308 304 307 303 301 299 299 297 298 298 297 297 296 293 293 291 292 293 293 292 293 293 292 292 293 291 291 290 291 293 293 291 289 290 289 287 288 288 290 289 288 287 287 287 286 287 287 289 291 290 289 290 289
306 305 304 305 300 294 295 301 298 297 294 294 296 293 293 295 294 295 292 293 294 295 296 293 293 292 289 290 290 290 290 290 288 287 287 286 286 286 287 287 287 287 285 285 286 286 286 288 290 290 290 289 288 287
307 302 300 298 297 293 300 297 299 297 296 293 292 289 292 294 295 291 288 290 293 296 294 294 291 289 288 288 286 286 287 287 287 287 287 286 285 285 285 286 286 286 286 286 286 286 287 288 289 288 288 287 287 286
295 296 296 288 296 296 296 296 295 294 293 293 290 291 292 294 290 288 287 290 292 293 294 293 289 288 286 285 285 286 286 286 286 285 285 286 285 285 286 286 286 286 286 286 286 287 287 287 287 288 288 287 286 286
288 296 293 294 294 295 295 294 294 294 294 293 297 297 294 291 288 285 288 291 293 294 295 294 289 286 285 285 284 285 285 285 285 285 284 284 285 285 284 284 284 285 287 286 287 287 287 287 287 287 286 287 288 287
289 294 296 298 297 297 296 296 295 292 291 291 293 294 291 286 285 288 292 293 294 296 296 292 290 287 285 284 284 284 284 285 286 285 285 284 284 284 285 285 285 286 287 288 288 288 287 287 286 286 286 286 286 286
298 297 295 297 297 298 296 294 293 291 291 293 294 291 289 288 286 290 294 296 295 289 287 287 287 287 285 285 285 285 285 284 285 284 284 285 285 285 285 286 286 288 288 288 288 288 288 288 287 287 286 286 286 287
299 300 299 297 299 298 297 295 294 294 294 295 294 291 292 294 294 295 296 293 288 291 289 287 285 285 285 284 284 284 284 283 284 282 281 281 282 284 285 286 286 286 286 287 289 289 289 288 287 287 287 286 286 287
301 302 299 299 297 296 297 298 297 296 296 297 296 295 295 297 298 299 292 289 288 291 291 288 286 285 285 284 284 284 284 284 283 283 281 282 283 284 285 285 285 285 285 287 286 287 288 288 288 288 287 287 287 287
303 303 301 299 298 298 300 298 299 301 301 299 297 295 295 297 299 295 292 289 289 288 288 286 286 286 285 284 284 283 283 285 285 286 285 284 284 285 285 285 286 286 286 287 287 286 287 286 286 286 286 286 287 287
300 301 300 297 297 298 299 297 297 297 299 297 297 297 298 298 295 297 293 289 289 288 289 288 286 286 287 287 287 286 287 286 285 286 287 285 286 286 285 285 286 287 288 288 287 287 287 287 287 287 286 286 287 287
297 297 297 299 296 297 298 298 296 297 296 294 296 297 299 299 297 298 294 292 291 290 288 288 288 288 289 290 288 287 287 287 287 287 287 287 287 287 286 285 286 287 287 287 288 288 288 288 287 288 288 287 287 287

GFSWCAN_sfc_thetae_024.txt.gz
Theta_e
309 310 309 310 310 310 310 310 310 311 311 311 311 311 311 312 312 309 304 305 300 293 296 299 299 295 293 292 289 292 292 293 294 289 288 290 288 292 290 292 291 290 289 289 291 289 288 304 304 302 313 320 320 322
309 309 309 309 309 310 310 310 310 310 311 311 310 311 311 312 312 311 303 305 305 297 296 303 303 303 301 299 294 294 292 293 297 293 295 293 290 292 290 287 296 289 293 292 294 294 303 305 306 310 311 313 319 319
308 308 309 309 309 310 310 310 310 310 311 310 310 311 311 312 312 311 305 302 300 295 295 297 300 304 307 305 304 292 294 296 295 299 293 294 289 294 288 289 292 296 299 294 295 298 301 304 307 309 311 312 315 320
308 309 309 309 309 310 310 310 310 310 310 310 310 311 311 312 312 312 307 303 302 297 290 296 305 302 306 306 304 303 300 300 298 298 294 290 288 295 293 294 293 296 298 296 297 300 302 304 306 309 310 315 318 320
308 309 309 309 309 309 310 310 310 310 309 310 310 311 312 312 312 313 313 306 306 297 291 294 302 304 305 305 303 303 300 297 295 292 290 289 293 292 296 294 292 298 296 294 294 301 301 303 308 311 312 313 317 319
308 308 308 308 309 309 309 309 310 310 310 310 311 311 311 311 310 310 302 307 307 304 294 289 301 301 303 302 301 301 299 298 296 292 291 293 296 293 291 289 298 301 303 303 301 306 306 308 309 311 311 313 315 320
308 308 308 308 309 308 309 309 309 309 310 310 311 311 311 310 309 305 300 304 307 306 294 290 292 301 301 301 300 298 299 297 295 292 290 291 294 294 291 288 296 301 302 303 304 304 303 306 306 310 313 316 318 323
308 308 308 308 308 308 309 309 309 309 310 311 310 311 311 309 308 304 307 306 307 300 296 288 290 294 301 296 295 298 293 293 292 291 292 291 293 292 287 294 298 300 302 302 301 302 303 306 308 308 313 319 319 319
308 307 308 307 307 308 308 308 309 310 310 310 309 310 311 309 304 304 310 307 307 299 289 288 286 288 299 295 298 295 293 288 294 289 290 293 290 286 290 293 294 297 298 298 301 301 303 306 308 309 312 315 309 316
307 307 307 307 307 308 308 309 310 310 309 308 311 309 307 308 310 309 302 297 297 297 293 286 290 286 292 293 294 294 295 289 287 290 291 286 286 291 294 301 306 299 299 301 299 298 302 307 310 311 311 310 313 316
307 307 307 307 307 308 309 309 309 309 309 313 311 308 312 309 305 305 300 293 293 290 291 291 291 289 297 290 292 295 291 289 286 290 287 285 286 292 299 301 304 307 304 303 305 306 309 312 311 311 312 317 318 317
307 307 307 307 308 308 309 309 309 314 313 309 309 307 311 308 305 299 295 297 296 295 302 297 299 295 297 298 295 296 291 292 289 299 291 285 288 296 298 300 302 304 308 309 309 308 311 311 310 311 310 310 312 313
307 306 307 307 308 309 309 309 309 309 309 314 309 304 305 302 290 289 286 291 293 301 304 303 301 305 307 304 304 302 295 294 303 292 285 286 293 297 297 298 301 303 303 304 305 306 304 303 304 305 305 307 309 309
306 306 307 308 309 309 310 309 310 310 315 309 303 291 298 296 294 293 295 297 302 303 304 307 304 303 306 301 300 295 300 298 291 286 285 292 297 298 299 299 301 300 301 302 302 303 302 302 302 304 305 309 309 307
307 307 308 310 309 309 310 309 310 320 312 305 303 293 297 300 302 303 304 303 305 306 308 307 307 305 302 300 300 297 294 288 287 287 293 298 300 300 300 300 301 301 302 301 302 302 302 302 301 300 301 302 303 307
308 309 314 308 309 309 309 315 319 317 312 306 303 300 302 300 300 302 303 303 307 308 313 309 303 299 299 299 292 290 288 285 289 295 299 299 299 300 300 302 303 303 304 303 304 304 305 306 303 302 302 302 301 302
307 317 308 309 309 309 311 318 315 309 305 303 301 305 304 303 301 302 303 303 308 305 302 303 294 292 299 292 290 291 289 291 295 296 296 299 300 302 303 302 302 304 304 305 305 305 303 304 305 305 303 304 304 303
316 316 311 309 310 316 320 316 311 307 301 306 302 304 305 305 303 303 304 305 304 303 303 298 301 294 291 289 291 298 300 303 299 296 296 299 300 301 303 302 303 302 303 304 305 306 306 305 304 303 303 303 302 302
312 311 309 308 311 315 313 312 314 304 305 308 309 309 307 305 305 306 306 306 306 306 305 300 295 293 294 298 297 298 299 301 301 299 298 300 301 302 301 301 301 301 301 302 302 303 303 303 303 303 303 302 300 300
308 308 309 310 312 316 308 311 316 309 306 307 310 308 308 306 304 304 304 304 303 301 298 295 295 297 297 299 301 300 300 301 300 299 300 301 301 301 300 299 298 299 298 299 299 297 302 301 301 301 300 300 299 298
311 316 313 317 322 318 314 313 311 311 311 309 312 310 308 310 304 302 301 304 300 298 296 299 300 301 305 305 304 302 301 301 299 298 297 297 299 299 299 298 299 298 297 296 296 297 298 298 299 300 299 298 298 298
319 310 320 322 317 314 315 316 313 315 312 311 312 311 308 305 303 302 304 300 299 301 302 301 302 302 303 302 303 303 303 303 302 299 297 297 296 296 296 296 296 295 296 296 297 297 298 298 299 299 298 298 297 296
312 315 320 317 311 306 305 318 310 312 306 308 310 305 306 306 307 308 301 303 303 306 305 304 305 306 303 304 305 303 302 300 298 297 297 297 299 298 297 296 296 295 294 295 298 298 297 294 297 298 298 297 297 296
308 315 311 310 310 302 313 309 314 312 311 307 305 301 303 306 310 304 297 301 303 307 304 304 301 300 302 303 299 298 299 299 297 297 297 296 295 296 297 297 296 296 296 297 297 297 296 296 293 296 295 295 295 294
304 303 307 294 311 306 302 303 304 305 299 304 301 302 306 309 302 298 295 300 303 303 303 304 302 300 297 297 300 299 300 297 296 295 296 295 295 296 296 298 299 297 297 296 295 295 295 296 295 295 294 294 293 293
296 306 301 306 309 305 305 299 300 299 300 301 303 309 309 304 294 292 299 302 304 305 304 302 300 299 298 298 296 296 296 298 297 295 295 295 295 294 293 293 293 295 297 296 295 295 295 295 294 293 293 292 289 292
299 304 311 315 313 311 309 309 309 303 297 298 304 303 302 294 293 299 303 305 305 305 306 304 303 300 299 298 299 299 299 298 296 295 296 296 296 296 295 293 292 294 296 296 296 295 294 294 294 293 293 295 294 294
311 311 306 310 310 312 305 306 303 299 301 306 305 298 297 297 298 304 306 308 310 306 303 302 302 302 301 299 300 300 299 299 298 298 297 296 298 297 296 296 296 290 295 296 295 296 295 295 294 294 293 293 294 295
311 314 312 308 309 309 308 306 306 308 310 306 303 303 303 308 309 308 308 307 305 304 300 299 300 301 300 299 300 300 298 296 294 291 290 291 292 293 295 295 296 296 296 296 287 290 293 293 294 294 294 294 295 295
311 315 309 307 305 305 311 313 311 314 311 310 311 309 309 310 311 311 307 303 303 300 299 301 299 299 299 298 298 298 299 298 296 293 291 291 292 295 295 295 295 296 297 296 295 294 289 293 293 293 293 292 293 292
317 314 310 310 308 312 313 316 314 313 311 309 310 306 307 311 310 311 309 307 306 302 299 298 299 302 300 299 296 295 296 297 296 296 295 296 296 296 295 295 296 296 295 294 294 293 293 292 292 291 291 291 291 291
314 311 310 306 307 315 314 312 312 310 311 309 309 311 310 310 306 307 304 306 305 302 296 300 302 298 299 299 298 298 287 298 298 298 296 297 296 296 296 296 296 295 294 293 293 293 292 292 292 292 292 291 291 291
310 310 310 308 308 307 311 309 309 307 308 308 309 310 310 307 304 305 304 304 303 303 303 302 301 300 300 298 298 297 292 300 294 289 290 288 287 289 293 295 296 295 293 293 293 293 292 292 292 292 291 292 291 291

GFSWCAN_sfc_thetae_027.txt.gz
Theta_e
310 310 310 310 310 310 310 311 311 311 311 311 311 311 312 312 312 310 307 308 300 294 296 301 302 296 297 295 290 295 295 296 294 291 290 290 289 294 292 295 294 293 292 293 294 293 292 309 308 305 311 316 318 321
309 309 309 310 310 310 310 311 311 311 311 311 311 311 312 312 313 312 305 307 306 298 297 305 306 306 304 301 296 297 296 296 295 294 295 295 291 293 293 288 298 291 297 294 296 297 307 309 308 311 312 312 315 317
309 309 309 310 310 310 310 310 311 311 311 311 311 312 312 312 312 312 308 304 302 296 296 298 301 306 309 306 306 293 297 299 297 300 295 294 291 295 290 291 294 299 302 296 298 301 303 306 309 310 310 311 313 315
309 309 309 310 310 310 310 310 310 311 311 311 311 311 312 313 312 312 308 304 303 298 290 297 307 304 307 307 305 304 302 301 300 300 295 294 291 298 293 295 295 298 300 298 298 301 303 305 307 308 309 311 312 316
309 309 309 309 309 309 310 310 310 310 311 310 311 311 312 312 312 313 314 307 307 299 293 295 303 306 307 306 304 303 301 299 296 293 293 292 296 295 297 296 294 299 297 295 295 303 303 305 308 309 308 310 314 316
308 309 309 309 308 309 310 310 310 310 310 310 311 311 311 311 310 311 304 310 310 306 295 291 302 301 304 304 302 301 301 299 298 295 293 294 298 294 291 292 300 301 303 303 301 305 305 308 309 310 309 312 313 314
308 308 308 308 309 309 309 309 309 310 310 311 312 312 311 311 314 306 302 307 308 307 295 290 293 301 303 302 302 301 302 299 296 293 290 292 293 293 290 288 297 300 302 304 305 304 304 306 306 311 311 311 312 313
308 308 308 309 308 309 309 309 309 310 311 311 311 311 310 309 308 308 310 307 308 301 297 289 290 294 301 296 295 298 294 294 292 290 291 290 292 291 286 293 297 298 299 302 305 306 305 308 308 310 311 312 312 314
308 308 308 308 308 308 309 309 310 311 311 310 311 311 313 309 306 306 309 308 308 300 290 289 286 287 298 295 298 295 293 288 293 288 288 289 288 286 290 289 289 293 294 296 304 304 304 306 307 308 309 311 310 312
308 308 308 308 308 308 309 309 310 311 310 309 311 309 306 311 311 308 303 300 298 298 295 289 292 288 294 294 294 295 293 291 288 291 292 287 286 291 293 300 305 303 298 298 298 298 299 300 305 307 308 312 311 318
308 307 307 308 308 308 309 310 310 310 310 313 314 311 314 312 307 306 304 302 303 299 298 298 294 292 298 292 293 296 292 291 288 294 292 286 286 291 297 300 305 307 305 303 302 303 304 305 307 309 312 316 317 315
308 307 308 307 307 309 309 310 310 315 317 311 313 314 318 309 307 303 300 303 302 301 306 304 306 300 301 299 296 301 299 299 292 301 292 285 290 297 298 300 302 303 304 304 307 306 308 310 313 313 311 312 310 309
307 308 307 308 308 309 310 310 310 309 309 319 312 306 306 306 296 293 288 293 294 302 305 306 307 310 309 306 306 304 296 295 302 294 285 290 297 299 300 302 302 304 304 304 303 303 303 305 307 307 307 308 309 308
308 308 308 309 309 310 310 310 310 312 314 311 304 294 300 299 299 299 300 301 306 307 307 307 309 310 309 306 304 296 301 299 291 285 286 296 299 302 304 305 304 303 304 304 303 302 302 302 302 304 306 306 306 304
308 308 309 311 310 310 310 311 311 318 314 307 306 297 300 303 305 305 307 307 309 311 311 307 307 307 303 300 300 299 295 290 289 288 294 298 302 304 304 304 305 305 306 305 307 305 303 302 301 301 304 305 306 308
308 308 317 310 310 310 310 317 321 320 314 309 306 302 304 302 302 304 305 305 310 310 313 308 304 301 298 299 293 290 289 286 290 296 299 303 303 304 305 304 304 305 305 305 305 306 306 304 304 304 304 305 304 303
306 321 310 310 309 309 312 320 319 311 309 305 304 308 306 304 302 304 305 305 310 307 304 304 297 295 300 295 292 294 290 292 300 300 300 304 304 305 305 304 303 303 304 304 305 307 306 307 306 304 304 304 304 305
320 321 312 309 311 319 324 319 314 311 304 309 305 307 307 306 304 305 306 308 307 306 305 301 303 295 293 290 292 296 300 304 303 303 305 304 306 305 304 304 304 303 303 303 304 305 306 305 304 303 305 305 303 304
315 313 310 309 311 316 315 315 316 307 307 311 312 310 309 307 307 308 307 308 308 309 306 303 295 292 293 296 296 299 300 300 300 302 304 306 305 304 304 303 303 302 302 302 301 302 303 304 303 303 304 304 301 302
308 309 309 311 313 319 311 314 319 312 307 309 313 309 308 308 307 307 306 306 305 304 300 298 298 299 300 301 302 301 301 301 301 299 300 301 302 303 302 301 300 301 300 301 301 298 302 302 302 302 301 301 300 299
311 319 315 319 325 321 316 314 313 312 313 309 311 311 309 310 307 304 304 307 303 301 299 302 302 304 306 305 305 303 302 301 300 300 298 297 300 301 300 300 300 300 298 299 299 300 300 300 301 301 300 300 300 300
323 312 324 322 320 317 318 320 313 316 313 312 311 310 308 305 305 304 307 304 302 303 303 303 303 304 303 305 304 305 304 304 304 301 299 298 298 299 299 299 298 297 298 298 300 299 299 299 300 301 300 300 300 298
314 318 323 320 314 308 308 321 310 311 306 307 310 306 306 306 308 310 304 305 305 309 308 305 305 307 305 306 306 305 304 302 300 300 300 299 299 302 300 299 299 297 297 298 300 299 299 295 298 298 299 299 298 298
308 320 314 312 312 304 315 310 315 311 312 307 306 301 304 306 310 306 300 304 306 309 306 307 306 302 303 306 302 302 302 301 299 299 300 298 297 298 299 300 300 299 298 299 299 298 298 298 295 298 298 297 297 296
306 306 309 296 313 307 303 303 305 306 301 303 302 304 306 311 303 301 300 304 306 307 307 308 305 303 301 301 300 301 303 300 298 297 299 298 297 297 298 299 300 299 299 298 297 297 297 298 297 297 297 295 295 296
295 309 303 307 310 306 306 302 302 303 303 302 304 309 310 305 299 295 303 305 307 306 306 306 303 302 301 302 299 298 299 300 299 297 297 298 297 296 295 295 296 296 299 298 297 296 296 297 296 296 296 294 290 294
298 305 313 318 313 311 309 310 312 307 301 300 303 303 303 297 297 302 307 309 308 307 307 307 303 302 302 302 302 302 301 301 299 298 300 299 298 298 297 295 294 296 298 298 298 297 296 295 295 295 295 296 296 296
312 313 307 311 311 312 306 306 304 302 303 309 306 300 299 298 300 308 309 310 311 307 308 305 303 304 302 301 302 301 300 300 302 300 300 299 300 299 298 298 298 290 297 297 296 297 297 296 295 295 295 295 295 297
312 314 313 308 310 309 308 306 307 308 312 307 303 302 304 310 312 312 312 312 310 312 307 304 304 305 303 303 302 303 300 299 296 294 293 294 294 296 298 298 298 299 298 297 289 292 294 294 295 295 295 296 295 298
312 317 309 308 306 305 308 312 310 312 313 313 312 311 311 312 314 315 311 309 312 311 309 306 306 303 301 301 299 300 302 300 299 296 294 293 294 297 297 297 297 297 297 297 296 296 291 295 294 296 295 295 294 294
316 314 310 309 307 309 312 313 314 316 316 312 313 310 308 312 312 313 313 314 314 312 308 306 306 305 301 299 298 297 296 300 299 298 297 298 297 297 297 297 297 297 296 295 296 295 295 294 294 293 293 292 293 292
312 311 309 306 308 312 316 312 310 309 311 311 309 312 312 312 308 311 311 312 310 307 296 301 303 301 302 301 300 300 290 300 301 300 298 298 297 297 297 297 298 297 297 296 296 295 294 294 295 293 292 292 293 292
312 310 310 308 308 308 311 309 308 307 308 309 309 311 311 309 306 308 311 309 307 306 304 303 303 302 301 300 300 300 293 301 295 290 290 289 287 290 294 297 297 296 296 296 295 294 294 293 293 293 293 293 293 293

GFSWCAN_sfc_thetae_030.txt.gz
Theta_e
310 310 310 310 310 311 311 311 311 311 311 310 311 312 312 312 313 312 308 308 300 294 295 299 300 296 297 297 292 296 295 297 295 290 291 290 289 293 293 295 293 293 291 292 295 294 292 308 310 306 313 315 316 318
310 310 310 310 310 311 311 311 311 311 311 311 311 312 312 312 313 312 305 308 306 298 297 304 303 305 304 303 298 298 295 296 296 292 294 293 290 292 292 288 299 293 297 294 297 298 312 310 309 311 312 312 312 314
310 310 310 310 310 310 310 310 311 311 311 311 312 312 312 313 312 312 309 306 303 297 297 297 299 306 309 307 307 294 298 299 298 300 294 293 291 295 290 292 293 297 302 297 298 302 304 306 308 310 311 310 312 312
309 309 310 310 310 310 310 310 311 311 311 311 311 312 312 312 313 312 309 306 304 299 291 296 307 304 309 307 306 305 302 302 302 300 295 294 291 298 293 294 294 297 299 298 298 302 304 305 307 308 309 310 310 312
309 309 309 309 309 309 310 310 310 311 311 311 312 312 312 312 312 312 313 307 308 300 293 295 303 306 306 307 304 305 303 300 297 294 293 290 295 295 297 296 293 298 296 294 294 303 305 307 308 309 308 308 310 310
309 309 309 309 309 310 310 310 310 310 311 311 312 312 312 312 310 313 305 310 310 306 296 290 301 302 304 305 304 302 302 301 301 295 294 295 298 293 290 291 299 301 302 302 298 303 305 307 308 309 309 311 311 311
309 308 308 309 309 309 309 309 310 311 311 312 312 312 311 311 312 307 303 307 309 308 295 290 291 301 303 302 302 301 302 299 296 292 290 291 293 293 289 287 295 298 300 302 303 303 302 305 305 309 310 312 313 313
308 308 309 309 309 309 309 309 310 311 312 311 311 311 311 307 307 308 309 308 309 301 298 290 291 295 301 296 295 299 294 294 292 290 290 290 292 290 285 291 293 295 296 296 298 301 302 306 307 309 311 311 310 310
308 308 309 309 308 308 309 309 310 311 311 311 311 311 314 310 307 308 309 308 309 303 293 292 288 291 300 297 298 296 294 290 294 288 288 288 287 285 286 287 297 300 298 298 298 299 301 302 305 308 308 309 308 308
308 308 308 308 308 308 308 309 311 311 311 310 311 312 308 312 311 310 305 301 300 301 299 294 297 296 296 296 295 295 293 292 288 294 291 286 285 294 299 300 301 302 302 301 297 299 300 304 305 307 307 309 309 309
308 308 308 308 308 309 309 310 310 310 310 314 314 312 314 312 311 307 307 305 307 305 305 305 301 301 302 296 295 298 295 293 290 296 294 287 286 294 301 301 303 304 303 304 305 305 306 306 306 306 307 310 310 313
308 308 308 309 309 309 310 310 310 313 317 311 315 316 316 311 308 304 302 304 303 301 306 304 305 307 307 303 297 301 299 300 291 299 292 285 292 300 300 301 303 303 303 303 303 305 306 307 309 308 310 308 309 309
308 308 308 308 309 310 310 311 311 311 309 321 313 310 309 308 296 297 289 297 300 305 308 308 307 309 312 307 306 306 296 294 301 293 285 290 299 302 302 302 303 304 303 303 302 302 303 303 305 306 306 307 307 305
307 307 307 308 310 310 311 311 312 313 314 312 306 292 302 299 301 301 302 302 306 307 308 308 307 306 307 305 303 297 299 298 290 286 287 295 301 302 304 303 303 303 305 304 302 302 302 301 302 302 304 305 305 302
307 307 308 311 311 311 311 311 312 318 316 308 307 295 301 304 305 305 306 306 308 310 310 307 308 306 303 300 301 298 294 289 291 290 294 300 304 305 304 302 303 303 304 304 305 304 303 302 302 301 302 301 304 304
308 309 318 310 310 310 310 316 320 321 314 310 307 303 305 302 302 304 305 304 309 309 311 308 302 300 297 299 295 292 290 288 293 297 299 302 305 305 304 304 303 303 303 304 305 305 304 304 303 303 302 302 302 301
307 323 311 310 309 310 312 320 320 311 310 307 306 309 306 304 303 304 306 305 310 307 302 304 297 295 300 294 292 297 292 297 300 301 302 305 305 304 305 303 303 304 304 303 306 305 307 305 304 303 302 303 304 304
318 322 313 310 310 318 324 320 315 312 305 309 306 307 308 307 305 305 307 308 307 305 305 300 301 295 293 290 293 297 299 301 304 303 304 306 308 306 304 303 304 304 303 304 304 305 305 304 304 303 304 305 303 302
314 313 310 309 311 315 316 316 318 309 310 310 310 311 310 308 309 309 308 309 309 308 305 302 297 295 295 299 298 299 300 300 298 301 305 307 308 307 305 303 303 302 302 303 302 301 302 305 302 301 301 301 299 299
308 309 310 311 312 321 312 314 321 312 308 309 311 309 309 310 309 308 308 307 306 304 301 299 299 300 300 302 303 301 302 301 300 299 300 300 301 305 303 301 299 302 301 302 301 299 301 301 301 300 300 299 298 297
316 321 316 321 326 322 315 312 314 312 312 309 311 310 308 310 308 306 305 309 304 301 300 302 302 304 307 306 306 304 303 302 300 300 299 298 299 301 301 301 301 299 299 299 300 300 299 299 300 300 300 299 299 298
325 314 324 324 320 317 316 316 312 316 312 311 309 310 307 304 305 306 308 304 304 304 305 304 304 305 305 305 304 305 305 304 305 302 298 300 298 298 299 299 299 298 298 298 299 299 299 299 298 299 299 299 299 298
317 320 324 321 313 308 305 319 312 311 306 307 309 304 304 306 309 312 304 306 305 309 308 307 308 309 307 307 307 307 305 303 300 300 300 300 300 300 300 300 300 298 297 298 300 299 298 296 298 298 299 299 298 298
310 321 316 312 310 303 314 310 312 309 309 307 305 302 305 307 310 305 301 304 305 309 307 309 307 304 305 308 302 302 303 302 300 300 301 299 297 298 299 300 300 300 299 299 299 299 298 298 296 298 298 296 296 297
307 304 308 295 312 308 305 305 305 305 302 304 302 303 305 309 303 302 300 304 306 306 307 307 305 305 302 302 302 301 304 300 298 297 299 299 298 298 298 299 299 300 300 297 297 297 298 298 298 297 297 296 295 296
294 309 301 307 308 306 305 302 304 304 304 301 302 307 308 305 300 297 301 306 307 307 306 306 305 303 303 304 301 300 300 301 300 297 298 298 298 296 295 295 295 296 299 299 298 297 297 297 297 296 296 295 291 296
297 307 312 315 311 310 308 310 310 306 302 302 303 304 303 296 298 304 310 312 309 309 310 311 309 305 304 303 303 302 302 302 301 299 300 300 300 299 297 295 294 295 297 298 298 297 296 296 296 296 296 297 297 296
312 312 307 311 312 312 308 306 304 304 305 308 306 302 300 301 302 308 310 312 311 311 312 309 309 307 305 304 303 302 301 301 301 302 301 300 300 299 299 299 299 292 298 297 296 297 296 296 296 295 295 295 296 296
310 311 313 310 309 311 310 308 308 310 311 309 304 303 304 309 309 311 312 312 312 312 309 306 308 306 306 305 304 303 302 300 297 295 294 294 295 296 299 298 298 298 298 297 290 293 295 295 295 295 296 296 296 297
312 314 312 309 307 307 310 313 312 312 312 311 311 310 311 313 313 313 311 312 312 309 308 308 306 304 303 301 300 300 301 301 299 297 294 294 295 297 298 297 297 297 298 297 297 297 292 294 295 297 296 295 295 295
315 314 310 310 309 310 313 314 314 313 313 312 312 309 310 311 315 314 314 313 311 311 308 305 304 304 302 299 298 297 296 300 300 299 298 298 298 298 297 298 298 298 298 297 296 296 295 295 295 295 294 294 294 293
313 312 310 307 308 312 314 313 311 309 310 310 310 311 312 310 308 311 312 310 307 305 300 303 302 301 302 301 301 300 291 300 300 299 299 297 297 297 297 298 298 297 297 296 296 296 295 294 294 294 294 294 294 294
312 311 311 309 309 309 310 310 308 308 309 308 307 310 309 308 305 309 311 310 307 304 303 303 303 302 302 301 301 301 295 298 293 290 290 290 289 291 295 296 296 296 296 296 296 295 294 294 294 294 294 294 294 294

GFSWCAN_sfc_thetae_033.txt.gz
Theta_e
310 311 311 311 311 311 311 311 311 311 311 311 312 312 312 312 313 311 307 307 300 293 295 298 298 296 296 295 291 295 293 294 293 288 287 287 287 289 289 292 287 290 289 288 292 291 290 304 304 301 306 307 308 309
310 311 310 310 311 311 311 311 310 311 311 311 312 312 312 312 312 312 305 309 307 298 297 302 302 303 301 301 296 297 294 293 295 290 290 290 287 291 289 285 294 288 292 290 293 295 301 305 303 306 307 306 306 306
310 310 310 310 310 310 310 310 311 311 311 311 312 312 313 313 313 312 308 306 304 297 297 297 299 305 307 305 307 295 297 298 297 298 293 291 288 291 286 289 290 294 297 291 294 298 299 302 306 306 307 306 306 306
309 310 310 310 310 310 309 310 311 311 311 311 312 312 313 313 313 312 309 306 303 298 291 295 306 303 308 308 306 305 302 301 300 298 292 292 289 294 289 290 290 292 294 293 292 298 300 302 305 306 306 308 309 308
309 309 310 309 309 310 310 310 310 310 310 311 312 313 313 312 312 312 309 306 308 300 293 294 301 305 306 305 304 305 303 300 297 293 291 289 292 291 292 292 290 295 292 289 288 295 296 298 302 305 305 306 308 309
309 309 309 309 309 310 310 309 310 310 311 312 312 312 312 312 311 311 303 307 309 306 296 290 300 301 303 304 302 302 302 300 298 294 293 294 298 293 287 286 293 295 296 295 293 297 298 299 302 305 306 307 308 309
309 308 309 309 309 309 309 309 310 311 312 312 312 312 312 312 310 305 302 307 309 308 296 291 294 301 302 303 302 300 300 297 295 292 289 290 291 293 288 285 292 294 295 296 297 296 294 298 298 305 306 307 310 310
308 308 308 309 308 309 309 309 310 311 312 312 311 311 309 309 307 307 307 308 309 301 299 293 294 297 301 297 295 299 294 294 292 291 291 289 290 288 284 290 294 298 300 302 301 299 297 298 300 302 305 306 307 307
308 308 309 309 309 309 309 309 310 311 311 311 311 311 311 310 307 307 310 309 309 303 295 295 292 293 301 298 298 296 295 290 294 289 288 288 286 285 289 292 295 297 299 299 300 301 299 297 298 301 303 304 304 304
308 308 309 309 309 309 310 310 310 311 311 311 310 310 308 310 311 310 304 300 300 300 300 295 300 296 299 297 296 295 294 293 289 293 290 286 285 296 298 298 298 299 301 302 300 295 296 297 298 301 302 306 306 306
308 308 308 308 308 309 310 310 311 310 310 310 312 312 311 312 309 306 305 304 306 301 302 301 299 301 303 296 296 299 295 294 288 292 292 287 286 295 300 300 300 300 300 301 303 304 303 305 304 304 305 307 309 309
308 307 307 307 308 309 310 310 311 310 318 310 309 319 313 309 307 304 301 304 304 300 306 303 304 304 304 303 297 299 296 295 289 297 289 285 292 299 300 301 301 301 300 299 301 301 301 301 305 308 307 307 307 306
308 307 307 307 308 309 310 311 312 312 311 319 315 312 307 306 297 296 287 294 300 305 306 305 305 309 307 305 302 302 296 292 300 291 285 290 297 300 300 301 302 303 302 300 299 300 301 301 301 302 303 304 304 302
308 307 307 308 309 310 311 311 313 312 314 313 308 293 301 300 302 301 300 301 305 305 305 309 310 307 308 304 302 297 298 296 289 285 286 294 298 300 301 300 300 300 303 302 300 300 299 299 300 301 301 303 302 301
308 308 308 311 311 311 311 311 313 315 315 311 309 293 302 304 304 304 305 305 306 307 307 306 307 305 302 300 299 295 292 288 290 288 294 297 300 300 300 301 299 299 300 303 302 301 300 300 299 299 300 300 300 300
308 309 316 311 310 310 310 314 314 320 319 312 310 303 304 301 301 303 304 303 307 307 308 307 302 299 296 297 293 290 287 286 292 297 300 301 301 301 301 300 301 301 300 299 303 303 302 300 300 299 300 300 300 300
308 319 311 310 309 310 312 323 325 315 311 310 307 309 306 305 303 304 305 304 310 305 300 302 295 294 300 293 292 296 292 296 299 301 303 303 302 302 302 301 302 302 301 301 301 303 302 303 302 299 298 301 301 300
313 321 313 310 309 316 328 323 317 312 306 310 307 310 309 309 307 307 308 309 307 304 303 298 302 294 293 290 292 297 299 299 299 300 303 305 305 305 303 302 302 302 301 301 302 302 301 300 300 300 299 299 298 299
311 311 310 309 310 311 319 318 321 309 310 312 313 311 312 310 313 313 311 312 314 311 307 304 298 295 295 299 298 298 299 298 297 299 305 306 305 303 303 302 300 300 303 300 301 300 300 299 298 298 297 296 294 294
308 309 310 311 312 320 317 317 326 315 308 313 314 312 313 310 311 312 311 309 308 305 302 298 297 300 300 301 303 301 301 301 299 298 299 300 299 300 305 300 299 300 299 302 299 298 298 297 299 297 297 295 294 293
316 322 317 316 324 319 319 315 313 316 314 312 314 313 312 315 307 308 308 312 305 303 301 302 302 305 309 309 308 306 304 303 300 300 298 297 300 299 301 300 299 298 297 297 298 296 296 294 295 297 297 295 295 296
323 317 324 327 320 320 317 322 314 318 316 313 312 314 310 308 309 309 312 307 304 306 307 305 307 307 307 307 306 307 306 305 305 303 299 300 297 297 298 298 298 296 297 297 297 295 295 295 295 297 296 296 296 295
318 320 323 323 313 305 303 322 314 314 308 310 313 307 307 307 309 313 306 308 308 311 309 310 310 310 308 310 312 309 307 306 302 300 300 299 298 299 298 298 298 297 296 297 299 297 296 296 297 296 296 295 295 296
313 320 316 314 310 301 315 312 315 311 311 308 305 303 306 309 312 306 303 302 307 309 310 312 310 307 309 310 306 304 304 301 299 299 299 297 295 296 298 298 298 297 297 297 297 298 298 296 296 295 295 294 295 296
304 304 306 292 311 310 306 307 308 301 299 301 301 305 307 310 298 300 302 305 307 307 309 310 309 306 303 304 302 301 303 299 297 297 297 298 297 296 296 298 297 296 297 296 295 296 296 297 297 295 295 294 295 295
293 309 302 308 310 307 305 304 305 301 302 301 303 309 310 301 297 298 302 305 307 308 308 307 306 304 304 306 301 300 301 302 301 298 298 298 297 295 294 293 293 293 296 296 296 295 295 296 296 296 295 295 293 294
295 307 314 318 314 312 306 307 308 306 304 301 304 305 304 298 296 297 306 309 307 311 313 311 307 305 304 305 305 303 303 303 302 301 301 300 299 298 297 294 292 294 297 296 295 295 294 295 295 295 295 295 295 294
313 312 308 312 311 312 306 306 304 304 306 309 307 301 300 301 299 305 309 313 313 313 309 308 310 307 306 305 305 304 303 302 302 302 300 300 299 299 299 298 297 294 295 294 295 295 294 295 294 295 295 294 295 295
312 317 311 307 309 310 309 308 307 310 313 310 306 303 305 308 310 311 311 313 313 310 308 307 308 308 306 306 306 304 302 300 297 295 294 293 294 295 297 297 297 298 298 296 292 293 294 294 294 294 295 295 296 296
312 314 310 310 308 307 310 312 312 314 315 313 312 310 309 311 313 316 313 314 310 309 308 308 306 305 301 299 298 299 300 300 298 295 293 293 294 296 297 297 297 297 297 297 296 296 293 293 295 296 295 294 293 294
316 315 312 311 309 312 313 315 314 315 312 308 311 308 309 310 314 316 313 313 311 309 307 303 301 301 299 298 297 295 295 299 299 298 297 297 296 296 296 297 298 298 298 297 296 295 295 294 295 294 294 294 294 293
313 311 311 309 308 313 317 312 311 311 310 310 307 312 310 309 306 312 311 308 306 303 300 301 299 298 300 300 300 299 295 296 296 296 296 295 295 295 295 296 297 297 297 296 296 295 295 294 294 294 294 293 294 293
314 313 313 311 309 311 313 311 309 308 309 309 308 309 308 307 302 307 313 310 306 303 302 301 301 302 303 301 298 296 295 295 292 290 290 290 289 291 294 294 295 295 296 296 295 295 294 293 293 294 293 294 294 293

GFSWCAN_sfc_thetae_036.txt.gz
Theta_e
310 310 310 311 311 311 311 311 310 310 311 311 312 312 313 313 313 310 306 306 300 293 295 298 298 295 295 294 289 293 292 290 288 286 286 285 285 287 287 289 288 288 287 286 291 288 288 303 302 294 299 304 304 307
309 310 310 311 311 311 311 310 310 310 311 311 312 312 313 313 313 311 303 308 307 298 297 302 302 303 301 300 296 295 290 288 293 286 288 288 286 289 287 284 294 286 290 289 290 292 300 305 302 304 304 303 305 305
309 310 310 310 310 310 310 310 310 310 311 311 312 313 313 313 313 311 307 306 303 297 297 296 298 305 306 304 305 294 296 296 291 292 289 290 286 289 284 287 289 292 295 291 290 295 296 302 304 303 303 304 307 307
309 310 310 310 310 309 309 310 310 310 311 311 312 313 313 313 312 312 306 306 303 298 291 294 306 303 307 306 305 304 298 299 296 292 287 286 284 289 286 288 287 290 292 289 288 291 296 300 300 301 301 304 307 308
309 309 309 309 309 309 309 310 310 310 311 312 312 313 312 312 312 310 307 304 304 298 292 293 297 302 305 304 303 303 298 296 293 289 290 288 291 290 287 286 286 293 291 287 286 292 290 293 299 300 300 301 307 306
309 309 309 309 309 308 309 309 310 311 312 312 312 312 313 312 312 309 301 305 305 301 293 289 297 297 299 300 299 298 297 295 297 293 291 293 295 289 285 281 289 295 295 296 293 297 296 296 298 300 299 302 307 306
309 309 309 309 309 309 309 309 310 311 312 312 312 312 311 311 304 300 297 303 307 302 292 289 292 297 298 296 296 295 297 295 294 291 289 289 290 291 288 285 291 295 298 300 302 299 297 298 296 300 302 305 307 307
308 308 309 309 309 309 309 309 310 311 311 311 311 311 309 309 306 302 302 307 305 296 295 290 291 293 300 295 293 297 292 293 292 291 291 289 290 288 284 291 295 296 298 300 301 302 300 300 301 299 300 302 304 306
308 308 308 308 308 308 309 309 310 311 311 311 311 312 307 303 301 300 310 308 303 298 294 294 290 291 297 293 292 293 293 290 294 290 289 288 285 285 291 293 294 296 295 298 301 302 299 299 300 299 298 299 300 301
308 308 308 307 307 307 307 310 311 311 311 311 306 304 302 304 311 309 302 299 299 298 294 293 299 292 296 296 295 294 294 292 288 291 291 286 285 295 298 299 298 298 298 298 296 296 298 298 297 297 299 300 301 303
308 308 308 308 307 307 307 310 310 310 309 303 303 303 304 312 302 303 298 294 295 291 294 294 295 294 299 295 295 296 292 293 286 286 287 286 286 294 298 299 301 300 299 299 299 299 300 302 304 300 302 305 304 304
308 308 307 308 308 308 309 309 310 304 307 305 303 308 305 301 300 296 292 295 293 293 299 300 299 299 298 297 295 296 293 291 283 291 287 285 291 296 297 298 301 302 300 299 299 298 299 299 301 303 302 301 301 302
308 308 308 308 308 309 310 310 311 311 309 307 306 302 299 298 290 291 285 288 292 296 301 301 298 300 298 296 294 296 291 286 292 285 285 288 293 294 296 298 299 303 302 300 299 299 299 298 299 299 299 301 301 300
308 308 308 308 309 310 310 311 312 310 305 305 303 289 293 292 294 293 292 292 297 297 298 300 300 299 300 297 293 290 291 290 285 284 286 291 291 294 295 296 296 299 301 300 299 299 298 298 297 298 299 299 299 298
308 309 309 308 311 311 310 310 312 307 308 305 299 289 292 296 296 296 297 296 298 299 298 297 297 296 293 292 291 289 287 282 282 284 289 292 294 294 294 294 294 295 300 299 300 299 298 298 297 297 298 298 298 298
308 308 311 311 310 310 309 310 308 310 311 305 299 295 296 294 294 295 296 295 298 299 298 297 293 291 292 291 288 285 284 282 290 292 293 296 295 294 294 293 294 296 296 301 300 299 299 299 298 298 299 299 298 297
308 309 311 310 309 309 311 313 316 312 304 304 301 299 297 296 295 296 296 297 299 297 292 293 289 288 292 287 286 289 286 288 291 293 294 295 295 295 295 293 293 294 295 294 299 299 300 301 300 299 297 298 299 299
306 311 311 309 308 309 316 314 312 306 305 301 299 300 299 298 296 297 298 299 297 295 294 292 293 288 286 285 286 289 289 290 290 291 295 296 296 297 295 292 292 293 294 294 297 296 298 297 296 295 295 293 293 294
306 307 308 309 308 305 311 311 310 307 306 303 302 302 300 301 302 301 299 299 301 298 297 294 291 288 288 290 290 290 291 290 289 291 295 295 292 292 296 293 292 293 292 292 294 294 293 292 292 292 292 292 291 293
307 308 309 310 310 311 313 308 312 307 301 302 303 302 305 301 300 300 299 298 297 295 293 291 291 292 292 293 294 293 292 292 292 291 291 293 292 292 294 291 290 290 291 291 291 294 292 291 291 292 291 292 291 291
311 317 313 311 310 309 312 306 303 305 303 301 305 304 303 305 301 299 298 299 295 293 292 294 294 297 297 297 297 296 294 293 293 292 291 291 292 290 292 292 290 290 289 289 289 289 290 288 289 291 291 290 291 292
311 316 314 315 314 315 308 310 303 305 305 305 305 305 301 299 299 300 301 296 295 296 298 296 296 298 298 297 297 297 297 296 294 295 294 293 289 289 289 291 291 291 290 289 289 288 288 288 289 290 290 290 291 292
312 313 315 318 311 299 299 308 304 306 303 301 302 301 299 299 303 304 298 299 298 301 299 298 298 299 297 298 301 298 298 296 291 290 290 289 289 290 290 291 292 291 291 290 290 289 289 292 291 289 292 294 293 292
313 313 311 309 304 296 307 305 310 306 302 301 299 297 299 303 306 300 299 299 300 302 302 301 299 297 298 298 295 295 293 293 292 290 289 289 288 288 291 291 290 291 290 290 291 292 290 290 291 289 290 291 293 292
301 300 301 292 303 304 304 304 299 299 298 299 298 297 301 304 295 295 293 300 303 302 303 301 298 297 295 294 294 293 292 291 290 288 288 289 288 288 289 288 288 288 290 291 290 291 290 291 291 289 289 290 290 290
293 303 298 303 303 302 302 300 300 300 300 299 299 301 301 298 295 292 294 300 302 302 300 299 297 295 295 297 292 291 291 292 291 289 289 289 289 287 286 286 285 286 289 289 289 290 291 292 292 292 291 292 292 291
294 300 305 308 307 306 303 304 305 301 301 299 300 303 301 297 295 296 300 303 303 303 302 300 299 296 296 295 293 293 293 293 291 291 291 290 290 290 289 287 286 287 289 291 290 290 290 291 292 291 290 290 290 291
309 307 303 305 305 309 304 304 302 300 300 306 304 298 299 298 297 301 304 307 306 306 302 300 300 299 298 297 298 296 293 294 295 295 293 293 292 292 290 289 289 291 289 290 291 291 291 291 290 292 292 290 290 291
307 310 306 302 304 306 305 306 304 305 309 304 299 299 301 304 306 305 306 306 305 302 299 300 301 300 297 295 294 295 296 294 292 290 290 288 288 289 291 291 291 290 289 289 291 291 291 291 291 291 292 292 291 291
307 309 304 306 304 304 305 308 307 306 305 305 305 304 305 304 306 310 307 306 303 303 299 297 294 294 291 293 293 292 291 291 290 289 287 286 287 289 292 292 291 290 291 292 292 291 294 293 293 292 291 290 290 289
311 309 306 307 305 307 307 309 308 308 307 306 308 305 304 305 306 309 303 300 298 297 295 292 291 291 291 290 289 289 288 290 290 291 291 291 291 291 292 292 291 292 294 294 291 290 291 291 291 291 291 289 290 289
308 307 306 303 304 307 307 306 305 305 305 304 303 308 307 305 300 302 301 298 295 293 295 293 291 290 292 292 292 291 291 289 290 290 288 288 288 289 288 289 291 293 293 294 293 290 292 292 289 289 289 291 290 289
307 307 307 306 303 304 306 305 304 303 304 303 303 305 305 303 297 299 302 300 296 294 293 293 294 294 292 292 291 290 290 288 289 290 290 290 290 289 287 287 289 290 291 290 290 289 289 289 289 290 290 289 289 288

GFSWCAN_sfc_thetae_039.txt.gz
Theta_e
309 309 310 310 311 311 311 310 310 310 311 311 312 312 313 313 313 309 305 306 300 293 295 298 299 295 295 293 289 290 287 290 288 285 284 284 284 286 286 287 287 286 285 287 291 289 287 301 300 292 295 302 303 305
309 310 310 310 311 311 310 310 310 310 311 311 312 312 313 313 313 310 302 308 307 298 297 303 302 303 301 301 296 295 292 291 290 287 287 287 286 288 286 281 292 286 288 287 289 290 299 304 302 301 301 299 301 305
310 310 310 310 310 310 309 310 310 310 311 311 312 313 313 313 312 310 307 306 303 298 294 296 298 305 307 305 306 294 294 294 292 292 290 289 286 287 283 285 288 292 295 289 289 292 294 300 302 300 300 300 301 305
309 310 310 310 310 309 309 310 310 311 311 312 313 313 313 313 312 311 306 305 302 296 291 292 304 299 307 305 304 303 300 299 293 292 288 288 286 290 287 287 288 291 292 289 289 292 296 299 298 299 300 301 302 302
309 309 309 309 308 309 309 309 310 311 311 312 312 312 312 312 312 308 307 302 300 294 289 290 296 297 302 300 300 301 299 297 294 290 289 288 292 290 289 289 288 292 290 288 287 293 293 294 298 300 299 300 301 301
309 309 309 309 309 309 310 310 310 311 312 312 312 313 312 312 312 308 302 302 301 299 290 287 293 293 295 300 299 297 298 295 295 292 290 292 294 291 286 286 292 296 297 298 294 298 298 299 299 301 300 301 303 303
308 308 309 309 308 309 309 310 310 311 311 312 311 311 311 311 303 301 296 301 305 301 293 290 291 294 296 295 294 294 294 291 293 291 289 289 290 291 287 285 293 296 297 299 301 301 299 300 298 301 302 302 303 304
308 308 309 308 308 308 309 309 310 310 311 311 311 310 310 309 306 301 301 306 302 295 297 294 293 293 294 290 289 292 290 291 292 291 292 289 291 288 285 293 295 296 297 297 299 300 300 301 299 299 301 301 300 304
308 308 308 308 308 307 308 308 310 310 311 311 311 311 307 304 300 300 309 307 301 297 288 292 292 290 296 291 290 290 290 289 292 290 290 290 286 285 290 294 295 296 295 295 298 299 299 299 300 301 301 300 299 299
308 309 308 308 308 307 307 307 309 311 310 310 305 303 300 302 311 308 302 298 299 298 291 291 295 293 295 296 296 295 295 291 288 290 292 287 286 293 293 297 299 298 298 298 295 294 295 298 302 297 298 298 298 299
308 308 308 308 308 308 307 307 309 310 308 301 301 300 302 310 302 303 297 294 295 289 292 292 295 294 299 295 295 295 292 292 283 288 288 286 281 288 295 295 300 301 300 299 298 298 297 297 298 300 301 302 303 303
308 308 308 308 308 308 308 308 309 303 304 304 301 304 301 302 300 293 290 292 291 290 295 296 298 297 297 300 293 296 292 290 282 289 282 282 286 291 293 294 296 298 299 297 297 297 298 297 298 298 298 298 299 300
308 308 308 309 309 309 310 310 310 309 308 304 304 299 297 295 287 289 282 286 289 293 296 299 299 299 299 297 296 295 288 285 289 286 283 286 294 292 292 293 294 298 298 297 297 298 297 297 298 297 296 298 298 297
308 308 308 309 309 310 310 310 311 310 304 303 301 287 291 289 291 290 290 290 294 294 295 293 298 300 299 296 292 288 290 288 284 281 283 288 291 292 293 293 292 293 296 297 296 297 296 295 295 296 297 297 296 295
308 308 308 308 310 311 310 310 311 306 306 302 297 286 291 294 293 294 295 293 295 295 294 295 294 292 290 290 289 287 285 282 285 281 290 292 294 293 292 292 291 292 296 295 296 296 296 297 296 294 296 296 296 295
308 308 309 310 310 309 309 310 308 308 308 305 298 293 294 294 292 294 294 293 295 295 294 293 291 289 288 288 286 284 281 277 284 289 292 296 293 293 292 293 291 291 293 296 296 295 296 296 295 296 297 296 296 296
307 305 310 309 309 308 309 310 312 309 304 300 300 298 295 294 293 294 294 294 295 294 290 290 287 286 289 286 285 287 283 286 291 292 292 292 292 293 294 292 290 291 292 292 296 296 296 298 297 296 296 297 298 298
303 308 309 308 307 307 311 311 309 305 303 300 300 299 297 296 295 296 296 296 294 293 291 290 291 286 284 284 284 287 290 292 290 288 290 293 294 294 294 291 290 292 291 293 292 293 294 294 294 293 291 291 291 295
304 306 307 308 307 303 308 310 307 302 305 300 299 300 299 297 298 297 297 296 296 295 294 291 289 287 287 288 289 289 289 288 288 289 291 291 290 289 290 292 289 290 291 290 288 288 288 290 291 289 289 289 289 291
307 308 309 309 308 307 310 309 308 303 301 299 299 299 300 299 300 298 297 296 294 292 291 290 290 291 291 292 291 291 291 291 290 288 288 290 291 289 290 289 288 288 288 288 288 290 287 288 288 288 289 290 289 289
308 313 311 308 307 307 308 305 300 302 301 299 300 301 300 300 300 300 298 297 293 291 290 292 293 295 295 295 294 292 292 292 291 290 289 289 290 287 288 289 288 287 288 287 287 286 288 286 286 288 288 288 288 290
306 312 311 311 311 312 307 306 301 301 301 301 302 302 299 299 300 301 301 297 295 296 297 296 294 296 296 296 295 294 297 295 291 290 292 290 287 287 287 287 288 287 287 287 287 287 287 286 287 288 288 288 290 290
310 311 312 314 309 298 298 305 302 303 300 300 301 298 298 299 301 305 299 300 300 300 298 297 297 299 298 296 297 297 297 291 289 287 287 286 286 286 286 287 288 289 288 287 287 286 287 289 290 290 290 290 289 289
311 310 308 306 302 296 303 302 305 302 301 298 298 296 297 299 301 297 296 298 301 301 300 300 298 298 294 295 296 293 291 289 288 287 286 287 286 286 286 286 287 287 288 289 289 288 287 287 289 289 290 290 289 289
299 298 298 290 301 301 304 302 298 298 296 298 298 297 299 301 296 294 293 296 299 300 301 299 295 294 291 289 291 290 289 289 288 287 286 287 286 285 285 285 285 285 286 288 289 289 288 288 288 289 289 289 289 288
293 302 296 301 301 300 300 298 298 298 298 299 300 301 303 299 297 292 293 296 299 300 299 297 295 293 292 291 290 289 290 289 288 287 286 286 287 286 284 284 285 286 287 286 288 290 291 291 291 290 290 290 290 289
294 299 301 303 304 303 301 302 302 299 299 298 298 299 298 295 295 297 299 300 300 302 300 299 297 295 294 294 290 293 291 291 290 291 290 289 288 289 290 287 285 286 287 289 289 289 290 290 290 290 289 288 289 289
305 305 301 302 302 303 300 300 300 298 299 302 300 296 298 297 295 298 300 302 304 302 299 297 297 295 294 293 292 295 293 292 294 292 293 291 291 291 290 289 288 290 289 289 290 291 290 289 289 291 290 289 288 289
304 306 304 300 301 303 303 301 302 302 304 301 297 296 301 304 303 302 302 302 301 299 298 295 292 292 293 293 292 290 289 289 290 289 287 286 285 287 288 289 290 289 289 289 291 291 292 290 290 291 291 290 289 288
303 306 302 302 302 301 303 305 304 304 304 305 304 302 303 302 304 305 302 299 292 290 289 291 290 292 290 289 287 288 289 288 287 287 284 285 286 288 291 293 291 291 291 292 290 290 293 292 291 291 290 289 288 288
306 304 303 303 303 303 303 306 306 305 306 304 305 302 301 303 304 300 295 292 291 290 290 288 287 287 288 287 286 285 284 286 287 288 288 286 287 287 288 289 291 293 293 293 291 289 290 289 289 289 288 288 288 287
305 304 303 302 301 303 305 303 301 301 302 301 301 305 304 301 297 297 296 292 290 289 291 289 288 286 287 288 287 287 288 286 286 286 287 286 285 285 286 288 290 292 292 292 290 288 290 288 287 288 288 287 287 286
305 304 304 303 301 303 304 304 302 300 300 300 301 304 303 300 295 296 296 294 291 290 289 288 288 288 288 288 288 287 287 287 288 289 289 289 289 287 285 286 288 289 289 288 288 288 288 288 288 288 287 286 286 286

GFSWCAN_sfc_thetae_042.txt.gz
Theta_e
309 310 310 311 311 311 310 310 310 311 311 312 312 312 313 313 313 308 302 306 301 294 296 297 299 296 296 294 287 292 288 290 289 285 285 283 283 285 285 286 286 285 284 287 288 290 288 301 298 292 295 299 299 301
310 310 310 310 310 310 309 309 310 311 311 312 312 313 313 313 313 308 302 308 307 299 297 301 303 303 301 301 297 294 290 292 292 288 288 287 285 286 286 282 291 284 287 285 287 289 295 302 297 299 300 299 299 299
310 310 310 310 310 309 309 309 310 311 311 312 312 313 313 313 313 309 307 306 303 297 292 292 294 301 307 304 306 294 293 296 295 295 290 289 286 288 283 285 288 290 293 288 290 292 294 299 300 299 300 300 301 302
309 310 310 310 309 309 309 309 310 311 311 312 313 313 313 312 313 311 305 306 302 294 287 291 300 296 302 302 304 303 299 298 296 292 288 289 287 291 287 288 288 290 292 288 289 293 296 299 298 299 300 302 303 303
309 309 309 309 309 309 309 310 310 311 312 312 312 312 312 312 312 307 302 300 299 295 288 289 293 295 298 300 299 299 297 294 291 291 287 288 291 289 290 290 288 293 291 288 288 294 294 295 299 301 300 300 302 302
309 309 309 309 309 308 308 309 310 311 311 312 312 313 312 312 311 307 302 300 303 301 290 287 292 293 295 298 297 295 296 295 294 290 289 290 293 291 287 286 293 295 297 297 294 299 299 301 302 304 301 302 303 303
309 309 309 308 308 308 308 309 310 310 310 312 312 311 311 311 305 300 296 300 304 299 293 293 290 293 294 292 292 292 292 290 292 291 289 289 290 290 287 285 293 295 297 297 299 298 296 299 297 301 302 303 304 304
308 308 309 308 308 308 308 308 309 310 309 311 311 310 310 309 306 300 301 306 301 294 292 293 295 295 296 291 288 290 288 289 291 290 292 290 292 289 285 293 295 296 297 297 297 298 297 300 301 300 300 301 300 301
308 308 309 308 308 308 307 307 309 310 311 311 311 310 305 302 298 299 308 306 300 295 286 291 289 292 296 293 289 289 289 289 291 291 289 290 287 285 290 293 295 296 295 295 297 297 298 299 299 299 300 301 299 299
308 308 308 308 308 307 307 307 307 309 310 310 304 301 298 302 310 308 302 299 299 298 290 291 295 292 295 297 295 293 295 290 287 290 293 285 284 290 293 295 298 299 298 297 294 293 295 296 297 298 298 301 301 300
308 308 308 309 308 308 307 307 307 309 307 300 299 299 302 309 302 303 298 295 294 289 292 293 295 293 298 295 294 296 291 291 284 288 288 282 281 287 292 293 296 300 299 296 296 297 297 297 297 297 297 298 299 299
308 308 308 309 309 308 308 308 308 303 301 302 301 302 300 302 299 291 288 290 289 289 293 293 295 298 295 300 295 295 292 286 280 289 281 282 289 291 291 293 295 297 299 297 296 295 296 297 297 296 296 295 296 296
308 308 308 308 308 309 310 310 309 308 306 303 302 297 296 294 286 286 281 285 287 291 293 295 298 297 299 298 296 294 286 284 288 285 282 286 292 293 292 292 293 297 297 297 296 296 296 295 297 297 295 296 296 296
307 308 308 308 307 309 310 310 310 309 302 301 300 288 290 288 290 289 289 290 293 292 293 291 295 294 295 292 290 286 287 287 282 273 276 287 290 292 292 293 291 293 296 296 296 296 295 295 294 295 295 296 296 295
307 308 308 308 310 310 310 310 310 305 304 300 296 286 290 293 292 293 293 292 293 293 292 293 291 291 289 288 287 285 284 280 284 279 285 290 292 292 293 292 291 290 295 295 296 296 296 296 295 294 295 295 295 296
308 307 308 309 309 309 309 309 307 306 305 303 299 293 294 294 292 292 292 292 293 292 292 291 289 288 287 287 285 285 282 277 283 287 290 291 292 293 293 292 291 290 292 295 295 296 296 295 295 295 296 296 296 296
307 303 309 308 308 308 309 307 308 307 304 299 297 298 296 293 293 293 293 293 293 292 289 288 286 286 288 285 285 286 284 286 288 289 289 290 292 293 293 293 291 291 292 293 296 296 296 298 297 296 295 294 296 297
301 305 308 308 307 306 308 307 308 305 300 301 298 300 295 295 294 294 295 294 293 292 291 290 290 286 285 285 284 287 289 290 289 288 288 291 293 291 292 291 291 292 293 293 294 295 295 295 295 294 290 290 292 296
303 305 307 307 306 301 306 309 307 300 302 299 298 297 296 296 297 297 298 296 296 295 294 292 289 287 288 289 290 290 289 289 288 289 290 291 290 290 290 292 291 291 291 290 289 289 288 290 291 289 289 290 290 290
307 309 309 309 307 305 307 307 306 301 299 299 298 297 297 299 299 299 300 299 295 294 293 291 290 293 293 293 292 291 291 290 290 288 289 290 291 289 288 290 289 289 289 289 288 290 289 289 289 289 290 291 290 290
307 310 309 307 305 306 306 304 300 300 300 298 298 299 298 300 301 298 298 298 295 295 293 294 296 296 297 297 293 292 291 291 290 290 290 290 290 287 287 288 289 289 289 288 288 288 289 288 289 289 290 290 290 291
305 311 309 309 309 309 306 306 301 300 299 299 301 300 298 298 297 297 299 297 295 297 296 297 297 299 300 295 295 295 294 295 290 289 291 289 287 287 287 287 288 288 289 289 289 288 289 289 289 290 291 291 292 292
310 309 310 312 307 297 298 303 299 301 298 298 299 297 296 297 299 302 298 298 298 300 297 298 299 298 296 296 296 299 296 290 287 287 287 287 286 286 287 287 288 290 290 290 289 289 289 290 291 291 291 291 292 292
309 308 306 305 301 296 302 299 302 301 299 296 296 294 297 299 301 297 293 295 298 299 300 301 296 294 294 295 295 295 293 289 287 287 287 287 286 286 286 286 287 288 288 289 289 290 290 292 291 292 292 291 291 290
298 296 296 288 298 299 300 300 298 297 295 296 295 295 297 299 295 293 291 293 296 298 298 298 295 294 292 292 291 290 290 288 289 288 288 288 287 287 286 287 287 287 288 290 289 289 289 291 292 292 292 291 290 290
291 300 295 299 299 298 298 296 297 297 297 297 297 298 298 296 294 292 293 295 297 298 299 298 296 294 293 291 289 290 291 292 291 289 288 289 288 287 286 288 287 288 289 289 290 292 292 292 293 293 292 292 290 292
293 299 299 301 301 301 299 300 300 300 297 297 297 297 297 293 293 295 297 298 298 300 300 298 296 294 293 293 292 293 293 291 291 291 290 289 291 291 293 290 288 288 290 291 291 292 292 292 291 291 291 291 292 292
302 302 300 300 301 302 299 299 298 297 299 302 300 296 297 297 295 297 298 300 302 300 297 294 293 293 291 290 290 291 289 289 290 291 291 290 289 291 291 290 291 290 290 291 291 292 292 293 292 292 292 291 291 291
302 305 304 300 300 300 301 300 300 301 303 300 297 297 298 301 302 301 302 301 299 298 291 290 289 290 289 289 288 287 288 288 289 289 288 287 288 290 291 292 294 292 291 292 291 292 293 293 293 293 292 292 291 292
301 304 302 301 300 299 302 304 303 303 303 302 302 302 301 302 303 302 299 293 292 292 290 289 289 288 287 287 286 287 287 286 288 287 286 287 289 290 292 295 296 294 293 293 292 292 292 292 292 292 291 290 290 290
303 303 302 301 301 302 303 304 304 304 304 303 304 301 299 302 300 295 292 289 289 289 289 288 287 287 287 286 286 285 285 286 287 288 287 287 288 289 291 292 294 294 294 293 292 292 292 291 291 291 290 290 290 290
304 303 303 300 301 303 303 302 301 301 301 301 301 303 302 301 297 296 295 291 290 289 290 289 288 287 288 287 287 287 287 287 287 287 288 288 288 289 291 291 292 293 293 292 292 291 291 291 290 290 289 289 289 289
304 303 303 300 299 300 301 302 300 300 300 300 301 302 301 300 297 294 294 292 291 289 288 288 287 287 288 288 288 288 288 288 289 289 289 289 288 288 288 290 291 291 291 290 290 291 291 290 290 289 289 289 289 289

GFSWCAN_sfc_thetae_045.txt.gz
Theta_e
310 310 310 310 310 310 310 310 310 311 311 312 312 313 313 313 313 311 308 308 302 296 299 300 299 296 296 295 288 293 292 292 291 286 286 286 285 286 286 286 286 284 283 282 284 281 280 297 301 296 299 301 302 303
310 310 310 310 310 310 309 310 310 311 312 312 313 313 313 313 313 309 306 309 308 300 300 305 305 304 302 302 297 296 294 292 293 288 289 288 286 288 287 283 291 285 286 285 286 286 291 298 299 303 303 301 301 301
310 310 310 310 310 310 309 310 310 311 312 313 312 313 313 313 313 310 308 308 306 301 301 301 301 305 309 307 308 295 298 298 297 297 292 290 286 288 284 286 287 290 293 287 288 292 294 298 301 303 302 301 303 304
309 310 310 310 309 309 309 310 310 311 311 312 313 313 313 312 313 311 308 309 306 301 297 299 305 303 306 305 305 306 302 303 301 296 292 291 288 291 288 288 288 290 292 288 290 293 295 298 300 302 303 303 303 304
309 309 310 309 309 309 309 309 310 311 311 312 312 312 312 312 313 311 309 309 308 302 298 300 302 303 305 304 302 302 302 300 298 294 291 289 292 290 292 291 287 293 290 287 287 294 295 296 302 304 302 301 302 302
309 309 309 309 309 308 308 308 310 310 310 311 312 312 313 313 311 309 304 307 309 307 299 297 302 301 303 304 301 299 299 299 298 294 292 294 295 291 288 287 293 296 297 297 294 297 298 299 301 303 302 303 302 303
309 309 309 309 309 308 308 308 309 310 309 311 312 311 311 311 312 306 303 305 307 307 299 299 300 301 301 301 302 301 300 297 297 295 294 293 293 291 289 285 294 297 298 298 298 298 296 300 299 303 302 303 304 304
308 309 309 309 308 308 308 308 308 309 309 311 311 310 311 309 307 306 309 307 306 302 301 298 300 300 302 297 296 298 298 299 297 296 297 292 295 293 287 294 297 298 298 297 298 298 298 301 303 302 304 304 302 302
308 308 308 309 308 308 308 307 308 308 310 311 311 310 310 308 306 307 309 308 306 303 299 296 294 296 301 297 295 299 300 293 297 295 294 295 289 286 292 295 297 297 296 295 297 297 297 297 297 298 299 301 301 302
308 308 308 309 309 308 308 307 307 308 310 310 309 307 306 306 310 310 305 301 301 300 299 294 299 298 301 299 296 295 297 292 289 293 297 287 290 296 297 299 301 299 299 298 294 292 294 294 295 296 296 297 298 299
308 308 308 309 309 309 308 308 307 308 307 308 307 307 308 310 306 305 300 298 301 298 298 297 297 298 304 299 297 298 293 294 286 290 292 287 289 296 298 298 302 302 300 299 299 298 297 297 296 296 296 297 297 297
308 308 308 308 309 308 308 308 308 308 310 308 308 308 308 304 303 298 296 297 298 298 301 302 304 301 303 303 299 298 293 293 285 295 291 287 295 299 299 299 300 301 300 299 299 298 298 298 298 298 297 297 297 298
308 308 308 308 308 307 307 309 309 308 309 310 308 306 303 301 293 293 289 296 296 300 302 303 300 304 302 302 298 297 292 291 295 291 286 292 299 301 301 300 299 302 301 300 299 299 299 298 299 298 297 299 299 297
307 308 308 308 307 308 310 310 310 308 309 308 306 293 297 296 297 298 298 299 302 300 301 299 302 302 303 299 299 293 294 294 288 285 288 297 300 300 302 301 298 298 302 301 300 300 300 300 300 300 299 299 298 297
307 308 308 309 309 309 309 309 310 310 310 306 304 295 298 302 301 302 301 300 302 301 300 300 300 299 298 295 295 293 289 286 289 290 295 300 302 302 302 301 299 297 300 302 302 301 301 301 301 301 302 302 300 299
308 308 310 308 308 308 309 310 311 312 311 308 306 302 302 300 302 302 302 302 303 302 301 300 297 295 293 294 291 289 288 287 292 297 300 300 301 303 303 302 301 299 299 302 304 303 303 302 302 303 304 303 302 300
307 308 308 308 307 308 309 312 313 311 309 306 305 305 304 303 302 304 303 304 302 301 298 297 293 292 295 292 290 293 291 295 298 299 300 300 302 303 302 302 302 300 301 301 303 305 304 305 305 303 298 300 300 302
305 308 307 307 307 308 312 312 313 311 306 308 304 308 304 305 304 304 304 304 302 300 298 296 298 293 291 289 290 295 297 299 299 298 299 301 301 301 299 299 301 301 302 302 302 300 300 301 300 297 298 298 298 300
306 307 307 308 307 308 311 313 315 307 308 310 307 306 306 306 306 306 306 304 302 302 301 299 294 293 292 295 295 298 299 299 298 300 300 301 300 300 298 300 300 300 301 300 300 298 298 299 297 298 298 299 297 297
308 309 310 309 309 311 311 314 314 309 307 309 307 307 306 309 308 307 306 303 301 300 299 296 295 299 299 300 302 301 302 301 300 297 298 300 300 298 297 298 299 299 299 298 298 295 298 298 298 298 298 297 297 297
309 313 310 311 311 312 313 312 310 309 309 307 307 308 308 310 307 306 306 306 302 300 299 300 302 303 305 306 305 302 301 300 299 300 298 296 298 297 297 298 298 298 297 297 297 297 296 297 297 298 298 298 299 299
313 311 315 313 314 315 314 316 310 310 308 307 309 308 306 306 306 305 306 304 302 301 300 303 304 305 305 305 304 302 303 302 301 299 295 296 296 296 296 296 297 297 297 297 298 297 297 297 298 299 298 298 298 298
311 313 316 316 313 304 304 311 306 309 306 306 307 304 305 306 307 309 304 305 306 308 305 303 305 305 304 304 304 304 304 301 299 298 296 296 295 296 296 296 297 297 297 297 298 298 297 293 295 298 298 299 298 298
310 314 312 311 309 303 310 306 310 308 306 304 303 300 303 306 308 303 300 304 307 308 305 306 305 304 305 305 305 305 304 299 296 296 297 294 294 293 294 294 295 296 296 298 298 297 298 298 295 297 298 296 296 296
300 301 302 291 304 304 303 305 304 304 301 302 301 301 305 307 302 300 299 303 305 307 309 309 306 305 302 302 302 300 298 298 297 298 297 296 294 294 295 296 295 294 295 297 296 296 297 298 297 296 296 296 296 295
290 304 299 304 305 304 304 301 302 302 303 302 303 306 307 303 298 296 302 305 306 308 309 307 305 304 303 303 300 299 298 298 299 300 296 296 295 296 296 294 293 293 296 297 297 297 297 297 297 296 295 294 292 295
294 304 308 309 307 308 307 307 307 305 302 302 304 302 303 297 297 303 307 307 308 310 310 307 304 303 301 300 302 301 299 299 298 298 296 296 298 298 296 293 293 294 297 297 298 298 296 296 296 296 295 296 296 296
307 308 305 308 307 310 306 305 303 303 305 308 306 300 299 300 300 306 308 309 309 306 299 298 299 297 296 296 296 297 296 296 296 296 296 296 296 296 297 296 296 291 296 296 297 298 298 297 297 296 296 295 296 297
307 312 311 307 307 307 308 307 307 309 311 308 304 303 304 308 309 309 309 309 307 299 297 296 295 296 296 296 295 295 296 296 295 293 293 293 294 294 299 299 298 297 298 298 292 295 298 297 297 297 297 297 297 297
307 311 309 307 305 305 310 312 311 311 311 309 309 309 308 308 306 305 307 303 303 299 298 297 297 297 295 294 293 293 294 295 295 295 293 293 294 297 299 298 298 298 299 298 297 296 292 296 295 297 296 296 296 295
310 309 308 308 308 310 311 311 311 311 310 310 310 308 305 305 302 300 299 298 298 297 297 295 295 296 295 294 294 293 291 293 295 295 295 296 296 297 298 299 300 300 300 299 298 297 297 296 296 295 294 294 294 294
309 309 308 307 308 310 310 309 308 307 308 307 307 308 306 306 301 300 298 297 297 297 294 296 295 293 294 294 294 293 291 294 294 295 297 297 297 298 298 299 299 299 298 297 297 297 296 295 295 294 294 293 293 293
311 310 310 307 306 305 307 307 305 304 305 305 306 307 306 305 301 299 298 299 299 298 297 296 295 295 295 294 294 293 293 294 291 288 289 288 288 292 297 298 297 297 296 296 296 296 295 294 294 294 293 293 293 293

GFSWCAN_sfc_thetae_048.txt.gz
Theta_e
311 310 311 311 311 310 310 310 311 311 312 312 313 313 313 313 313 312 311 313 307 302 303 304 303 300 297 297 291 295 297 296 292 288 288 288 286 288 285 288 287 286 284 284 285 282 279 295 292 290 302 304 303 304
310 310 310 311 310 310 310 310 311 311 312 313 313 314 313 313 313 311 308 313 312 302 305 309 308 309 306 305 299 300 297 296 294 289 290 289 287 290 288 285 289 284 288 286 286 288 295 293 293 302 303 302 302 304
310 310 310 311 310 310 309 310 311 311 311 313 313 314 313 313 313 312 312 311 309 306 307 307 305 309 311 309 310 299 301 303 299 300 293 290 286 289 286 288 287 289 291 287 286 291 290 296 299 303 304 302 304 306
310 310 310 310 309 309 309 310 310 310 311 312 313 313 313 313 314 313 312 314 310 307 302 303 310 307 310 310 308 307 305 305 304 300 295 292 289 293 289 289 287 289 291 288 288 289 293 298 298 302 303 304 304 305
309 309 310 310 309 309 309 309 310 310 310 311 313 312 313 313 313 315 317 317 316 306 302 304 307 309 309 310 307 307 306 304 303 299 296 291 292 290 293 293 289 293 290 287 287 292 293 293 300 303 302 301 303 304
309 309 309 310 309 309 308 308 309 310 310 311 312 312 313 313 312 313 307 314 316 314 305 300 307 307 307 309 308 306 306 305 304 301 298 299 298 293 290 288 295 297 297 296 292 297 299 301 301 303 302 303 304 305
309 309 309 310 309 309 308 308 308 309 309 310 312 311 311 312 315 309 308 311 310 314 306 303 305 307 305 305 306 308 309 306 303 303 299 299 298 298 293 287 297 299 298 298 298 297 295 298 296 300 304 304 305 305
308 309 309 309 309 309 309 308 308 309 310 309 311 310 311 311 309 310 314 308 311 309 308 301 306 306 308 304 300 304 306 307 303 302 302 297 300 298 290 296 300 300 299 298 298 298 298 299 299 299 301 302 303 303
308 309 309 309 309 309 308 308 308 308 309 310 311 311 313 311 309 310 311 309 311 306 303 301 300 300 308 307 304 304 306 302 305 301 300 300 294 287 295 297 299 300 298 297 298 298 298 297 296 296 298 297 297 298
308 308 309 309 309 309 309 308 307 308 309 310 312 312 309 311 311 311 308 306 305 306 304 300 305 302 307 304 303 301 301 297 294 300 303 293 291 298 300 301 303 302 301 299 296 295 295 296 296 296 296 298 298 298
308 308 309 309 309 309 308 308 307 308 309 314 313 314 314 311 309 306 306 305 307 304 307 306 304 304 310 300 299 301 297 299 289 297 297 292 290 299 301 301 304 305 303 301 301 300 299 298 297 297 298 299 298 299
308 308 308 309 309 308 307 308 308 312 318 313 314 315 315 308 308 304 304 305 303 300 306 304 306 307 307 309 301 301 296 298 290 303 297 288 298 302 302 301 302 303 303 302 302 301 301 300 300 300 300 299 298 299
308 308 308 308 308 308 307 308 309 309 310 317 314 312 310 309 297 297 293 299 299 304 305 305 303 307 305 305 300 299 295 295 302 296 288 295 301 302 302 302 301 304 305 303 302 302 303 302 303 302 301 301 302 299
308 308 308 309 308 308 309 310 310 309 313 313 311 295 303 301 303 304 303 303 305 306 305 305 308 303 304 303 304 295 299 299 293 289 288 296 302 304 303 303 302 301 302 303 303 303 303 303 303 304 303 303 302 301
308 308 308 310 309 309 308 309 310 313 316 311 311 297 303 308 308 309 309 307 308 309 306 305 305 306 301 299 300 297 293 290 293 293 296 301 304 305 305 303 302 302 302 303 304 303 303 303 303 303 304 303 303 302
308 307 315 308 308 309 309 310 313 318 317 313 311 307 309 307 306 308 309 308 312 310 309 306 299 298 296 299 294 292 289 288 293 300 301 303 304 305 305 304 304 302 303 303 304 303 303 303 301 302 302 302 303 303
307 316 308 308 308 310 310 318 318 314 314 310 308 313 311 310 308 309 310 309 312 306 300 300 296 294 298 292 290 292 292 296 299 301 302 305 305 304 304 304 305 304 303 303 303 303 303 303 303 301 300 302 302 303
312 314 308 308 309 312 319 317 318 315 310 311 308 310 313 313 310 309 311 311 309 306 306 298 301 293 289 288 290 298 300 303 303 302 305 306 307 306 305 304 305 305 305 304 303 303 302 302 300 299 301 301 301 302
309 310 308 308 309 316 316 317 319 310 310 312 313 315 314 314 314 317 315 314 311 310 307 302 295 293 294 299 300 302 302 302 301 304 305 307 307 305 304 304 305 304 304 305 304 300 301 302 300 300 300 300 299 300
307 309 310 310 310 317 313 318 323 315 310 313 315 314 314 314 316 315 313 312 311 309 304 301 298 300 304 306 307 307 305 307 302 299 301 302 303 303 303 302 302 305 304 303 302 293 301 301 301 300 300 300 299 299
310 316 310 315 319 318 318 317 314 316 313 312 315 314 314 318 314 312 310 312 309 305 304 308 308 310 310 309 310 312 307 307 303 303 301 299 300 301 301 303 303 303 302 300 300 299 297 298 300 302 301 300 301 302
322 312 323 318 320 321 319 324 317 319 314 314 314 315 313 312 312 311 313 309 307 308 308 308 307 308 308 308 308 311 309 309 309 304 295 298 299 298 299 301 302 300 302 301 301 299 300 301 301 302 301 300 300 300
313 317 322 321 317 311 308 319 311 313 309 312 313 309 311 313 313 315 309 309 309 312 312 310 311 312 311 311 312 311 310 309 305 303 300 300 299 299 301 300 300 299 298 300 303 303 299 296 298 300 301 300 299 298
308 318 314 315 315 307 316 312 315 314 314 310 309 305 308 311 314 309 304 307 309 313 312 312 312 307 308 309 305 307 309 308 303 301 301 301 298 299 301 299 299 298 298 299 300 300 299 300 297 299 299 298 298 297
304 305 306 294 312 309 306 307 309 310 305 308 305 306 310 314 307 304 303 307 308 309 310 312 311 309 305 305 304 305 308 306 301 301 303 303 300 298 297 298 301 300 301 298 299 298 299 299 299 300 298 297 297 297
293 307 301 306 309 308 309 304 305 306 308 306 307 312 313 309 302 299 306 308 308 310 312 310 307 304 305 305 303 302 303 306 303 304 301 301 300 298 298 296 295 297 301 300 298 297 298 299 298 298 298 296 293 296
297 306 313 317 313 314 312 314 314 310 306 305 310 307 307 299 299 305 311 312 311 313 313 310 307 304 301 300 301 302 302 303 303 301 302 303 302 301 299 296 295 297 300 300 300 299 298 297 298 297 297 297 297 297
309 312 307 311 310 313 309 310 308 307 309 314 312 303 300 301 303 310 310 313 313 308 306 304 303 302 301 300 300 300 301 301 301 302 301 301 301 300 300 300 300 292 299 300 300 299 299 298 298 297 297 297 296 298
309 315 313 310 311 311 312 311 311 315 318 314 309 307 307 311 312 310 311 311 308 305 303 301 301 302 301 301 300 301 301 301 299 295 295 295 295 296 299 299 299 300 300 299 291 295 299 298 298 297 298 297 297 298
309 314 311 309 308 308 314 317 318 319 319 317 315 312 311 309 309 311 310 309 305 303 303 302 303 301 299 298 297 297 299 299 299 297 297 295 296 298 298 299 299 300 301 299 298 299 292 297 295 298 297 297 297 297
317 314 310 311 310 316 318 321 320 319 317 315 316 313 309 305 304 303 306 307 304 303 302 301 300 301 299 298 297 296 294 298 298 298 299 300 300 300 300 300 301 301 301 299 298 297 297 298 297 296 296 295 295 295
314 312 311 309 313 318 317 316 316 314 315 314 312 313 308 306 301 300 302 303 302 301 297 301 299 298 299 298 297 297 294 298 299 300 300 300 300 301 301 301 301 301 301 300 299 298 297 296 296 295 295 294 294 294
315 315 314 313 312 310 314 313 309 308 308 308 309 310 310 308 304 303 304 305 305 302 302 301 301 300 299 298 297 296 295 297 293 289 290 289 289 293 300 300 301 301 300 300 298 297 296 296 295 295 295 294 294 294

GFSWCAN_sfc_thetae_051.txt.gz
Theta_e
311 311 311 312 311 311 311 311 312 312 312 313 313 313 314 314 313 313 315 319 310 308 308 307 306 301 302 301 295 301 299 299 294 290 289 289 288 290 286 288 289 289 288 287 288 285 282 299 298 290 298 298 296 306
311 311 311 311 311 310 310 311 311 312 312 313 313 314 313 314 314 312 310 318 317 306 309 313 312 311 308 307 305 303 299 297 296 291 291 290 288 290 288 285 291 287 292 289 291 291 299 299 297 299 297 297 298 309
311 310 311 311 310 310 310 310 311 312 311 312 313 313 313 313 314 312 314 315 311 309 308 309 307 312 314 312 313 303 304 304 301 305 295 291 287 291 286 288 289 291 293 287 287 293 295 296 296 298 299 300 305 306
310 310 311 311 310 310 310 310 310 311 311 312 313 313 313 314 314 313 312 318 314 311 304 305 314 311 313 314 311 311 308 308 307 305 299 293 290 294 289 290 288 290 291 289 288 291 291 295 298 298 301 305 305 306
309 310 310 310 310 310 309 309 310 311 311 312 313 313 314 313 314 315 316 317 320 311 305 307 313 314 314 313 311 311 309 305 304 300 298 295 295 292 292 292 288 293 290 286 286 291 293 293 297 302 302 302 305 307
309 309 310 310 310 310 309 309 309 310 310 311 312 313 313 313 311 314 309 318 321 317 307 303 314 312 313 313 309 310 308 307 304 300 299 301 302 297 293 288 295 297 297 297 291 296 295 297 297 301 303 304 305 305
309 309 310 310 310 310 309 309 309 309 310 310 312 312 312 313 315 311 309 312 312 317 306 303 308 314 314 312 312 307 309 307 305 304 301 300 300 300 296 289 297 298 299 299 299 298 294 296 294 299 300 302 305 306
309 309 309 310 310 310 310 309 309 309 310 310 311 312 312 312 312 312 316 310 311 310 311 303 305 311 314 310 305 308 307 305 305 304 303 299 301 299 293 296 299 300 300 298 298 300 298 298 298 298 300 300 299 300
308 309 309 310 310 310 310 309 308 309 309 310 311 311 315 313 311 314 312 310 317 310 304 304 304 300 315 308 310 307 306 301 308 301 301 301 298 289 296 297 298 299 300 299 299 299 298 298 298 298 298 298 296 298
308 309 309 309 310 310 310 309 309 308 309 311 313 314 312 315 313 313 310 306 305 308 310 306 311 305 309 309 305 304 308 301 299 302 303 299 291 300 301 302 303 302 301 301 299 297 298 296 297 298 297 298 298 298
308 308 309 309 310 310 309 309 309 308 309 316 317 315 318 311 314 310 310 308 309 306 310 310 309 306 313 306 301 306 301 301 292 300 300 298 293 300 303 303 304 303 303 303 302 302 301 300 298 298 299 299 299 299
308 309 309 309 309 309 309 308 309 312 321 315 316 318 320 312 312 307 306 306 305 302 307 306 308 310 312 314 305 305 298 301 293 305 297 290 299 303 303 303 304 304 304 303 303 301 302 301 302 302 300 300 299 300
308 309 309 309 309 309 308 308 308 309 311 321 317 314 314 312 299 300 296 302 301 306 307 307 304 311 309 309 302 302 296 295 304 298 291 296 304 304 304 304 304 305 304 304 304 303 303 302 303 302 301 303 301 301
308 308 308 309 309 309 308 308 309 311 315 316 313 298 306 303 304 304 304 304 308 307 307 307 305 307 311 305 303 297 299 300 293 291 290 301 305 304 305 305 305 303 304 303 305 304 303 303 302 303 302 302 301 300
308 308 309 310 309 310 309 310 310 316 319 313 312 299 305 308 309 310 310 310 311 312 309 306 306 309 303 301 299 297 294 292 294 292 298 303 306 306 305 304 304 304 304 303 303 302 303 303 302 302 304 304 302 302
308 307 314 309 309 310 309 311 313 322 320 315 313 308 309 307 308 309 310 309 314 311 310 308 305 299 295 295 291 288 290 289 295 301 302 306 307 306 305 305 304 305 304 304 304 304 303 303 302 302 303 304 303 303
306 319 309 308 308 310 310 319 322 317 315 312 310 312 310 311 308 311 313 313 316 310 305 307 297 292 301 294 290 295 294 299 301 302 304 307 306 306 306 305 304 305 304 304 304 304 303 304 304 303 301 303 303 305
315 317 309 309 310 314 321 319 320 316 311 314 309 311 312 313 312 313 315 315 312 309 309 303 304 299 297 293 297 302 304 305 305 304 304 308 308 308 307 305 305 306 305 305 305 304 305 303 302 301 303 304 303 303
311 311 309 308 311 319 318 320 320 311 312 314 315 314 314 316 320 321 317 316 314 315 310 307 301 302 302 304 302 304 305 304 303 305 304 309 309 307 306 306 305 305 305 306 305 302 302 304 302 302 302 302 301 301
308 308 310 310 310 320 314 317 325 315 312 314 316 313 315 315 318 319 315 313 313 308 306 304 303 305 306 308 310 308 307 308 305 304 304 303 305 305 305 303 302 305 304 305 304 295 303 302 303 302 301 301 301 301
307 318 311 316 319 321 318 316 316 317 315 313 317 316 314 316 313 312 311 315 309 305 304 308 308 311 310 312 310 309 308 308 305 307 304 301 303 303 302 302 303 302 301 302 303 301 298 301 302 301 301 301 302 302
324 312 326 321 321 321 319 321 318 320 317 315 316 316 313 310 311 312 313 307 306 307 308 307 308 309 308 309 309 311 311 311 311 306 296 298 300 302 302 303 303 300 302 303 303 300 302 302 302 302 303 301 300 300
312 319 324 322 317 313 309 323 314 316 311 312 315 309 311 312 313 317 308 307 308 311 312 311 313 314 313 312 313 310 312 310 307 305 304 303 302 303 302 301 302 300 301 300 301 302 301 295 298 302 303 303 301 302
310 320 314 315 316 308 318 314 317 315 316 312 310 306 309 311 315 308 303 307 308 310 310 313 311 310 309 311 306 306 308 306 307 305 305 302 300 300 303 301 301 301 301 301 302 300 302 302 298 302 301 302 301 300
306 305 308 296 315 311 309 309 310 311 308 309 307 306 311 316 308 304 302 306 308 308 309 310 308 311 307 305 305 305 309 304 304 304 306 303 301 301 301 300 301 301 303 300 300 300 300 302 302 301 301 300 299 299
297 309 301 308 309 309 308 304 306 307 309 307 309 314 316 310 302 300 304 308 309 309 310 309 307 305 303 303 301 301 302 305 305 302 301 303 300 301 300 300 297 298 300 300 302 299 300 299 300 299 298 297 294 298
299 307 313 317 315 315 312 314 315 311 307 307 310 310 308 301 301 308 312 313 311 311 311 308 305 303 301 301 302 303 304 304 304 303 304 303 302 301 301 298 297 299 300 301 301 301 300 299 299 299 298 299 299 299
309 312 308 313 312 314 310 311 309 308 309 315 314 305 304 304 305 311 311 314 311 309 307 306 305 304 302 302 303 302 302 303 304 303 302 302 301 301 301 301 301 294 300 301 301 301 302 300 299 299 299 298 299 299
309 313 313 311 312 312 313 311 310 313 318 315 309 308 309 313 313 312 312 312 310 308 306 304 304 305 303 303 303 302 303 303 301 299 297 295 297 298 301 301 303 302 300 300 291 296 300 299 300 300 299 300 300 301
309 314 312 311 309 309 313 316 315 320 321 319 319 316 314 312 313 314 311 310 308 308 306 305 304 303 302 301 299 299 300 301 301 300 299 297 297 300 300 300 301 300 300 299 299 299 293 299 297 301 300 298 299 298
318 315 312 311 310 312 318 322 323 324 323 319 318 316 311 309 308 311 309 313 309 308 306 304 302 303 301 299 299 298 297 300 300 301 302 302 301 301 301 303 303 303 301 300 301 300 299 300 299 299 298 297 297 296
315 313 312 310 310 319 322 320 320 318 317 314 312 313 311 306 305 306 308 309 307 306 299 304 302 300 300 300 300 300 297 302 302 302 301 302 302 302 303 302 302 302 302 301 300 300 299 298 298 296 297 296 296 296
315 315 315 313 311 313 317 316 313 312 312 311 310 310 311 309 306 307 309 310 309 307 305 304 303 302 302 300 300 299 298 300 294 290 291 290 288 293 300 303 302 303 301 301 299 299 298 297 297 296 296 295 296 296

GFSWCAN_sfc_thetae_054.txt.gz
Theta_e
313 312 312 312 311 311 311 311 312 312 313 313 314 314 314 315 314 314 316 319 313 309 308 309 308 305 305 303 297 301 301 300 297 291 289 288 287 289 287 289 289 287 288 288 289 286 283 301 300 293 299 302 302 302
312 312 311 311 311 311 311 310 311 312 312 313 314 314 314 314 314 313 314 319 318 310 310 315 313 312 310 308 305 304 301 301 300 295 294 291 288 291 289 285 293 287 289 286 288 290 298 300 299 302 302 300 301 301
312 311 311 311 311 311 310 310 311 312 312 312 314 314 314 314 314 313 316 318 315 311 310 310 309 313 315 313 313 302 303 305 302 305 298 293 288 292 287 288 289 292 293 288 288 294 295 297 297 298 299 299 299 301
311 310 311 311 311 310 310 310 310 311 312 312 313 314 314 314 315 314 315 318 315 311 304 307 315 313 315 314 312 311 307 308 309 306 299 295 291 296 290 291 288 291 292 288 288 291 292 295 296 297 298 300 300 303
310 310 310 310 311 310 310 310 310 310 311 312 313 314 314 315 315 315 317 318 319 310 305 307 311 314 315 314 311 312 308 308 306 303 300 297 299 295 295 293 287 293 291 287 286 292 290 291 296 296 296 300 303 305
310 309 310 310 311 310 310 310 310 310 310 312 313 314 314 314 313 315 310 318 318 317 307 303 313 313 313 314 312 311 310 308 305 303 300 302 302 299 295 291 296 298 298 296 292 297 296 295 297 297 298 301 304 305
309 309 310 310 311 310 310 310 309 309 310 311 312 313 313 314 314 311 311 315 312 317 307 303 307 314 315 313 311 311 311 308 307 303 301 300 300 299 297 291 298 298 299 299 299 297 293 295 293 297 297 298 302 303
309 309 309 310 310 310 310 310 310 309 310 311 311 313 314 313 311 312 318 311 313 312 311 304 304 310 316 310 308 312 305 308 306 303 303 300 301 300 294 298 300 300 299 298 299 300 298 299 299 297 298 297 297 298
309 309 309 310 310 310 310 310 309 309 309 310 311 312 314 312 313 316 314 312 316 311 306 306 303 299 314 308 310 307 307 301 308 301 302 302 299 288 297 299 300 299 298 299 300 300 299 297 298 297 296 296 295 296
309 309 309 309 310 310 310 310 310 309 309 310 313 313 311 317 314 314 313 308 307 309 309 306 310 305 309 310 307 305 304 300 299 302 305 300 292 302 303 303 304 302 302 301 298 296 297 297 297 298 297 297 297 297
308 308 309 309 310 310 310 310 310 309 308 315 316 315 319 313 316 313 309 309 311 307 310 310 310 307 312 305 305 308 302 303 293 299 300 297 294 302 304 303 304 304 304 302 302 301 301 300 299 299 298 299 299 297
308 309 309 309 309 310 309 309 309 311 320 314 313 316 321 315 313 308 307 307 305 304 309 306 308 309 310 313 304 306 300 301 293 303 298 290 300 303 304 302 305 305 304 303 303 302 302 302 302 301 300 300 300 300
308 308 309 309 309 310 309 308 308 310 311 321 317 315 312 312 298 301 296 300 302 306 307 306 304 314 312 312 304 302 297 294 303 295 292 296 304 304 305 305 304 305 304 305 305 304 304 303 304 302 301 302 302 300
308 308 308 309 310 311 309 308 309 310 312 316 311 297 306 304 305 304 304 306 311 309 310 307 305 308 311 300 300 295 299 301 293 290 290 301 305 305 307 306 305 304 306 304 305 305 304 302 303 304 304 303 302 301
308 308 309 310 312 311 310 310 309 315 317 313 312 298 306 309 311 311 313 312 314 315 311 308 307 308 303 300 300 297 293 291 294 294 300 305 308 307 306 305 305 304 304 304 305 303 304 303 303 303 304 304 304 303
308 308 313 310 310 310 310 310 313 320 319 314 312 308 311 310 308 311 311 311 314 312 313 310 305 301 297 299 294 292 291 290 296 303 303 306 306 306 307 305 305 305 305 304 305 305 303 303 303 303 304 304 304 305
307 315 310 309 309 311 310 317 322 318 314 312 310 314 311 312 311 312 313 313 315 309 305 305 299 297 303 296 293 298 295 300 302 302 305 309 307 307 307 306 305 305 305 306 304 304 305 305 305 303 302 304 305 306
314 314 310 309 310 315 320 317 319 315 311 313 311 313 315 316 313 312 314 314 312 308 307 303 307 299 296 293 296 302 303 304 305 306 306 308 310 309 307 306 306 306 305 306 306 305 305 304 302 301 305 305 304 305
310 310 309 309 309 314 318 319 319 310 312 315 316 317 316 317 315 318 316 315 315 314 310 306 301 299 300 303 303 305 305 304 304 306 306 308 310 308 307 307 306 306 306 307 306 303 303 305 303 302 301 302 301 301
307 308 308 309 309 318 315 315 324 315 311 316 317 315 315 316 318 314 314 314 313 310 305 303 303 305 306 307 308 306 306 307 307 303 304 305 307 306 305 305 303 305 303 304 306 299 303 303 302 302 301 302 301 300
312 318 312 315 316 319 318 316 316 317 316 313 316 315 315 318 315 312 310 314 308 305 304 306 306 308 311 312 310 308 309 308 305 305 304 303 304 304 304 303 304 304 303 304 303 303 302 302 302 303 302 301 302 302
324 314 324 320 319 320 317 318 316 318 316 315 311 315 308 311 311 311 313 309 307 307 308 308 308 309 310 311 309 312 312 311 311 308 303 303 301 302 301 301 302 301 301 301 303 300 301 302 301 303 302 302 302 301
312 319 323 321 315 311 308 320 315 315 311 312 315 310 311 312 314 316 305 309 309 312 311 311 311 314 312 313 312 312 311 310 307 306 305 304 304 303 302 301 301 300 300 301 302 302 300 300 299 302 303 302 302 301
311 318 316 313 314 307 317 313 315 313 313 312 310 306 309 312 315 308 304 306 308 312 313 314 312 311 310 312 309 308 308 306 306 305 306 303 301 300 301 301 301 301 301 302 302 301 301 302 299 301 302 301 300 300
305 305 308 295 314 312 309 309 310 310 307 310 309 307 309 313 306 305 304 307 309 310 309 309 308 307 306 304 303 304 307 304 303 302 304 303 302 302 300 301 301 301 301 301 300 301 300 300 300 301 300 299 299 300
296 309 301 308 308 309 309 307 307 306 307 309 308 311 314 310 304 301 306 308 310 309 307 306 304 302 302 302 301 301 302 305 305 302 302 302 301 300 299 298 297 297 302 303 302 299 300 300 300 299 299 299 297 299
298 305 312 315 313 314 311 313 311 310 309 307 307 309 309 303 302 306 309 312 313 308 307 306 304 302 301 301 303 304 304 304 304 301 302 302 301 302 301 298 296 298 302 302 302 301 299 299 299 300 299 299 300 300
309 311 308 312 312 313 309 309 308 308 305 309 308 307 304 304 305 310 310 313 311 309 306 305 305 304 303 303 303 303 303 304 304 304 303 302 302 301 301 300 300 295 301 302 303 302 302 301 300 299 299 298 299 300
309 312 312 309 312 311 311 310 309 308 310 306 307 309 307 313 313 311 311 311 311 309 307 304 305 305 304 303 303 302 302 303 303 300 297 296 297 298 301 302 302 301 301 300 291 295 298 299 300 299 300 299 299 300
308 312 311 311 309 308 312 314 313 313 311 318 318 314 312 310 312 314 312 312 310 308 307 304 304 304 302 302 300 300 301 302 302 302 298 297 298 300 301 301 301 301 301 300 299 300 295 298 297 301 300 299 299 298
313 313 311 311 310 312 315 314 314 320 320 318 318 313 311 309 312 312 313 313 311 310 307 304 303 302 301 300 301 299 298 301 303 303 302 302 302 302 301 302 302 302 301 301 301 300 300 299 299 299 298 298 297 296
313 311 311 309 312 318 318 312 313 316 317 315 315 315 311 309 305 308 311 312 309 307 301 304 302 300 301 301 302 302 299 302 302 302 303 303 302 303 303 302 302 302 301 301 300 300 300 298 298 298 297 296 296 296
313 313 311 309 311 309 312 311 313 313 312 311 312 313 312 313 307 308 313 312 309 308 306 304 303 303 303 302 302 301 300 300 294 290 291 290 290 294 302 303 302 302 301 301 300 299 298 298 297 297 297 297 297 297

GFSWCAN_sfc_thetae_057.txt.gz
Theta_e
314 313 312 312 312 312 311 311 311 312 313 313 315 315 316 316 316 312 316 319 312 307 307 309 307 304 303 301 296 300 299 298 295 289 287 286 285 287 286 287 286 285 284 285 286 284 280 295 295 289 293 295 296 297
313 313 312 311 311 311 311 311 310 312 312 313 314 315 316 315 315 313 313 320 318 309 308 313 314 313 311 308 303 302 299 298 296 293 292 291 287 289 287 282 291 283 289 285 285 286 294 296 294 296 296 294 294 296
313 312 311 311 311 311 311 311 310 311 312 313 313 314 316 316 315 313 311 315 315 310 309 310 308 313 313 311 310 300 302 303 300 302 296 293 286 291 284 287 288 292 293 287 286 292 292 294 295 297 296 296 296 296
312 312 311 311 311 311 311 311 310 311 311 312 313 314 315 315 315 314 311 315 315 310 303 308 315 311 315 312 311 311 306 307 306 302 297 293 289 294 288 290 288 291 292 289 288 291 293 294 294 295 295 295 297 299
312 311 310 310 311 311 311 310 310 310 310 311 312 313 315 315 315 313 313 316 318 310 302 304 311 313 314 312 310 309 308 306 303 299 297 294 295 293 293 292 289 292 291 287 285 293 292 292 295 296 294 295 297 297
311 310 310 310 311 311 311 311 310 310 310 311 312 313 315 315 314 311 309 319 319 317 306 300 312 310 313 311 311 310 309 307 304 301 300 300 302 296 291 289 295 295 297 297 293 297 297 297 297 298 296 296 297 298
311 310 310 310 311 311 311 311 310 310 310 310 311 312 313 314 311 309 308 313 311 317 307 302 303 311 313 310 310 309 309 307 305 302 300 299 298 298 294 287 296 297 298 299 299 298 295 297 295 297 297 297 298 298
310 309 309 310 311 311 311 311 310 310 310 310 310 312 313 313 311 308 315 313 313 311 309 301 302 308 313 308 306 310 304 305 305 302 302 298 300 297 289 295 297 298 298 298 298 299 298 299 299 298 298 298 295 296
309 309 309 310 310 311 311 311 310 310 309 310 310 312 312 309 309 314 317 314 317 311 302 305 300 299 313 308 309 306 306 299 306 300 299 300 294 285 291 296 298 298 296 296 300 299 299 298 297 298 297 295 294 294
309 309 309 309 310 311 311 311 310 310 309 309 310 309 309 316 316 316 310 306 305 307 307 302 308 302 308 305 305 304 304 299 296 300 303 294 289 297 302 301 302 301 301 299 295 295 296 296 298 297 297 297 296 295
309 308 309 309 310 311 311 311 310 310 308 311 313 314 317 316 314 312 307 304 306 303 306 306 306 303 310 301 302 305 299 299 292 296 296 291 289 299 303 303 303 304 303 301 300 299 300 300 298 297 298 299 298 298
308 308 308 309 309 310 311 309 309 309 316 311 310 313 318 313 311 307 305 305 304 301 306 304 307 308 309 311 300 299 298 299 291 301 294 288 296 302 303 303 303 304 304 303 304 302 302 303 301 300 299 298 298 299
308 308 309 309 309 310 310 309 308 309 310 316 312 312 313 311 299 300 294 297 300 308 309 308 305 312 311 308 300 299 295 292 299 291 287 294 301 304 303 304 303 304 305 305 304 304 303 302 303 300 300 301 300 299
308 308 309 309 310 311 310 308 308 309 308 311 312 293 306 304 304 305 304 305 309 308 309 309 308 307 307 302 301 293 297 298 292 289 289 298 301 303 304 305 304 303 304 305 304 304 303 301 301 302 302 301 300 299
308 308 309 309 310 312 311 311 308 311 312 312 312 295 305 310 312 312 312 312 312 312 311 307 307 307 301 299 298 296 293 291 293 292 297 301 304 304 304 303 303 302 303 303 303 302 302 302 301 302 302 302 301 301
308 308 310 311 312 311 310 310 309 315 317 313 312 307 309 308 306 307 309 309 313 314 314 311 304 300 297 297 294 293 291 289 294 299 303 305 303 304 304 305 304 304 302 302 303 302 302 300 300 302 303 301 302 302
307 309 311 311 309 311 311 313 317 314 313 311 310 313 312 313 307 311 311 309 316 309 304 304 299 297 302 296 294 297 294 297 300 303 305 305 305 304 304 305 305 304 305 302 302 304 302 304 301 300 299 302 303 303
310 312 310 309 309 312 317 312 316 314 310 313 309 313 315 314 313 314 313 315 315 311 308 303 307 299 296 293 295 300 303 303 305 305 302 304 307 307 306 305 306 305 305 305 304 303 303 302 301 298 301 302 301 302
307 308 309 309 307 307 316 317 317 308 310 313 315 317 317 314 315 318 318 320 317 316 311 307 301 299 299 302 302 303 306 305 304 306 305 306 308 307 306 305 304 304 305 302 303 302 300 302 300 299 300 301 299 300
307 307 308 308 308 312 313 315 324 316 310 315 318 316 316 317 320 317 316 315 315 312 307 303 302 304 304 306 308 306 307 309 305 303 303 303 304 303 305 303 303 302 303 304 304 300 302 300 302 299 300 300 298 298
314 314 310 311 311 314 314 315 318 318 317 316 314 312 310 317 314 312 310 317 308 307 305 307 308 310 313 313 313 313 311 309 306 304 303 302 305 304 303 302 302 301 299 298 300 299 300 300 299 301 300 299 300 300
319 313 321 314 316 319 316 320 314 321 315 315 314 313 311 309 311 310 315 311 308 309 311 310 311 311 311 312 312 313 312 312 309 307 302 303 301 301 301 300 300 300 299 300 300 297 298 300 301 299 300 299 299 300
314 317 319 320 315 308 305 323 314 312 309 312 313 309 311 309 313 316 308 310 313 316 316 314 314 315 312 313 314 313 312 311 308 306 304 303 302 301 300 299 299 299 299 300 302 300 300 298 299 301 301 300 300 299
312 315 314 312 311 304 316 314 316 313 314 308 308 307 308 312 313 311 305 308 311 313 312 315 315 312 313 315 310 310 308 306 304 304 303 302 300 300 300 300 300 299 302 301 300 300 300 300 299 300 299 299 298 297
305 303 306 292 312 311 309 309 311 309 306 307 306 306 305 309 306 306 304 307 310 309 309 310 309 305 301 301 301 302 306 304 301 299 302 302 300 299 299 299 299 300 301 300 300 298 299 302 301 300 298 299 298 298
294 306 298 305 307 305 307 305 308 308 306 304 307 308 310 305 303 302 306 309 311 310 306 305 303 302 300 301 300 301 302 304 302 298 299 300 300 299 297 296 296 298 301 301 300 299 300 300 299 299 298 298 296 298
297 304 310 316 312 311 309 311 312 309 306 304 305 305 304 295 296 306 310 313 313 308 306 306 304 301 301 301 302 304 303 304 303 300 301 301 300 300 298 295 294 299 302 302 300 300 300 299 299 298 298 298 299 298
306 309 306 311 311 312 308 309 309 305 304 308 307 304 303 302 302 311 312 315 314 307 305 304 305 303 303 303 303 303 303 303 304 302 301 300 300 299 299 299 300 297 301 300 301 301 301 300 299 298 298 297 298 299
306 309 310 307 310 311 312 310 306 309 311 309 305 307 309 314 313 311 312 312 314 307 304 303 303 303 303 303 303 302 302 303 302 298 297 295 295 297 301 301 298 300 299 296 292 294 297 298 299 299 299 298 299 298
305 309 306 307 308 308 313 315 312 313 315 313 311 311 311 310 311 312 313 313 311 309 305 304 304 303 302 300 299 299 301 302 301 300 297 295 296 299 301 301 300 300 300 299 298 298 295 299 298 299 298 297 297 297
310 310 309 310 310 312 314 316 316 316 317 314 312 311 310 309 312 314 314 317 312 310 306 302 301 301 300 300 300 298 296 302 303 303 302 301 300 301 301 302 302 302 301 301 301 299 299 299 298 298 297 296 297 296
310 310 309 310 311 317 316 312 313 314 312 311 311 311 309 309 304 311 316 316 312 307 301 303 300 299 301 302 302 301 298 300 299 299 303 302 302 303 303 302 301 301 302 300 300 299 299 298 297 296 296 297 298 297
315 314 315 313 311 310 311 310 308 309 310 310 311 311 311 309 305 309 318 318 312 306 303 303 302 302 304 303 301 299 297 296 292 291 291 291 291 295 299 301 302 302 301 300 299 299 298 298 297 298 299 298 297 297

GFSWCAN_sfc_thetae_060.txt.gz
Theta_e
315 314 313 312 311 312 312 311 311 312 312 313 314 316 317 316 315 307 306 310 304 298 301 304 303 298 297 294 290 293 291 292 288 282 285 285 284 286 284 286 286 284 281 282 282 282 279 294 293 287 290 293 294 293
315 313 312 311 311 311 311 311 311 311 312 313 313 315 316 315 315 312 303 310 310 301 301 307 309 309 304 302 296 295 292 292 291 287 287 283 285 287 285 280 291 282 284 281 285 282 291 292 291 294 295 293 293 293
314 312 312 311 310 311 311 311 311 310 311 312 313 314 315 315 315 312 302 305 307 301 301 302 303 308 305 306 304 295 295 297 294 295 289 288 284 286 282 285 287 290 289 286 286 288 289 293 296 296 296 294 294 294
314 312 311 310 310 310 311 311 311 310 310 311 313 313 315 315 315 314 302 305 306 302 296 299 311 303 309 305 305 303 300 302 298 296 290 289 286 288 281 286 288 288 289 288 288 290 292 293 295 296 296 297 295 296
313 312 311 310 310 310 311 311 311 310 309 310 311 313 314 315 314 310 305 306 309 306 296 297 303 307 308 305 304 304 302 299 297 295 291 290 292 288 288 291 288 291 288 286 283 289 290 291 295 298 296 295 296 295
312 311 310 309 309 310 311 311 311 310 309 309 310 312 313 314 313 305 303 312 312 313 303 294 303 304 306 305 303 302 300 299 298 295 292 299 297 291 285 286 289 291 293 293 290 294 294 296 297 299 296 296 297 296
312 311 309 309 309 310 311 311 311 311 310 309 310 311 312 312 305 302 302 307 309 310 304 298 297 305 309 307 304 302 306 301 298 296 294 294 293 293 286 281 290 293 294 295 297 295 294 295 293 298 298 298 298 298
312 310 309 309 309 310 310 311 311 311 310 309 310 310 311 312 308 302 306 309 309 306 306 297 297 301 307 302 301 306 302 301 299 298 295 293 292 290 282 290 293 295 295 295 296 297 296 296 297 297 298 298 296 295
311 309 308 309 309 309 310 311 311 311 309 309 310 311 306 302 300 305 316 315 313 307 299 300 294 294 309 306 305 305 304 296 303 298 294 295 287 282 288 291 293 295 294 293 295 295 295 295 296 297 297 297 295 295
310 308 308 308 308 309 310 310 310 310 310 309 306 303 301 308 317 314 305 300 300 301 300 294 300 295 301 301 298 302 302 297 293 297 299 290 287 291 293 296 297 297 296 296 293 291 292 293 294 295 295 297 296 297
309 308 308 308 309 309 309 310 310 310 308 302 303 305 310 316 306 303 300 300 301 299 298 299 299 296 304 294 294 300 296 295 289 294 294 289 287 294 299 299 299 298 298 298 297 297 296 296 296 296 296 297 298 297
308 307 308 308 308 309 310 309 309 304 304 305 303 306 307 305 304 300 301 302 300 296 303 300 301 302 302 305 298 295 294 296 287 297 290 285 290 300 299 299 300 299 300 300 301 299 299 299 298 297 297 296 297 298
307 307 307 308 308 309 310 309 308 308 306 305 304 303 305 304 293 298 291 294 295 301 304 303 301 301 300 298 293 293 293 290 293 288 285 287 297 302 299 298 299 299 301 301 301 301 301 300 300 298 297 299 298 297
307 307 308 308 309 309 310 308 308 306 300 302 305 291 300 297 302 303 303 303 306 306 303 301 299 297 298 294 294 289 292 294 288 284 286 293 295 297 299 299 299 298 299 301 301 301 301 300 299 299 299 299 300 299
307 308 308 308 309 309 311 310 307 305 303 304 305 292 299 305 307 308 307 305 308 306 303 301 299 298 294 293 292 290 289 286 286 284 290 294 296 298 297 296 297 298 297 298 298 298 298 298 297 298 297 298 300 301
308 308 308 310 311 311 310 309 305 306 309 306 305 300 302 305 303 305 305 303 305 303 303 301 296 293 291 291 289 287 286 282 287 291 295 296 297 298 296 297 298 298 297 297 298 298 298 296 295 295 297 297 299 298
307 307 310 310 309 310 310 306 307 307 308 307 303 306 305 307 306 307 304 304 306 300 295 296 293 291 295 290 287 291 288 291 294 296 298 297 297 302 302 300 298 298 297 297 295 297 299 297 294 293 295 295 297 297
305 309 310 309 307 308 308 305 309 312 307 307 302 304 310 309 305 304 308 307 304 300 298 297 298 292 290 289 288 292 295 296 297 297 296 297 298 301 305 302 301 298 298 298 298 298 301 298 296 292 295 296 296 295
304 305 308 309 304 300 308 311 309 302 304 305 306 309 312 311 312 310 309 308 306 305 301 298 295 292 292 294 294 295 296 296 296 296 296 297 298 297 300 302 301 300 299 298 296 295 296 298 299 296 295 295 294 294
307 308 309 308 306 301 305 308 313 308 306 308 310 308 308 307 311 312 308 307 304 302 298 295 294 296 297 298 299 298 298 298 297 295 294 295 297 297 297 299 299 299 300 300 298 296 295 296 299 298 295 294 293 293
308 308 308 306 303 305 307 307 310 312 309 307 309 307 307 308 307 305 304 305 305 298 297 298 298 301 303 303 303 302 300 299 297 296 296 293 296 295 297 296 296 294 294 295 295 294 295 295 298 298 294 293 294 295
307 312 309 308 309 312 306 309 305 308 306 306 305 308 305 302 304 304 307 303 300 301 302 301 302 302 303 302 302 303 302 301 298 298 297 296 292 295 295 293 294 293 295 294 292 292 295 298 299 299 294 294 295 295
309 313 313 314 309 303 299 312 307 307 302 304 306 306 307 307 309 311 303 303 303 305 304 305 305 305 302 304 304 303 302 300 297 296 298 297 296 293 291 294 297 298 296 297 296 295 295 296 297 299 299 294 294 293
313 310 308 310 307 298 309 306 309 306 306 306 306 304 305 306 310 306 300 301 304 307 303 303 306 303 302 300 296 296 297 297 295 295 296 294 292 292 293 293 295 297 298 293 293 294 294 295 296 298 298 295 295 293
300 299 301 291 304 305 305 304 305 305 302 305 305 304 303 307 303 302 301 301 303 304 302 299 298 297 294 293 295 295 295 295 293 293 293 293 292 292 291 292 292 292 294 294 293 293 294 295 296 295 296 293 294 295
291 301 297 304 302 300 301 303 305 304 304 304 305 306 306 301 300 298 301 303 305 300 297 295 294 293 292 296 294 292 293 293 292 291 291 293 293 291 290 290 290 292 294 294 294 294 295 295 294 294 294 295 294 294
292 300 304 308 304 304 303 306 308 306 304 303 304 304 302 295 294 299 304 308 304 299 297 296 295 294 293 293 293 293 294 293 292 292 292 292 291 291 291 290 290 292 295 296 296 296 295 295 294 294 294 293 293 294
302 302 301 302 303 307 304 305 307 303 304 307 305 302 302 302 301 306 308 311 304 298 296 295 295 295 294 294 295 294 294 294 293 292 291 290 290 291 292 293 293 293 291 293 294 295 294 294 294 294 294 293 292 293
301 304 303 300 302 303 308 307 306 307 309 308 305 303 303 310 310 306 308 305 304 297 294 294 293 294 293 293 293 294 295 295 292 289 288 287 288 289 291 293 292 290 289 289 292 293 295 294 294 294 294 293 292 292
299 302 299 301 302 304 307 311 309 310 312 311 310 308 306 306 308 307 305 304 304 303 299 297 296 293 291 290 289 291 294 294 294 293 289 288 290 291 293 292 293 291 290 291 291 291 294 294 294 293 292 291 290 290
303 302 300 302 307 310 311 313 313 314 314 311 311 309 307 305 306 307 307 308 307 298 294 292 292 293 293 291 290 291 290 292 294 294 293 292 293 294 294 293 293 293 293 293 293 293 293 293 292 291 291 290 291 290
303 303 304 306 308 312 312 308 310 310 310 309 307 308 305 303 300 302 307 305 300 297 296 294 293 292 294 293 294 293 293 291 292 294 294 294 294 294 295 294 294 294 295 295 294 293 293 291 290 290 290 292 292 292
310 311 312 309 308 308 308 307 307 305 308 307 306 304 304 303 300 303 306 305 301 297 294 293 295 296 294 293 292 291 291 289 290 291 291 292 292 292 293 293 294 295 295 293 293 293 292 292 291 291 292 292 292 292

GFSWCAN_sfc_thetae_063.txt.gz
Theta_e
316 315 313 313 311 311 311 311 311 311 312 313 314 314 316 316 315 306 305 306 302 296 298 301 302 297 296 292 288 292 290 289 286 281 277 284 283 285 281 286 280 281 278 272 281 279 274 292 291 284 287 291 293 293
315 315 313 312 311 311 311 311 311 310 310 312 313 314 315 315 315 308 303 306 306 300 299 304 307 308 304 301 295 292 289 289 289 284 283 286 285 287 283 272 291 282 281 277 281 280 288 291 290 295 296 293 293 293
315 314 313 312 310 310 311 311 311 309 310 311 312 313 314 315 315 309 300 302 303 299 299 300 302 307 303 303 303 294 293 294 292 292 286 284 277 284 282 284 287 289 288 281 283 285 288 290 292 294 297 295 296 296
314 314 312 311 310 310 310 311 311 309 309 310 311 312 313 315 314 312 301 302 302 299 293 297 308 303 305 303 303 302 300 297 296 293 288 285 281 286 279 282 280 284 290 288 287 288 289 292 293 294 295 298 296 297
314 313 312 311 309 310 311 311 310 309 308 309 310 311 313 314 313 308 303 303 305 302 294 295 302 305 306 303 302 303 302 298 294 291 292 288 292 287 285 288 287 290 287 284 282 287 287 288 293 296 296 297 297 296
314 313 312 310 309 309 310 311 310 310 309 309 310 310 312 313 311 304 302 307 307 311 299 293 300 301 304 303 300 302 302 301 300 295 292 296 298 293 287 284 288 290 290 290 288 290 291 293 295 297 296 297 298 297
313 312 311 309 309 309 310 310 310 310 310 309 310 310 310 311 303 301 301 305 307 306 303 294 294 301 306 303 302 300 304 303 300 297 294 296 295 295 290 280 290 291 293 293 293 291 292 294 293 295 297 298 300 297
313 312 310 309 309 309 309 310 311 310 309 309 310 309 310 310 307 301 304 308 307 303 305 294 293 297 303 297 299 302 299 302 302 300 298 294 294 293 287 289 291 293 294 293 294 295 295 295 294 295 296 298 297 294
312 311 309 308 308 308 309 310 310 310 309 309 309 310 305 301 299 303 315 312 311 306 294 293 289 290 303 300 300 299 304 297 303 297 297 297 290 286 290 290 292 294 294 294 295 295 294 293 294 294 295 295 295 293
311 309 308 308 308 308 309 309 310 310 309 309 306 302 300 304 314 314 305 300 299 298 297 293 296 293 298 296 295 298 300 296 293 296 299 291 287 293 293 292 295 295 295 294 291 291 291 291 292 292 294 295 296 294
310 308 308 307 308 308 309 310 309 309 308 301 301 301 306 314 305 301 298 299 300 297 295 297 297 295 301 294 296 299 295 296 287 289 292 286 286 295 300 298 297 297 296 296 297 296 294 293 294 294 295 296 296 296
308 307 307 307 308 308 309 308 309 303 303 304 303 303 304 302 301 300 299 299 298 295 299 297 298 298 299 303 298 296 294 295 288 292 288 279 287 294 298 299 299 298 298 299 298 298 298 297 297 296 296 296 295 296
307 307 307 307 308 308 309 308 308 307 305 303 302 301 301 301 294 296 291 292 296 298 301 300 298 298 298 296 294 293 293 288 292 286 281 283 290 297 297 298 299 299 298 300 299 299 299 299 299 298 297 296 296 298
306 307 307 307 308 308 308 308 307 305 300 300 301 292 298 295 298 301 300 299 302 301 300 299 297 296 296 293 292 287 290 292 286 283 280 289 293 295 297 299 298 298 298 299 300 300 300 299 299 299 298 297 297 297
307 307 308 308 309 309 309 308 307 305 302 301 302 292 298 302 303 305 305 303 304 304 301 298 301 296 292 292 291 289 287 285 284 282 288 293 294 294 296 297 296 297 297 297 297 297 299 298 296 295 296 296 297 298
307 307 307 310 310 310 309 308 304 304 304 302 301 298 300 301 302 303 302 301 303 302 300 298 293 294 290 290 288 286 285 282 286 289 293 294 294 294 296 298 299 300 297 296 296 296 296 296 295 293 295 295 297 297
307 305 310 309 308 309 308 305 304 304 304 305 302 303 302 304 304 304 303 302 303 298 294 294 292 290 292 289 287 289 286 289 291 294 295 294 294 294 301 302 303 302 299 296 295 295 294 295 294 292 293 294 295 296
305 309 309 308 305 308 306 304 306 309 305 305 301 301 308 308 306 306 305 305 304 299 297 296 298 292 288 287 287 291 292 294 297 294 294 294 295 296 299 297 298 297 299 300 300 300 298 295 292 291 292 294 294 293
303 304 308 308 304 298 302 308 305 300 302 303 303 304 307 309 309 308 308 306 304 304 302 298 295 292 291 292 294 294 295 298 294 294 293 295 295 295 296 297 298 298 299 299 298 297 297 295 292 293 293 293 292 292
307 308 309 308 305 297 300 303 309 303 303 305 308 305 305 303 305 307 306 305 303 301 299 297 296 297 295 296 297 299 298 295 294 293 291 293 294 294 293 293 294 294 295 295 296 297 296 295 297 295 294 293 292 293
306 307 308 304 301 304 303 303 304 308 306 304 305 304 304 306 305 305 303 302 303 301 300 300 301 300 301 301 300 299 297 295 294 294 294 291 292 296 298 295 294 293 291 291 291 291 293 292 297 299 296 293 292 293
301 310 307 306 306 306 302 304 301 302 303 302 302 303 303 303 304 305 307 304 301 302 303 303 301 302 302 300 300 299 299 296 294 293 294 294 294 291 291 294 296 293 296 294 293 291 294 299 300 298 296 293 294 294
305 309 310 310 305 301 299 309 305 305 300 301 303 303 304 303 307 311 303 304 304 305 303 303 303 303 302 301 298 298 298 295 293 292 292 291 290 289 291 293 294 294 292 293 293 292 292 295 298 299 297 293 293 292
306 307 305 306 304 297 306 303 306 303 306 302 301 300 303 303 305 304 301 301 302 302 300 304 303 298 296 295 293 293 293 293 293 291 291 291 290 289 290 291 292 293 292 290 291 292 293 296 297 297 298 295 292 291
298 298 299 290 301 303 303 304 303 302 299 301 301 301 301 301 300 300 300 301 302 299 298 298 295 296 294 292 292 292 292 292 292 290 290 290 289 289 290 290 290 290 292 291 291 292 292 293 293 295 296 295 293 292
290 299 296 302 300 299 299 299 304 301 300 301 303 302 302 298 297 296 299 302 301 300 296 294 294 292 291 292 291 290 291 291 292 290 290 290 290 290 288 288 288 290 292 292 292 292 293 292 292 292 292 293 292 292
291 297 301 303 301 301 300 302 306 303 303 303 304 300 300 294 295 297 304 305 300 297 295 294 296 294 293 290 289 290 290 291 293 292 291 290 290 291 291 290 289 291 292 294 294 294 293 292 292 292 291 291 291 291
301 300 298 300 299 302 302 303 303 303 304 304 303 301 300 301 301 305 308 310 301 293 293 292 292 295 293 291 291 290 289 290 289 288 288 288 287 288 291 292 290 291 290 292 294 293 293 292 292 292 291 291 291 292
298 301 299 297 298 299 304 304 303 304 306 305 303 300 301 306 308 303 303 302 295 292 292 291 291 291 291 291 290 290 292 292 288 286 286 285 286 289 290 289 288 287 288 290 292 293 294 293 293 292 291 290 289 289
296 300 296 297 298 301 305 306 306 307 311 308 309 306 303 303 304 304 303 302 296 293 293 292 291 290 289 289 288 288 290 290 291 290 287 286 287 289 290 290 290 287 288 290 290 291 293 293 292 291 290 289 289 288
298 297 296 298 303 304 307 309 310 310 309 306 307 305 302 302 303 304 303 303 303 298 294 292 290 289 289 289 290 289 289 290 291 292 291 290 290 291 291 291 291 289 289 290 291 291 291 290 290 289 289 288 289 288
298 297 297 301 303 307 310 306 306 305 304 306 303 304 303 301 299 301 303 300 293 291 292 291 290 290 290 289 290 290 291 290 291 291 292 291 291 292 292 291 291 291 292 292 292 291 291 290 289 289 289 290 290 289
304 306 307 305 304 303 303 304 304 301 302 302 302 303 302 301 298 301 300 297 296 294 291 290 291 291 290 291 290 289 290 290 291 292 292 292 292 292 291 291 292 293 294 292 291 291 290 289 289 289 290 290 290 290

GFSWCAN_sfc_thetae_066.txt.gz
Theta_e
315 316 315 314 312 311 311 311 311 311 311 313 314 314 315 315 315 306 304 304 301 295 296 301 300 295 294 291 288 291 289 288 284 279 277 282 282 285 281 280 279 276 273 272 281 278 273 292 290 284 287 290 292 292
315 315 315 314 312 310 310 311 311 311 309 312 313 314 314 315 314 307 301 304 304 300 298 302 304 305 303 300 293 290 288 287 287 283 282 283 284 286 281 271 284 279 280 276 278 278 287 291 289 292 293 292 293 294
314 314 315 313 312 310 310 311 311 310 309 310 311 313 314 314 314 307 299 300 301 298 298 299 300 304 302 302 301 293 291 292 289 289 285 282 276 284 278 278 281 288 286 279 281 284 287 289 292 294 294 293 295 296
313 314 314 313 311 310 310 311 311 310 309 309 310 311 313 314 314 310 300 300 302 297 293 295 305 301 304 302 302 300 297 295 294 291 286 283 280 285 280 281 280 284 288 288 287 287 288 290 292 294 294 295 296 298
313 313 314 313 311 309 310 311 311 310 309 309 309 310 311 313 313 305 301 301 303 301 293 295 300 302 302 301 301 301 299 298 297 294 289 286 287 285 284 285 281 288 286 283 281 287 287 288 293 295 294 295 297 297
312 313 313 312 310 309 309 310 310 310 309 309 309 309 310 312 310 303 300 304 305 305 297 292 298 299 302 300 299 299 301 300 299 297 295 295 294 290 285 285 288 289 290 289 288 290 291 293 294 296 295 297 298 298
312 312 313 312 310 309 309 310 310 310 310 309 309 309 309 310 302 300 300 304 306 303 302 292 292 299 303 299 297 298 303 302 301 298 296 297 295 293 290 282 290 291 292 291 292 293 291 293 293 296 296 298 299 299
311 312 312 311 310 309 309 310 310 310 310 308 309 309 309 310 306 301 303 308 308 303 304 293 292 295 301 296 295 301 301 302 301 299 298 295 295 294 288 292 292 294 293 292 293 294 294 294 295 295 296 296 296 296
311 312 311 310 308 308 309 309 310 310 310 308 308 309 304 300 298 303 314 311 310 306 294 293 289 289 300 297 297 298 303 297 302 297 297 296 291 287 292 293 292 293 293 294 295 294 294 293 294 294 294 295 294 295
311 311 310 308 307 308 308 309 309 309 309 308 305 301 300 302 312 313 306 302 299 297 299 296 293 292 297 294 296 299 299 294 293 295 294 288 286 295 297 296 294 295 296 295 292 291 292 292 292 293 293 295 295 295
311 310 308 307 307 308 308 309 309 309 307 300 300 300 304 312 304 302 299 297 300 296 295 297 294 293 299 293 296 296 291 291 288 287 291 287 286 294 299 298 297 297 297 296 296 295 295 295 294 294 294 296 296 296
309 308 307 307 307 308 308 308 308 303 302 303 303 302 303 301 300 300 298 301 299 295 298 297 297 298 297 298 295 293 294 294 286 291 289 281 286 291 296 298 299 298 298 298 297 297 297 297 296 296 296 296 296 296
307 307 307 307 307 308 308 308 307 307 304 302 300 298 298 298 293 296 288 293 297 300 301 301 297 297 298 295 296 295 293 290 291 287 283 283 290 293 294 297 298 299 298 299 299 299 299 298 300 298 298 299 297 296
306 306 306 307 308 308 308 308 308 306 299 297 299 294 300 293 296 297 298 297 301 300 300 299 297 296 295 296 292 288 290 291 289 284 279 288 292 294 295 297 298 298 299 299 299 300 300 300 299 300 299 298 297 296
306 307 307 308 309 309 308 308 307 304 300 298 299 291 296 301 300 302 306 303 303 302 300 297 297 296 295 294 291 289 287 286 285 282 287 291 293 294 295 296 294 297 298 298 298 298 300 300 298 297 297 297 297 297
307 307 307 309 309 309 308 307 303 304 302 299 298 295 298 298 299 303 303 301 303 301 299 298 293 292 291 291 289 287 286 283 286 288 292 293 294 294 294 296 298 300 300 300 299 299 299 297 297 297 296 296 298 297
307 304 309 308 308 309 308 306 302 302 300 301 300 301 299 299 300 301 306 306 303 301 295 294 292 292 293 289 288 289 287 289 291 294 294 293 294 294 296 297 298 298 297 296 296 296 298 298 297 296 295 295 298 297
305 308 309 307 305 307 305 304 306 306 302 301 298 299 301 303 303 303 305 305 304 298 296 296 297 294 291 289 289 291 292 293 295 295 294 294 295 295 297 296 298 299 298 298 299 300 300 299 297 295 296 298 296 296
303 306 308 308 304 297 299 306 303 297 300 302 302 302 304 305 306 305 305 304 303 302 300 298 296 293 293 295 293 293 295 294 294 293 293 294 294 295 296 296 295 294 295 295 295 297 299 298 296 295 296 298 295 295
307 308 309 308 305 296 296 299 306 300 298 302 301 302 304 303 303 304 305 303 301 301 299 298 298 299 296 298 295 296 296 295 294 292 291 292 294 294 295 294 294 292 293 294 294 296 297 297 299 298 298 297 296 295
306 307 308 303 300 301 303 301 302 304 304 302 303 302 301 303 303 304 304 303 302 301 300 302 301 301 301 298 297 297 295 295 294 293 292 291 294 296 294 294 294 292 292 291 292 292 296 297 298 300 298 296 296 296
300 309 308 306 304 302 300 301 299 299 299 300 300 300 300 300 300 302 305 302 303 302 304 303 302 301 300 300 298 297 295 293 293 293 294 293 291 291 292 293 293 292 293 293 293 292 296 299 299 299 298 296 296 297
304 307 310 309 306 301 299 305 302 304 300 299 302 300 301 300 302 306 303 305 305 303 304 300 301 303 300 298 298 296 295 293 292 291 291 290 289 290 292 293 293 293 292 292 293 293 294 297 299 299 297 296 296 293
304 304 304 306 304 296 304 301 304 304 304 301 300 302 300 300 302 299 297 299 302 301 302 303 301 297 295 294 293 293 293 293 291 290 290 291 291 290 291 291 292 293 292 292 293 294 296 297 298 299 298 295 294 292
297 297 298 290 299 301 301 303 303 302 301 301 300 299 298 300 298 300 299 299 299 300 303 297 295 295 293 291 291 291 292 292 291 291 290 291 290 290 291 291 292 292 293 293 293 293 293 295 296 298 297 297 294 293
289 296 295 300 299 298 297 297 301 299 299 299 301 301 300 297 297 297 300 301 301 299 297 296 293 292 291 291 291 290 292 292 292 291 291 290 290 291 290 290 290 292 293 294 294 294 294 294 294 294 294 294 292 293
289 294 298 301 299 299 298 299 304 301 302 301 299 299 301 296 296 299 304 305 301 300 296 295 294 293 292 291 290 291 291 292 293 293 291 291 291 292 293 292 292 293 294 296 295 295 294 294 294 294 293 293 293 292
299 298 297 298 298 300 299 301 301 301 301 303 302 301 300 301 301 303 306 306 301 294 293 292 291 293 292 292 291 290 288 288 288 288 289 289 289 291 293 292 291 291 294 295 295 295 295 295 294 294 294 293 293 294
295 299 298 295 296 296 298 299 301 302 305 303 303 302 304 305 306 303 304 299 292 293 292 291 291 291 290 289 289 289 290 290 290 288 288 287 288 291 292 291 290 290 292 294 292 294 296 295 294 293 293 292 292 292
293 297 295 295 294 295 301 304 304 306 306 307 308 304 301 301 303 303 298 293 292 293 294 293 292 292 291 290 289 289 290 289 291 291 288 288 289 291 292 293 291 290 291 293 294 295 293 294 293 293 293 293 292 292
296 296 295 294 298 303 306 307 309 308 308 305 305 304 301 301 302 303 302 298 295 294 292 291 290 290 291 290 290 290 289 291 291 292 292 292 291 292 293 293 292 291 293 294 295 294 294 293 293 292 292 293 293 292
297 296 296 298 301 305 307 307 308 304 305 305 301 303 302 301 299 301 302 302 297 296 296 294 291 291 291 292 293 293 293 295 293 293 293 292 292 293 294 293 293 293 293 293 295 294 294 293 292 292 293 293 294 294
298 301 304 303 301 302 303 305 303 300 301 301 302 303 302 301 300 301 299 296 297 295 294 294 293 291 292 292 293 292 291 292 292 291 291 292 292 292 293 293 293 294 295 295 295 294 294 293 293 294 294 294 294 295

GFSWCAN_sfc_thetae_069.txt.gz
Theta_e
315 315 316 316 314 312 311 311 311 311 311 311 313 314 315 315 315 313 312 312 310 305 305 305 305 302 300 300 298 298 297 296 295 290 290 287 287 288 286 287 288 288 288 287 287 284 283 297 294 291 294 296 296 296
314 314 315 316 314 313 311 311 311 311 310 310 312 313 314 315 315 309 310 310 311 309 306 308 309 310 308 307 302 299 298 297 297 292 291 291 289 289 288 286 291 286 291 289 290 291 295 298 297 299 298 296 297 297
313 314 314 315 314 312 310 310 311 311 310 309 310 312 314 314 315 310 309 309 311 308 307 308 307 311 312 311 310 302 300 301 299 300 295 293 288 293 288 288 290 293 293 291 289 294 294 297 299 299 300 298 299 299
313 313 314 315 314 312 310 310 311 311 310 309 309 310 312 313 314 311 310 309 310 306 302 303 310 309 311 310 309 308 304 302 301 300 298 295 293 294 292 292 292 294 294 293 292 295 295 297 299 300 300 301 300 301
312 313 313 314 314 312 310 310 311 310 310 309 309 309 310 312 312 311 311 310 312 308 303 304 309 309 310 309 308 307 305 301 300 299 297 295 295 294 294 294 292 295 294 292 293 298 298 297 300 301 300 300 302 302
311 312 312 313 313 311 309 310 310 310 310 309 309 309 309 310 310 312 310 313 313 313 306 300 307 307 310 307 306 305 304 303 302 300 298 297 298 296 291 289 298 298 300 301 298 300 300 301 302 303 301 302 303 303
311 312 312 313 313 310 309 309 310 310 310 309 309 308 308 309 311 308 308 311 310 312 307 300 301 307 309 305 305 305 306 305 305 301 299 302 298 296 292 289 297 299 300 300 300 299 298 300 300 303 303 304 303 304
311 311 312 313 312 310 309 309 310 310 310 308 308 308 309 309 309 308 312 309 311 310 308 299 300 303 309 306 305 308 303 305 303 303 302 297 296 293 287 295 299 301 301 299 299 301 302 303 303 303 303 304 303 302
310 311 311 312 310 309 308 309 310 310 310 308 307 309 309 308 309 310 313 312 313 310 303 301 297 298 308 305 307 307 308 300 305 300 299 297 293 287 294 298 300 300 299 300 301 300 300 300 302 303 303 303 301 302
310 311 311 310 309 308 308 309 309 309 309 308 308 307 307 311 314 314 310 306 308 307 307 299 302 299 305 304 303 303 305 301 297 297 299 294 292 301 302 299 302 303 300 301 299 298 300 300 301 302 302 303 303 303
311 311 309 308 308 308 308 308 309 309 307 306 308 309 311 312 311 308 303 302 302 298 302 301 301 302 306 302 303 304 299 300 292 295 294 290 290 300 303 304 305 306 301 303 304 305 305 304 303 301 302 303 304 304
310 309 308 307 307 308 308 308 308 307 306 307 308 307 311 309 306 301 301 303 300 299 303 302 302 303 305 307 303 301 298 297 290 300 293 285 297 301 302 304 306 307 305 304 305 305 305 304 304 304 304 304 304 305
308 307 307 307 307 308 308 308 307 307 307 308 307 305 304 304 294 296 295 297 300 306 307 305 304 306 303 304 300 299 295 292 299 293 286 293 302 302 303 304 305 307 307 306 306 307 306 306 306 305 305 307 306 305
306 306 306 307 307 308 308 308 308 307 306 302 303 292 300 298 300 303 304 306 307 309 307 307 304 304 302 300 299 294 297 297 290 287 288 299 303 303 304 305 304 304 305 305 305 306 306 306 306 307 307 307 305 304
307 307 307 308 309 309 309 308 307 307 306 301 304 292 300 307 308 310 309 308 310 310 308 305 304 303 300 296 297 294 292 289 292 293 298 303 304 303 304 304 304 304 304 305 304 304 304 305 305 306 307 306 305 306
307 307 309 309 309 308 308 306 306 307 306 302 302 301 307 305 307 308 309 309 309 308 307 306 301 298 296 296 293 292 290 289 295 299 304 304 304 304 304 305 305 305 305 305 304 303 303 301 301 302 303 304 305 305
307 308 309 308 309 308 307 308 307 304 303 302 302 307 303 305 305 307 311 312 313 308 304 302 297 295 298 293 292 295 295 299 302 304 305 304 303 304 304 305 304 304 303 303 303 304 302 303 302 301 300 302 304 306
308 311 308 307 308 308 308 307 306 305 302 305 302 304 308 311 311 311 313 312 309 308 304 300 301 297 290 288 293 300 302 302 304 305 305 304 304 304 304 304 303 302 302 302 302 302 301 298 295 298 297 300 303 303
305 307 308 308 306 303 300 307 306 300 303 308 310 311 312 313 315 315 314 312 313 310 305 302 299 294 292 298 299 302 304 304 305 304 303 303 304 304 303 303 302 301 302 302 302 302 302 301 299 297 298 302 301 302
307 308 309 308 307 301 299 301 310 306 305 309 309 309 312 313 312 313 313 312 309 306 303 301 299 299 300 304 306 305 307 306 304 303 301 301 303 304 303 302 300 301 301 302 301 298 302 302 303 300 300 300 300 301
307 307 307 307 304 303 304 306 307 309 312 310 313 312 312 313 311 311 310 307 305 304 301 303 304 307 310 307 306 307 305 306 304 303 301 300 302 302 301 301 301 300 300 300 300 300 299 300 301 301 300 300 302 304
305 309 309 307 305 304 302 306 305 307 304 307 308 310 309 308 308 309 311 308 305 304 306 307 309 308 306 307 306 306 304 304 304 300 298 298 298 298 299 300 299 298 299 300 300 299 297 298 301 302 301 300 300 301
305 308 310 309 306 302 301 311 307 310 304 307 310 307 308 308 310 313 308 309 307 306 308 306 306 308 306 305 303 302 303 303 301 299 299 298 299 300 300 300 300 299 299 300 301 299 296 297 300 301 302 302 299 298
304 308 307 307 305 299 309 307 310 309 309 306 305 304 305 307 311 307 304 305 304 306 306 304 302 303 304 304 302 300 301 301 299 298 300 299 298 298 299 300 300 300 301 301 301 301 301 302 299 302 301 299 299 298
299 299 300 291 304 303 305 306 306 306 304 305 304 305 306 308 303 302 301 300 304 306 303 302 304 304 301 300 301 300 301 300 299 298 299 300 298 299 299 300 300 300 302 300 299 300 301 303 303 302 302 300 298 298
290 299 297 304 305 302 302 301 303 305 305 304 305 306 307 303 299 298 302 302 303 302 299 303 302 301 300 301 299 300 301 302 301 298 298 300 299 297 297 297 297 299 302 302 300 299 299 300 300 299 298 297 293 297
291 297 303 307 306 305 304 305 306 306 304 304 306 304 303 298 297 303 308 308 304 305 305 306 304 302 300 299 300 301 301 302 302 300 301 300 300 301 301 299 298 300 303 302 301 301 299 299 299 299 299 299 298 298
303 304 300 304 304 307 303 304 304 304 306 308 306 301 299 301 302 309 309 307 305 303 304 303 303 304 302 302 301 300 300 298 298 298 298 298 300 301 301 300 300 291 302 302 302 302 301 300 299 298 298 297 297 298
301 305 305 301 302 302 302 302 305 310 311 310 307 304 306 311 313 311 311 305 302 303 302 301 300 301 300 300 300 300 299 298 296 294 294 294 296 298 300 299 300 301 301 301 292 297 300 299 299 299 298 298 298 299
299 304 301 300 299 298 304 310 311 314 314 314 314 310 309 308 310 310 304 301 301 302 303 303 302 301 300 299 298 297 299 299 299 298 296 295 296 299 301 299 298 299 301 301 301 299 293 298 296 299 299 299 298 297
303 302 300 300 299 308 312 314 314 314 314 313 314 310 308 308 310 311 308 305 303 302 301 301 300 301 300 299 298 298 297 299 299 299 301 300 300 300 300 300 299 300 301 302 302 301 301 300 299 298 297 297 297 297
303 301 300 300 306 312 313 312 312 312 312 311 310 311 308 307 305 309 311 308 303 301 300 301 300 300 301 302 302 302 295 302 300 300 300 300 301 301 302 301 299 299 300 300 301 301 300 298 298 298 298 297 297 297
304 303 303 306 308 308 311 311 308 307 308 308 309 309 309 308 306 310 306 308 308 307 305 303 302 303 302 301 301 301 296 302 299 294 294 294 295 297 301 301 301 301 300 300 300 300 299 297 298 297 298 298 298 298

GFSWCAN_sfc_thetae_072.txt.gz
Theta_e
314 315 315 316 316 315 313 311 311 311 311 311 312 314 315 315 315 315 318 322 317 311 310 309 309 307 306 307 304 304 302 301 300 296 298 296 296 294 292 293 293 293 293 294 295 291 288 302 299 296 301 302 301 301
313 314 315 315 316 315 313 311 311 311 311 310 311 312 314 315 315 313 318 321 320 314 312 315 314 314 313 312 309 306 303 301 304 301 301 299 296 297 295 293 297 292 297 298 296 298 301 305 302 304 302 302 301 302
313 313 314 314 315 315 313 310 310 311 310 309 310 311 313 314 314 313 318 319 318 314 312 312 311 316 317 316 318 308 308 306 305 307 303 302 294 299 295 295 296 298 300 297 295 299 300 303 304 304 303 303 303 303
312 313 313 314 314 314 313 310 310 310 310 309 309 310 311 313 313 312 318 319 318 314 306 308 317 314 317 317 317 314 312 311 310 308 305 303 300 301 300 299 298 301 300 298 298 300 300 302 304 305 304 304 304 303
311 312 313 313 314 314 313 310 310 310 310 309 308 309 309 311 312 315 321 322 322 314 306 308 313 315 317 316 315 314 311 308 304 302 301 298 303 301 302 300 300 302 300 298 298 303 303 301 306 306 304 304 304 304
311 311 312 312 313 314 311 310 309 310 310 309 309 308 309 310 311 317 314 320 324 320 311 304 312 313 314 314 314 313 311 310 309 302 304 302 304 299 296 294 302 305 306 307 303 305 305 305 306 307 305 306 306 306
311 311 312 312 313 312 309 309 309 309 310 310 309 308 308 309 315 313 312 316 314 321 311 305 306 312 314 312 312 312 311 308 308 305 303 303 301 299 294 291 302 306 307 307 307 305 303 304 303 306 306 307 306 307
311 311 311 312 313 311 309 309 309 309 310 309 308 308 309 310 310 313 318 311 314 316 313 306 305 307 315 311 309 314 310 309 307 306 305 303 298 296 290 300 305 304 304 306 306 306 305 307 306 307 308 307 306 305
310 311 311 312 312 310 309 309 309 309 310 308 307 308 314 313 315 316 313 314 319 315 309 309 306 304 313 314 314 310 311 303 312 305 305 302 296 290 300 304 302 303 303 305 307 306 305 305 305 306 306 306 305 305
310 310 311 312 310 309 308 309 308 309 309 308 311 313 313 317 313 314 315 312 311 313 312 307 311 308 312 311 309 309 309 303 299 301 303 298 295 305 308 309 306 304 307 306 304 303 304 303 304 305 306 307 307 306
310 311 311 310 308 308 308 308 309 308 307 311 313 313 317 313 316 312 306 305 306 305 309 309 308 309 313 307 306 309 303 305 296 298 296 293 293 303 307 307 309 309 308 306 306 307 307 306 306 306 307 307 307 307
310 309 308 308 308 308 308 308 309 310 313 311 314 315 317 312 309 303 302 305 303 306 310 309 310 309 311 314 306 305 301 303 292 304 296 290 300 305 307 308 309 310 310 309 309 308 308 309 309 308 308 308 308 308
308 307 307 307 308 308 308 309 308 308 309 315 311 309 310 307 296 299 298 304 306 311 312 310 308 309 308 310 307 304 297 296 304 296 292 296 305 307 308 309 308 311 311 310 310 310 310 310 311 310 309 310 310 309
307 307 307 307 307 308 308 309 308 309 310 307 305 294 302 301 303 307 309 312 314 315 313 314 309 308 307 304 305 297 301 301 291 289 292 301 305 307 308 310 309 307 308 309 309 309 309 309 309 310 310 311 310 309
308 308 308 309 309 310 309 309 309 311 311 304 305 294 301 308 313 316 317 315 316 319 314 310 311 309 305 302 303 299 294 291 295 295 301 305 309 308 308 308 308 308 308 308 308 307 308 309 309 308 310 311 310 310
308 308 311 309 309 309 308 308 309 313 311 306 305 302 307 308 307 312 314 315 318 316 314 314 307 303 301 301 294 293 292 292 297 303 306 309 308 309 310 310 308 307 307 306 305 305 306 306 306 305 305 306 310 310
307 310 309 309 308 307 308 312 312 308 306 304 304 308 306 305 304 307 313 315 319 312 307 307 300 298 301 295 292 297 295 300 303 306 309 311 309 309 309 307 306 305 305 305 305 303 304 305 305 304 305 304 306 307
310 311 308 309 309 309 312 310 310 308 304 307 304 306 309 311 310 312 317 319 315 313 311 304 307 298 295 289 292 300 304 308 310 310 308 309 309 308 307 305 305 305 305 304 305 305 305 304 301 300 298 303 307 304
307 309 309 309 308 306 305 308 311 304 306 308 310 311 312 314 318 319 319 320 319 317 308 303 299 293 292 297 300 304 308 309 308 307 308 309 309 307 307 306 304 303 304 304 304 303 304 305 303 298 298 301 303 301
308 309 309 309 307 307 303 306 315 308 307 311 313 313 315 317 321 320 319 317 316 310 302 300 299 301 301 304 309 309 309 311 308 305 304 305 308 306 305 303 301 303 304 304 305 299 302 304 303 302 301 301 302 302
306 311 309 309 308 307 307 309 309 311 312 312 316 317 314 319 317 313 314 312 310 309 302 305 307 311 314 315 315 310 311 312 307 306 304 302 305 305 304 305 303 302 301 301 301 299 300 301 302 302 304 304 305 305
312 309 312 312 308 307 307 312 308 311 309 309 310 313 310 312 315 315 314 312 312 306 308 309 315 315 313 312 309 310 311 310 307 302 299 299 301 301 301 301 301 300 301 302 299 297 299 301 304 306 304 301 300 303
306 309 311 310 307 304 303 316 309 311 307 311 315 311 313 314 315 318 312 315 310 310 311 310 311 314 313 312 311 310 310 307 302 301 301 302 302 303 302 302 303 301 301 301 301 301 303 300 303 305 304 302 302 301
304 309 307 307 306 301 312 309 314 312 314 311 310 306 310 312 316 308 304 305 309 312 307 306 308 310 310 309 306 305 305 304 302 302 303 302 300 300 302 302 303 303 303 304 304 305 305 304 301 303 302 301 301 299
300 301 303 292 306 305 305 307 308 309 306 308 306 308 310 314 305 303 303 301 306 310 309 307 311 311 307 305 303 303 305 304 301 300 302 302 301 301 302 302 302 304 304 302 301 302 303 304 304 303 303 300 299 298
291 303 299 305 306 305 305 301 304 305 307 305 307 313 313 308 301 300 305 305 306 307 307 309 309 306 303 303 302 301 302 304 302 300 301 303 302 301 300 299 299 300 305 304 301 300 300 299 299 299 298 297 293 298
293 300 306 311 309 309 307 309 309 307 304 304 309 306 302 296 300 307 312 310 307 309 312 311 308 304 302 303 303 304 304 305 305 302 302 303 304 307 304 301 300 302 305 305 303 302 300 299 299 298 298 299 299 298
305 305 301 306 306 308 304 305 303 302 307 314 313 304 302 299 305 313 312 312 309 310 308 307 306 305 304 304 304 304 303 303 303 303 303 303 305 305 305 304 304 293 304 304 303 305 303 301 300 299 299 299 299 300
304 307 307 303 304 303 303 303 304 313 318 317 309 310 309 316 319 315 313 309 308 306 304 303 304 306 305 305 305 305 304 302 300 297 297 297 298 300 303 304 303 304 304 303 291 296 301 301 301 300 300 301 302 302
303 307 303 302 300 299 305 309 314 321 320 317 319 316 315 316 317 318 313 308 306 305 305 305 305 304 303 303 302 303 304 304 304 302 299 298 299 301 302 302 302 303 304 304 303 301 293 299 296 301 301 302 301 301
308 305 302 302 302 307 311 317 320 319 319 318 320 315 315 314 315 317 315 311 308 308 307 306 305 306 305 304 303 302 301 304 305 304 305 303 302 303 303 303 304 304 305 306 306 305 304 303 303 302 300 300 299 299
305 303 302 301 306 316 318 316 316 315 315 313 314 316 313 312 309 313 316 315 310 307 304 306 306 306 308 308 307 307 295 305 305 305 304 303 303 304 304 304 304 304 304 304 305 304 302 302 303 301 301 300 300 300
307 306 305 303 305 308 314 314 313 311 312 311 312 312 312 312 308 315 317 317 315 311 308 306 307 309 309 309 309 307 300 307 304 297 296 295 296 299 303 304 304 303 303 303 304 303 301 300 301 300 300 301 301 300

GFSWCAN_sfc_thetae_075.txt.gz
Theta_e
313 314 314 315 316 316 316 313 310 311 311 311 312 314 315 316 316 316 322 326 320 312 312 311 311 310 309 309 305 307 304 304 303 300 301 301 298 300 297 300 298 298 297 297 298 295 292 306 303 298 306 308 307 306
313 313 314 314 315 316 316 313 310 311 311 310 311 312 314 315 316 314 321 326 325 317 316 317 315 317 315 315 312 308 307 303 306 304 304 303 300 301 299 296 301 296 301 299 300 300 307 308 306 310 309 308 305 306
312 313 313 314 314 315 316 313 310 310 311 310 310 311 313 314 314 314 320 323 321 315 314 313 311 317 319 317 319 309 311 310 307 311 307 305 297 302 298 298 300 302 304 300 299 303 304 307 307 307 306 306 306 306
311 312 313 313 314 314 315 313 310 311 311 310 310 310 311 313 314 313 321 323 320 316 308 312 319 316 320 319 318 317 315 315 314 311 306 303 300 306 300 302 302 303 304 301 301 303 304 306 307 307 306 307 306 306
311 311 312 312 313 314 315 312 310 310 311 310 309 309 310 311 312 316 323 326 327 317 310 311 316 317 319 318 316 317 315 315 311 306 304 302 304 305 305 303 302 306 304 302 300 306 306 306 309 309 307 306 307 306
311 311 311 312 313 313 314 311 309 310 310 310 310 309 309 310 311 320 316 322 328 324 314 307 317 314 317 317 316 315 314 312 309 306 309 309 309 306 299 298 306 308 308 309 306 310 309 309 308 310 308 308 308 308
311 311 311 312 313 313 312 309 309 310 310 311 310 309 309 309 315 315 315 318 315 323 314 307 308 315 316 315 315 314 314 311 312 307 305 307 306 305 297 294 305 306 309 308 311 309 306 307 305 308 309 309 309 309
311 311 311 312 312 313 310 309 310 310 310 310 309 309 309 310 311 314 319 312 315 318 315 308 308 310 317 310 308 316 308 309 309 309 312 306 304 304 295 304 307 306 309 308 308 310 309 310 309 309 309 309 308 307
310 311 311 311 312 311 309 309 309 309 310 310 308 309 315 314 316 318 315 314 322 317 311 312 308 305 317 313 315 313 312 305 314 307 307 306 303 294 302 305 307 309 307 307 307 307 309 307 308 308 308 308 307 307
310 310 311 311 311 309 308 309 308 309 310 308 311 315 313 318 315 316 318 312 311 314 314 310 317 311 313 312 311 310 311 305 301 305 308 303 301 308 310 310 311 310 309 307 303 303 306 305 306 307 307 308 309 307
310 311 311 310 308 308 308 308 310 309 307 313 313 314 320 313 318 314 308 305 307 308 313 313 313 311 318 310 310 312 307 308 300 303 302 300 296 305 308 309 312 310 311 309 310 309 309 307 307 307 307 307 308 308
309 309 309 308 308 308 308 309 310 311 317 313 316 319 320 314 310 305 304 307 305 308 313 311 313 314 314 318 311 310 305 306 295 304 299 293 302 309 309 309 310 311 310 309 310 310 310 310 309 308 308 307 308 309
308 307 307 307 307 308 308 309 308 309 309 319 314 310 310 307 298 299 300 305 308 313 315 315 312 315 314 314 311 308 299 297 306 299 296 299 308 309 309 309 308 310 312 312 311 311 311 310 310 309 308 310 311 310
308 308 308 308 308 308 308 309 309 311 313 310 307 296 304 302 306 308 310 314 315 316 315 318 315 311 312 308 309 299 302 304 294 291 294 302 308 308 310 310 310 309 309 309 310 310 311 311 310 312 311 311 311 310
308 308 309 310 310 310 309 309 309 314 314 308 306 295 303 307 311 315 317 316 317 318 319 318 313 312 309 304 306 300 296 292 295 296 300 307 311 311 310 309 309 309 309 307 307 306 306 307 308 309 311 311 313 312
308 308 312 309 309 309 308 309 311 316 314 309 307 304 306 306 307 310 313 314 318 317 321 319 308 305 303 302 297 293 292 291 297 301 308 311 311 311 310 310 309 309 308 307 307 306 306 306 306 307 308 309 310 311
308 311 309 309 308 308 309 315 316 310 309 307 306 309 307 307 305 306 309 313 322 320 312 310 301 301 304 297 293 297 296 299 305 307 309 312 311 310 309 308 307 307 306 306 306 306 306 307 306 306 304 306 308 310
312 309 310 310 310 311 316 314 312 310 305 308 305 307 309 310 310 312 315 322 322 319 318 309 308 296 291 288 290 299 303 306 311 310 310 313 312 311 308 307 306 305 305 306 306 306 306 306 304 304 304 304 304 305
307 307 309 309 310 308 309 311 313 306 307 309 310 311 311 312 316 318 319 321 322 322 316 309 297 294 294 301 303 306 308 308 307 308 310 311 310 308 307 307 306 305 303 304 304 303 303 307 306 303 302 301 300 303
308 309 309 310 308 309 307 309 317 310 307 311 313 311 313 313 317 318 318 320 318 316 307 301 301 305 305 307 309 308 310 309 307 306 307 306 308 307 305 304 302 304 303 304 304 300 303 306 306 303 300 300 299 301
304 312 310 312 310 311 310 311 310 311 311 310 314 314 313 319 318 316 319 322 315 311 307 309 309 311 314 317 315 314 313 310 308 306 305 305 305 305 306 307 305 303 302 302 303 302 301 302 305 304 301 301 303 305
314 309 317 315 313 312 311 315 311 313 311 311 312 314 313 315 315 317 321 314 312 314 314 314 318 318 317 315 314 315 314 312 309 303 300 300 303 303 302 303 303 301 302 303 302 302 304 305 306 306 302 300 300 301
306 310 312 313 309 307 305 317 310 312 308 310 316 312 312 314 318 321 316 314 312 316 315 317 317 317 317 316 315 314 312 309 305 304 304 304 304 306 305 305 304 302 301 303 304 304 304 300 303 302 303 302 302 301
304 310 308 309 308 302 311 309 314 312 313 311 310 307 311 315 318 315 307 305 311 314 311 310 312 311 312 313 309 308 308 307 304 305 306 304 302 303 306 304 303 303 304 305 304 307 309 306 300 303 302 301 301 300
301 301 304 295 310 305 305 307 309 310 307 310 309 308 311 319 312 307 305 307 307 308 312 311 309 311 308 308 306 306 307 306 304 303 305 304 303 303 304 303 304 303 305 303 302 304 303 304 303 301 300 299 299 299
295 305 300 305 306 305 306 302 304 306 306 306 309 314 316 305 301 301 307 310 310 311 312 312 311 310 307 306 304 304 305 306 305 303 304 307 306 305 303 301 300 302 306 305 303 301 301 302 303 300 301 299 294 299
295 301 308 312 310 310 308 309 310 307 305 305 310 309 308 301 300 308 313 314 313 314 315 314 311 307 305 305 306 306 306 307 307 304 305 307 308 309 307 305 302 303 308 306 305 302 301 301 300 300 300 303 301 301
306 307 303 306 307 308 305 306 306 305 306 313 312 305 304 305 306 315 314 316 314 313 311 310 309 307 307 306 306 305 304 305 306 305 305 305 307 308 307 306 306 296 305 305 304 306 305 304 303 302 301 300 301 302
306 309 308 305 306 306 305 305 306 311 317 314 310 309 311 317 318 316 314 312 311 309 306 305 306 307 307 307 307 306 305 304 302 300 299 299 301 302 306 305 304 305 305 303 292 296 301 301 302 302 302 304 303 303
307 310 305 305 303 303 306 309 310 317 321 318 321 320 316 317 319 319 314 311 308 307 307 306 306 306 304 304 304 305 306 306 305 304 302 301 302 304 305 305 305 306 306 306 304 303 294 299 298 302 302 304 304 302
311 309 305 306 304 307 309 313 318 319 318 319 321 319 312 316 318 319 315 312 311 310 309 307 307 307 306 306 305 304 303 306 306 306 306 307 305 304 305 305 306 306 307 309 308 307 306 303 305 303 302 301 301 301
308 306 305 303 306 313 319 314 316 317 318 318 315 316 316 314 312 316 319 316 311 310 307 308 308 308 310 310 310 310 297 308 307 307 306 305 305 306 306 306 306 307 306 306 306 306 304 303 305 303 303 301 302 301
309 308 307 306 306 307 314 315 314 313 315 314 314 314 314 312 309 316 322 321 317 313 312 311 310 312 312 312 312 310 303 309 305 298 295 297 299 301 305 306 306 306 305 305 305 305 303 302 303 303 302 302 302 301

GFSWCAN_sfc_thetae_078.txt.gz
Theta_e
314 314 314 315 315 315 316 317 314 311 312 313 312 314 315 316 316 315 322 326 321 316 313 312 311 309 309 309 305 307 305 305 304 300 301 302 299 302 298 300 300 298 297 297 297 295 293 307 304 298 306 309 307 308
313 313 314 314 314 315 316 317 314 311 312 313 312 312 314 315 316 315 319 326 325 317 316 318 315 316 315 315 311 309 306 307 307 304 303 304 300 300 299 295 303 297 301 301 300 302 310 309 308 312 311 309 308 308
312 312 312 313 313 314 315 316 314 311 312 312 312 312 313 313 314 315 320 322 320 315 314 313 310 316 318 317 319 309 312 311 309 310 306 304 300 302 297 299 300 303 305 302 302 305 306 309 309 310 309 310 309 309
312 312 312 312 313 314 314 316 314 310 311 312 311 311 312 312 313 313 320 323 320 317 308 312 320 315 319 318 317 318 315 315 314 310 305 305 301 306 301 302 303 305 305 301 301 304 305 306 308 308 307 308 308 307
311 312 312 312 313 313 314 315 313 310 311 311 311 311 311 312 312 315 321 324 324 317 311 312 316 318 318 317 315 317 315 313 311 306 305 304 306 305 305 304 302 306 303 303 301 307 307 307 309 310 308 306 307 307
311 311 311 312 312 313 314 314 310 310 311 311 311 311 311 311 311 316 316 321 324 322 313 306 318 315 316 317 316 315 315 314 312 308 307 308 310 306 300 300 306 308 309 309 306 310 310 311 313 311 309 309 308 308
311 311 311 312 312 313 314 311 309 310 310 311 311 311 310 310 313 315 314 317 315 323 314 309 308 315 317 315 315 314 316 314 311 308 306 307 309 306 302 298 304 307 309 309 311 310 307 310 308 310 310 310 310 310
311 311 311 311 312 313 312 309 308 310 310 311 310 310 310 311 311 313 319 312 314 318 317 308 308 312 317 310 308 315 310 311 311 308 310 309 307 306 299 304 307 308 309 309 310 311 308 311 311 309 310 310 308 307
310 310 311 311 312 312 310 308 309 310 311 311 310 310 314 314 317 319 317 317 323 318 311 310 307 304 316 312 312 312 312 307 313 307 309 309 304 294 303 305 307 308 307 308 310 309 308 306 308 308 308 308 307 307
310 310 310 311 311 309 308 308 309 310 310 310 310 313 313 319 317 319 318 314 313 315 314 310 314 308 313 311 312 311 313 307 303 307 310 305 303 308 310 310 311 310 310 310 307 305 307 307 306 308 307 308 309 308
311 311 311 310 309 308 308 308 309 310 307 313 312 313 321 315 319 315 307 307 309 307 312 312 313 310 318 309 310 312 307 308 300 303 302 301 299 305 310 311 312 311 311 310 311 310 310 308 306 306 305 309 309 310
310 310 309 309 309 308 308 309 310 310 318 313 315 320 320 315 310 306 304 307 306 306 313 310 312 313 316 317 313 310 304 305 297 305 300 293 301 309 309 308 309 311 310 309 310 310 309 309 310 311 310 310 310 312
308 308 308 307 307 308 309 309 309 310 311 321 314 311 310 309 298 300 298 304 306 311 314 313 313 317 318 318 312 308 301 298 306 299 297 298 307 310 310 309 308 311 310 312 310 311 311 311 312 311 309 311 312 308
309 309 308 307 308 308 309 309 309 311 312 311 307 293 303 302 304 307 308 311 314 315 311 314 314 314 313 306 308 299 302 302 294 293 294 303 310 307 311 310 308 308 310 309 310 310 308 308 310 312 312 311 311 307
308 308 310 310 310 310 309 309 309 313 313 308 307 295 303 307 309 312 316 314 315 316 315 316 316 314 309 306 305 300 295 291 295 295 301 310 310 311 311 310 309 308 308 307 307 306 307 307 307 308 310 309 309 310
308 307 310 309 309 309 308 308 311 314 313 309 308 304 307 305 306 308 313 313 316 317 319 317 310 307 303 302 296 292 291 291 297 302 309 310 311 311 310 309 308 307 307 306 306 306 306 306 305 306 307 307 306 308
307 314 309 309 308 309 309 312 316 311 309 307 306 309 307 307 306 308 309 309 316 317 311 312 303 302 302 294 293 298 295 302 305 307 311 313 311 310 309 307 306 306 305 305 305 305 307 306 306 305 304 306 306 307
313 310 310 309 308 314 317 313 312 310 306 308 305 307 309 310 309 310 312 318 319 316 317 309 312 303 295 291 295 302 306 308 310 309 313 312 312 311 308 306 306 306 305 305 305 305 305 305 305 305 304 304 304 303
307 308 309 309 311 309 309 312 312 305 308 310 310 311 311 311 313 314 315 322 322 318 317 311 303 299 299 302 304 306 308 308 308 310 311 312 311 309 307 307 306 305 305 305 305 303 304 306 305 302 302 303 301 302
307 308 309 309 308 309 307 309 317 309 306 309 312 310 312 312 315 316 319 315 316 319 312 308 307 306 308 309 310 309 311 310 308 306 307 309 309 309 306 305 303 305 304 306 305 302 303 305 304 303 302 301 300 302
309 313 311 313 309 310 311 310 310 310 311 309 311 311 312 317 310 309 311 321 317 314 311 314 311 312 314 314 315 316 309 312 308 306 304 305 305 306 305 305 305 303 302 302 302 301 302 301 303 303 302 301 303 307
315 311 315 314 312 312 311 314 310 313 310 310 310 312 311 310 310 315 321 316 315 313 316 315 318 318 317 315 315 315 315 313 310 303 300 301 304 303 302 303 303 302 302 302 302 303 305 307 306 304 302 301 301 301
311 311 312 313 308 306 304 315 309 311 306 309 314 311 312 310 310 318 315 316 315 317 320 319 318 319 318 317 316 315 313 309 305 304 304 304 304 305 304 303 304 302 302 303 304 305 304 301 303 305 303 303 303 302
306 310 308 306 307 302 311 309 313 310 311 310 310 306 309 310 319 315 308 310 314 316 315 316 315 312 313 315 310 309 309 308 305 305 306 304 302 304 304 303 304 304 304 305 305 305 304 305 301 302 303 301 302 300
300 299 303 294 310 306 304 306 308 308 307 308 308 307 310 317 310 308 306 308 312 312 312 314 313 313 308 309 308 307 309 306 304 304 306 305 304 304 303 303 304 304 305 303 304 303 303 304 302 302 300 299 299 300
295 305 298 305 305 304 305 302 305 305 307 306 308 313 314 308 302 303 309 310 311 312 312 313 311 311 310 309 305 304 306 307 306 303 304 305 305 304 302 302 301 302 306 305 303 302 301 302 302 301 301 300 295 299
297 302 308 312 309 308 307 309 310 306 304 304 310 309 308 302 302 308 313 315 313 314 316 316 315 313 307 306 307 307 307 307 307 305 306 307 308 308 306 304 302 304 307 305 305 303 302 302 301 301 301 301 301 301
307 307 303 307 307 308 304 305 305 304 306 312 311 305 303 304 307 313 315 317 317 317 314 313 311 309 308 307 307 307 306 307 306 306 305 306 308 308 307 307 306 296 305 304 304 305 304 304 302 301 301 301 302 302
307 310 309 305 307 307 307 305 306 310 317 314 311 307 308 315 317 315 315 314 313 311 308 306 307 308 308 308 307 306 306 305 303 300 300 300 302 303 306 304 303 305 305 303 292 296 301 301 302 302 303 303 303 303
307 311 307 306 304 303 307 310 309 313 317 316 318 316 316 317 318 318 314 312 309 307 307 307 307 306 305 305 304 305 306 306 306 304 302 302 303 305 306 306 306 306 306 305 303 302 295 300 299 303 303 303 303 303
311 310 308 307 305 308 309 311 312 317 317 317 317 315 313 315 317 317 314 313 311 310 308 306 305 307 306 305 305 304 303 306 307 307 306 306 306 305 305 306 306 306 307 307 307 305 304 303 303 303 303 302 302 301
310 308 306 303 305 310 313 313 313 316 314 318 316 317 315 314 312 315 318 314 312 311 308 308 308 308 310 310 310 309 300 308 308 307 307 305 306 306 307 306 306 306 306 306 306 305 304 303 304 303 303 302 303 302
309 308 308 306 306 307 311 312 313 314 315 314 314 315 312 312 310 314 321 321 317 314 313 313 313 313 313 312 312 310 305 310 306 297 296 297 301 303 306 306 306 306 306 305 305 305 304 304 303 303 303 302 303 302

GFSWCAN_sfc_thetae_081.txt.gz
Theta_e
313 314 314 314 315 315 315 316 318 316 312 312 314 313 314 315 316 314 316 325 318 313 314 313 312 310 308 308 302 304 302 303 299 295 297 297 294 297 293 295 294 293 290 289 291 287 286 305 302 297 302 303 304 304
313 313 313 313 314 313 314 315 317 316 312 313 313 313 314 314 315 315 317 327 326 315 315 319 316 319 316 314 308 305 303 304 303 299 299 300 296 296 295 289 298 289 297 292 294 294 303 305 304 306 306 303 304 303
313 312 312 312 312 313 314 315 316 315 312 313 313 313 313 314 314 313 314 321 321 314 313 312 308 314 315 314 314 306 308 309 307 307 302 301 296 299 292 294 296 299 300 295 296 300 303 304 306 306 307 304 306 305
312 312 312 312 312 313 313 315 316 315 312 312 313 312 312 313 313 313 314 319 319 316 308 309 317 314 317 314 315 315 312 311 310 307 300 300 297 303 297 298 297 300 301 297 297 299 301 304 306 305 304 306 306 305
312 312 312 312 311 312 313 314 316 313 312 312 312 312 312 312 312 311 315 320 323 316 309 311 315 315 315 315 315 315 313 310 308 304 301 299 302 302 301 300 297 301 301 296 295 304 303 304 307 307 304 303 305 303
312 312 312 312 312 313 313 314 314 311 312 312 312 312 312 312 311 313 315 322 319 322 311 307 315 314 314 314 314 313 313 311 309 305 303 305 307 302 296 295 302 304 306 305 302 306 308 308 309 311 306 305 306 305
312 312 312 312 312 313 313 314 311 310 312 312 312 312 311 311 309 312 312 315 310 321 312 308 307 314 315 315 313 312 313 311 309 307 304 303 304 303 298 293 302 304 305 307 306 305 304 307 306 308 310 308 309 306
311 311 311 312 312 313 313 311 309 308 311 312 312 311 311 310 309 310 318 311 311 315 316 306 308 309 315 308 307 314 309 309 309 306 307 305 305 303 296 301 304 306 307 306 308 308 306 307 308 308 310 310 305 304
310 310 311 311 311 312 311 310 309 310 311 311 311 311 311 309 314 319 319 318 321 317 309 309 305 303 314 310 312 311 309 303 312 304 305 306 301 293 300 302 304 306 305 303 306 306 308 307 305 307 306 307 304 303
311 310 311 311 312 310 309 308 309 309 309 310 308 311 311 317 319 320 317 314 314 314 313 308 314 307 312 309 308 308 309 305 300 304 309 301 298 305 307 308 308 311 307 306 302 304 305 305 305 306 307 306 305 305
311 311 311 310 309 308 308 308 308 309 308 310 311 313 320 316 318 315 307 306 308 305 310 309 308 307 314 306 307 310 305 305 297 302 300 297 296 303 309 309 311 309 309 307 307 307 306 306 306 306 305 306 306 306
309 309 309 309 308 308 308 308 309 308 314 309 309 314 321 315 311 305 304 307 305 303 312 309 311 312 315 315 307 308 303 304 296 305 298 291 300 306 310 308 308 308 308 308 310 309 309 309 308 307 306 305 306 308
309 308 309 309 309 309 309 309 309 309 309 317 312 311 309 308 294 298 297 301 303 310 313 312 311 315 314 312 306 304 299 298 305 297 292 296 304 303 305 305 309 308 310 310 308 308 309 310 310 309 308 309 309 309
309 310 311 310 309 309 309 309 309 310 309 310 307 290 301 300 302 304 304 308 312 311 308 312 308 310 312 307 307 298 300 300 293 291 293 302 304 304 304 307 310 308 308 307 307 308 308 307 306 308 309 307 308 308
308 308 310 310 310 311 310 309 309 311 310 308 307 292 301 306 308 309 312 311 310 315 309 308 307 310 306 304 301 298 294 291 293 295 301 305 307 308 308 308 304 305 305 304 305 305 305 305 304 304 305 306 306 306
308 307 310 310 309 309 309 308 308 310 312 308 307 303 307 305 305 308 310 313 313 314 313 310 307 304 302 301 295 293 292 290 297 303 307 308 308 308 307 307 306 305 304 304 303 303 303 303 302 303 304 304 303 303
306 312 309 309 309 309 309 310 312 308 307 306 304 308 306 306 305 307 310 310 320 315 311 311 302 301 302 296 294 298 294 301 303 307 309 309 308 308 307 306 305 304 304 303 302 302 302 304 304 303 301 301 301 302
308 310 310 309 309 310 314 309 310 309 304 307 304 306 308 309 310 310 312 316 319 316 315 308 312 303 299 294 296 301 304 308 309 309 309 310 309 308 307 304 304 304 302 303 303 304 304 303 300 299 299 300 299 300
308 308 308 309 308 305 308 312 312 303 305 309 311 312 311 312 317 318 318 317 320 321 316 310 305 301 301 303 304 306 308 307 306 309 310 311 310 307 305 307 306 305 306 303 302 303 303 302 300 299 300 300 300 301
307 308 309 309 308 306 306 308 317 309 305 309 311 310 313 313 314 316 314 312 310 310 308 306 306 308 309 308 309 311 310 312 308 307 307 306 307 308 304 303 303 303 303 301 301 301 302 301 300 299 300 300 301 301
308 311 309 309 308 306 308 309 310 310 311 308 311 310 310 316 312 310 312 312 307 306 307 311 312 314 317 315 317 316 314 312 307 306 307 305 307 307 305 306 304 303 301 301 300 300 300 300 299 300 299 300 302 303
312 310 313 312 311 311 309 313 308 312 310 309 309 311 310 312 312 309 316 311 310 312 316 316 315 317 316 315 316 314 314 311 306 301 300 300 303 302 302 302 301 301 300 301 301 301 302 303 303 303 302 300 300 300
310 311 311 311 307 303 302 315 307 310 305 308 313 310 311 311 314 316 310 313 316 322 320 319 318 319 316 317 316 315 314 311 306 304 305 303 304 305 303 303 303 302 301 301 303 303 303 300 300 302 302 302 301 301
309 309 307 306 304 299 309 307 310 309 310 307 309 305 305 310 314 308 305 310 313 318 316 316 315 313 315 314 310 310 309 311 306 307 306 303 301 304 303 302 303 303 304 304 303 303 303 303 301 301 302 301 300 299
299 297 300 290 307 305 303 304 305 307 305 307 306 304 305 314 308 306 306 308 311 313 313 315 312 313 309 310 309 308 310 307 303 303 306 305 303 303 303 302 303 304 305 303 302 302 301 302 301 301 300 298 298 300
293 302 296 303 304 302 303 302 305 305 306 305 307 312 315 308 303 304 307 310 311 310 312 313 312 311 310 308 305 303 306 309 308 303 305 304 304 303 301 300 299 302 305 304 302 301 301 301 301 301 300 298 294 300
295 301 306 311 308 308 306 308 307 306 305 304 310 309 307 302 302 307 313 315 313 315 317 317 313 311 309 306 307 308 308 308 310 305 307 306 306 307 304 303 301 303 306 305 304 303 301 301 300 300 300 300 300 300
304 307 302 306 306 308 304 304 304 303 306 312 311 306 303 303 306 314 315 317 317 317 316 317 315 315 307 306 306 306 307 306 306 306 306 306 307 307 305 304 304 299 303 303 304 303 302 303 302 301 301 300 300 301
303 308 308 305 306 306 306 306 306 309 316 312 311 309 308 314 317 315 317 317 318 316 311 307 307 307 307 307 307 306 305 303 302 301 300 298 300 302 303 302 302 304 303 301 292 297 301 300 301 301 303 302 303 303
304 309 306 306 304 302 307 309 309 314 317 318 318 317 315 315 319 317 314 314 311 310 308 307 307 306 304 303 303 303 305 305 304 302 300 300 301 304 303 303 304 304 303 301 300 299 295 298 298 302 302 303 302 302
310 309 307 306 304 308 309 312 312 315 318 316 314 311 313 312 316 316 314 314 312 311 308 306 305 306 305 304 304 303 302 305 308 308 307 306 305 305 305 306 306 307 306 304 303 301 300 300 302 302 302 302 301 300
307 307 306 305 306 311 313 309 310 317 315 313 308 309 313 310 308 315 318 315 311 308 307 307 306 306 308 307 308 307 303 306 307 307 309 306 306 306 306 306 305 305 306 306 305 305 304 304 303 303 303 303 303 303
309 308 309 307 307 307 309 313 313 313 313 311 310 312 312 310 308 312 320 320 316 313 312 312 312 311 313 314 313 309 305 309 305 299 297 298 303 304 305 305 305 306 306 305 305 304 304 304 303 304 304 303 303 303

GFSWCAN_sfc_thetae_084.txt.gz
Theta_e
313 313 313 313 314 315 314 314 314 317 316 313 313 314 314 314 315 309 308 312 309 303 306 308 306 302 303 300 295 297 296 298 293 290 291 287 286 289 287 291 289 289 284 282 286 282 283 302 302 294 297 299 302 303
313 313 313 313 313 313 313 313 314 317 315 313 313 313 313 314 314 313 309 315 316 306 307 311 311 309 310 307 301 297 298 297 296 293 293 293 289 291 289 283 293 286 292 288 290 289 298 301 301 302 303 301 300 303
313 313 313 313 312 311 313 313 315 317 315 312 313 313 313 313 314 311 305 309 311 306 306 305 305 305 308 307 308 300 300 301 299 299 295 294 291 292 287 288 291 295 295 290 292 297 298 300 303 304 303 303 303 303
312 313 313 313 313 312 312 312 315 316 313 312 313 312 313 313 313 312 305 309 310 307 301 303 308 306 308 307 309 308 305 304 303 298 292 292 292 296 291 293 291 295 295 292 291 295 297 302 302 303 302 304 304 302
312 312 312 313 312 312 311 312 314 316 312 312 312 312 312 312 312 307 304 308 313 308 301 303 309 307 307 307 308 308 304 302 300 297 294 293 296 296 294 294 291 296 295 291 291 298 297 297 301 303 301 302 302 301
311 312 312 312 312 312 312 312 314 314 311 311 312 312 312 311 310 308 307 313 310 312 304 298 307 304 305 307 306 304 305 303 301 298 295 298 300 296 290 286 296 298 301 300 298 301 302 305 308 308 302 301 303 301
311 312 312 312 312 312 313 313 314 311 311 311 311 311 311 310 304 306 308 312 309 310 305 301 301 305 307 306 304 304 304 303 301 298 297 297 298 298 291 286 297 299 300 302 303 302 299 303 301 307 307 305 307 303
311 311 311 312 312 312 313 314 311 309 310 311 311 311 310 310 307 304 308 310 307 308 308 300 300 302 305 300 299 304 301 301 301 299 299 298 298 296 289 296 298 301 301 301 303 303 302 302 303 304 306 306 303 302
310 310 311 311 311 312 313 311 309 310 310 310 310 310 307 305 304 311 318 314 312 309 302 302 297 298 306 302 303 303 301 296 303 297 297 299 293 289 295 297 299 302 301 301 304 303 302 302 302 303 304 304 302 300
311 311 311 311 311 311 310 309 309 309 309 310 308 307 305 311 318 318 311 307 306 306 304 300 305 301 305 302 300 302 301 298 294 299 302 294 294 298 300 302 303 303 304 304 298 298 298 299 301 302 302 307 306 305
310 310 310 310 309 309 308 308 308 309 310 308 306 307 316 317 310 307 300 300 301 298 302 302 302 300 310 300 301 306 301 300 289 295 296 288 293 300 305 305 305 306 304 303 302 303 303 302 302 303 303 307 307 306
308 308 308 308 308 308 308 308 308 306 307 305 305 308 310 308 304 298 297 302 301 298 304 302 304 303 306 308 303 303 299 301 294 303 297 289 296 300 302 304 306 303 303 304 305 305 305 306 306 304 304 303 307 307
309 310 308 307 308 308 308 308 308 308 307 307 305 304 306 300 291 294 292 296 297 303 306 308 305 306 308 306 299 298 297 297 302 296 290 293 298 300 300 303 304 304 305 305 304 305 305 305 309 307 306 306 306 305
308 309 309 310 308 308 308 308 308 307 304 303 303 290 296 294 297 298 298 301 305 306 306 307 305 304 304 300 299 295 299 299 293 290 290 296 296 298 302 303 305 303 304 303 304 305 303 304 305 307 307 307 308 306
308 308 308 309 310 309 310 309 308 304 303 302 302 289 296 300 301 303 307 305 308 308 305 302 301 304 302 300 299 297 294 291 291 288 293 297 299 303 300 302 299 299 298 298 299 299 300 300 300 301 302 301 300 301
308 308 307 310 309 309 309 307 304 303 304 304 301 298 300 298 298 299 303 304 311 310 308 303 299 300 299 299 295 293 292 288 290 296 299 301 305 302 298 299 298 298 297 296 297 297 298 298 298 298 298 297 297 298
307 308 309 309 309 309 308 305 305 303 303 303 299 300 299 298 297 299 301 305 312 307 301 302 297 296 297 293 292 296 291 293 298 302 303 300 300 299 297 297 298 298 297 296 296 296 297 298 297 295 293 294 295 296
304 307 309 309 308 308 310 306 306 307 302 302 298 299 301 302 301 301 309 311 309 308 306 300 302 295 292 289 291 294 297 299 304 302 304 301 299 298 298 296 297 298 296 296 297 297 297 295 293 293 293 294 295 296
305 304 307 308 306 303 304 308 308 300 300 301 302 303 304 304 310 310 307 307 308 310 306 302 298 297 295 297 296 297 298 301 301 302 302 301 300 299 298 297 298 297 296 296 296 296 295 294 293 293 295 295 294 297
307 307 308 308 308 303 303 304 309 302 300 302 302 302 303 303 309 308 307 305 304 306 303 302 302 301 301 301 301 301 302 305 305 301 299 300 303 299 297 295 296 295 294 295 296 296 294 293 293 293 293 295 294 294
307 309 309 307 304 302 302 303 306 304 305 303 304 303 304 307 304 304 307 306 304 302 302 306 308 310 307 304 305 305 301 306 304 304 302 298 299 298 296 298 296 295 294 294 294 295 295 293 293 294 294 294 297 300
308 310 307 306 305 307 302 305 302 304 302 302 302 303 300 306 304 304 309 305 304 304 306 306 307 307 305 306 303 301 300 296 294 297 300 300 297 295 297 297 295 294 294 294 294 294 295 296 295 296 296 295 295 296
307 307 305 308 305 301 296 307 302 303 300 301 306 306 302 302 307 311 305 308 309 313 310 308 308 308 307 306 306 304 300 298 295 294 295 295 294 296 297 296 297 295 294 294 295 297 297 297 297 296 297 296 295 295
309 305 305 302 301 294 303 302 307 304 306 300 302 303 303 305 308 304 302 306 310 311 309 308 308 306 306 305 305 304 299 297 295 296 295 294 294 294 297 297 296 296 296 296 297 296 296 296 297 296 296 296 295 294
297 296 295 289 300 301 301 300 301 301 300 302 303 303 304 305 302 302 302 306 309 310 307 307 305 305 303 302 301 298 300 297 295 294 295 295 295 294 293 295 296 297 298 296 295 297 296 296 296 296 296 294 293 294
292 297 293 299 299 298 300 301 303 302 302 302 304 307 308 302 299 300 301 304 305 309 310 306 305 304 303 303 299 297 296 298 297 295 295 296 296 296 293 294 294 295 297 297 296 296 296 295 295 295 295 294 294 295
292 297 301 304 302 302 302 305 305 301 300 301 303 303 302 299 300 301 306 307 306 307 310 309 308 306 307 303 298 297 298 298 298 297 296 297 297 299 298 295 293 295 297 298 297 296 295 295 296 296 295 295 295 295
300 301 298 301 301 303 300 300 300 301 301 309 307 303 300 301 301 306 307 309 309 309 310 310 309 308 303 299 300 298 296 297 297 296 297 298 297 298 298 297 297 296 297 297 297 297 297 297 296 296 295 294 294 296
300 303 303 300 302 302 302 301 300 304 307 307 306 304 303 306 309 308 309 310 310 309 306 299 300 303 300 298 298 299 297 296 295 293 292 291 293 294 295 295 295 295 294 293 294 295 297 296 296 297 298 297 296 297
299 303 299 301 300 300 303 304 302 305 308 310 311 308 307 309 312 312 308 309 307 304 301 301 301 300 298 298 295 294 296 296 297 296 294 293 294 296 294 295 296 296 294 293 292 292 293 294 293 295 295 296 295 295
303 302 300 301 300 303 306 305 305 313 312 308 308 307 307 311 313 313 310 305 303 301 301 299 299 300 299 297 296 295 294 296 298 298 298 298 299 298 297 297 298 298 295 295 294 293 293 293 295 295 295 296 295 295
302 301 300 301 303 306 307 304 302 308 309 308 307 308 309 309 307 310 315 313 306 301 301 300 299 299 301 302 302 301 298 300 300 300 299 299 300 300 300 299 298 300 299 298 297 296 295 295 295 296 297 298 297 297
303 304 303 302 301 301 303 303 308 307 307 306 306 309 310 307 306 310 316 316 311 311 312 308 308 306 303 302 303 303 300 302 301 298 297 297 297 298 298 297 298 300 300 299 299 298 298 298 297 297 298 298 298 298

GFSWCAN_sfc_thetae_087.txt.gz
Theta_e
313 314 314 314 314 313 313 314 313 314 317 315 313 314 314 314 314 308 306 308 306 300 302 307 306 301 300 297 293 295 295 296 291 290 289 284 284 288 285 290 288 287 282 280 283 281 282 300 300 291 296 298 301 306
313 313 313 314 314 313 312 313 313 314 316 314 313 313 313 313 314 311 305 309 312 303 303 308 308 309 308 305 298 295 296 295 294 292 292 290 287 289 285 282 290 286 291 287 289 287 295 299 299 300 299 299 299 301
312 313 313 313 313 313 312 312 312 314 316 314 312 313 313 314 313 310 303 306 307 304 304 305 304 306 305 306 306 300 298 298 296 297 294 292 289 290 286 287 288 292 294 288 291 295 297 299 300 300 300 301 303 304
312 312 313 313 313 313 312 312 312 314 316 312 312 312 313 313 312 311 302 304 308 305 299 302 310 302 305 306 307 306 303 301 299 295 290 291 291 294 289 291 290 294 293 290 290 293 296 300 300 300 302 303 302 304
311 312 312 313 313 313 312 312 312 314 315 311 312 312 312 312 311 306 302 305 308 306 301 301 307 307 303 307 306 304 303 301 297 295 292 292 293 293 292 292 289 295 293 290 290 294 295 295 299 303 301 302 302 301
311 312 312 312 312 312 312 312 313 315 311 311 311 312 312 311 310 307 305 310 308 309 302 298 305 303 303 305 305 303 302 300 298 296 294 295 298 294 289 284 294 296 298 298 297 299 300 301 304 305 302 301 302 301
311 311 311 312 312 312 312 313 313 313 310 311 311 311 311 310 303 306 306 310 307 308 303 300 300 304 304 303 302 302 302 300 299 296 295 296 296 295 289 284 294 297 299 300 301 301 298 302 301 306 307 306 305 302
311 311 311 312 312 312 312 313 314 310 310 311 310 310 310 310 308 304 308 309 307 307 306 299 299 300 303 299 298 301 300 299 298 296 297 297 296 294 288 294 296 298 300 301 301 301 300 300 302 303 304 305 303 301
311 310 310 311 311 312 312 312 310 309 310 310 310 310 306 305 305 309 315 313 312 308 301 300 296 295 304 300 300 301 299 295 299 295 295 297 291 289 295 296 298 300 300 301 302 302 302 300 301 301 302 301 301 300
311 311 311 311 311 311 310 309 309 309 309 310 308 308 305 309 318 316 310 305 305 304 303 298 303 299 301 299 299 301 302 299 292 296 299 293 292 296 299 299 300 302 304 302 297 296 296 297 300 300 301 303 302 302
309 309 310 310 309 308 308 308 308 309 309 307 307 308 312 315 309 306 299 298 299 297 300 301 301 299 305 298 301 305 300 296 291 293 295 288 291 297 302 302 303 302 303 302 300 299 301 301 300 301 302 303 304 304
308 307 307 308 308 308 308 308 308 306 306 305 304 307 308 306 302 298 296 297 297 296 301 300 301 300 304 304 301 299 295 296 291 301 297 289 294 299 300 303 304 304 304 302 303 303 303 304 303 303 303 302 304 304
308 308 308 308 307 308 308 308 308 308 307 306 306 303 304 299 291 293 289 293 295 301 303 304 301 302 302 302 298 298 295 293 300 296 291 292 296 301 299 300 302 302 303 304 304 304 304 303 305 306 306 306 303 303
308 308 308 308 309 308 308 307 307 305 303 301 300 288 294 293 295 295 296 297 301 304 304 303 304 303 301 299 297 293 294 296 293 290 290 294 297 298 298 301 301 301 302 302 302 302 302 302 302 305 307 306 305 303
308 308 308 308 309 309 309 309 307 302 301 300 300 288 294 298 299 301 302 302 305 306 303 300 299 301 298 295 295 294 294 292 293 290 291 296 296 297 300 301 297 298 298 299 300 300 298 298 300 301 300 299 298 300
308 307 307 309 308 309 309 307 302 301 301 300 299 296 297 296 296 296 299 300 306 305 302 300 296 296 295 294 292 292 292 289 289 293 296 297 297 298 297 296 297 296 295 295 295 296 297 296 295 293 294 294 294 295
307 305 308 308 309 308 307 304 303 300 299 301 299 299 298 297 297 297 298 304 307 303 298 298 295 294 295 290 289 295 291 291 293 297 298 298 299 296 295 295 296 296 295 294 294 295 295 294 294 293 292 293 294 295
303 308 309 308 308 308 308 305 306 305 300 302 297 298 298 299 298 299 306 308 306 303 304 301 299 293 291 289 290 294 295 296 298 299 299 298 297 296 296 295 296 295 294 295 296 295 294 293 291 291 291 293 293 294
306 304 306 307 306 301 303 305 305 300 300 301 300 300 301 301 303 305 306 306 305 306 303 300 295 293 294 297 296 295 296 298 298 299 300 298 297 296 295 295 295 294 295 295 294 293 293 292 291 291 292 292 291 293
307 307 308 308 307 302 301 303 309 300 298 300 300 299 299 299 305 305 304 302 301 301 299 298 298 300 300 300 299 299 299 301 302 298 297 297 298 295 294 296 294 293 294 294 293 293 291 291 291 291 292 293 291 293
306 308 309 306 303 301 300 301 303 304 301 300 301 301 300 304 302 302 302 303 300 298 298 303 303 305 304 305 302 301 301 305 304 302 301 297 296 295 293 293 292 293 293 292 292 291 292 290 291 292 292 293 293 296
306 310 306 306 304 304 298 302 300 301 299 299 299 300 298 301 301 301 303 301 300 302 303 303 304 304 303 302 300 302 303 302 302 301 299 298 294 292 293 294 293 292 293 293 292 292 293 293 294 294 294 294 294 292
306 306 304 305 302 300 297 303 300 300 297 299 302 301 302 300 302 306 300 303 304 307 308 306 304 304 303 300 298 295 296 298 297 298 298 298 295 296 295 295 294 294 292 292 293 294 294 295 295 295 295 294 293 292
307 304 304 301 300 295 300 298 303 302 304 298 298 300 301 302 304 299 298 301 307 308 305 304 304 302 301 300 297 299 300 296 293 292 294 295 292 292 296 296 294 294 295 294 293 295 295 296 295 295 294 294 293 292
296 296 296 288 298 301 299 299 298 298 298 300 303 302 303 302 298 302 299 301 304 305 304 304 303 303 300 299 300 301 299 295 294 292 291 293 293 292 292 293 294 294 294 294 294 295 294 295 295 295 295 294 293 293
292 299 292 297 296 296 300 299 300 301 302 302 303 306 304 299 296 298 299 302 303 305 304 305 304 301 300 301 298 295 297 294 294 293 293 293 297 297 295 293 292 294 295 296 295 296 296 295 294 295 292 293 293 293
293 297 299 300 299 299 301 304 304 300 300 301 302 303 301 296 298 300 303 304 304 306 309 307 307 306 304 302 299 296 295 295 296 298 296 295 294 296 298 296 295 297 297 297 296 296 295 295 294 294 293 293 293 294
298 298 296 298 299 300 299 300 298 298 302 304 303 299 301 300 299 303 305 307 306 307 307 307 306 306 304 303 302 296 294 293 294 294 295 295 293 294 295 295 296 294 297 297 296 295 295 295 295 295 294 293 293 294
298 300 299 297 299 299 299 299 299 300 304 304 303 303 303 308 307 306 306 306 306 307 304 303 300 299 300 299 297 294 295 297 295 293 292 291 291 293 293 295 295 295 295 295 294 295 296 296 295 295 295 294 294 294
296 300 297 298 298 297 300 301 300 302 305 306 307 305 304 306 308 310 307 306 305 305 304 302 297 298 297 297 293 292 293 296 297 296 294 293 294 295 293 293 294 293 292 293 292 291 293 293 292 293 294 294 294 294
299 298 297 296 297 300 302 303 302 307 307 305 305 303 303 305 308 311 312 311 304 298 297 296 295 298 298 296 296 295 293 294 295 297 298 297 295 296 295 294 294 294 293 293 292 292 292 292 292 293 294 294 295 294
297 297 296 295 297 302 303 301 300 304 304 303 303 305 308 309 306 309 314 311 302 298 299 299 299 297 300 301 302 301 297 301 298 298 297 296 296 297 296 295 295 295 293 293 293 292 292 293 293 293 294 295 295 294
298 298 299 298 298 298 300 301 303 302 303 303 304 306 306 304 304 309 314 314 311 309 309 310 309 309 304 301 301 300 297 300 298 296 295 295 295 296 297 296 296 298 297 295 294 294 294 294 293 294 294 295 295 296

GFSWCAN_sfc_thetae_090.txt.gz
Theta_e
312 313 314 314 314 314 313 312 313 313 314 317 314 313 314 314 314 307 305 307 304 299 300 306 304 299 298 295 292 294 294 295 290 290 288 283 283 286 284 288 287 286 282 279 283 282 282 299 299 292 296 300 304 307
313 313 313 314 314 314 313 312 312 312 314 317 314 313 313 314 314 311 304 307 309 302 302 306 307 307 306 304 297 294 294 293 293 291 290 288 285 287 284 280 290 285 290 286 287 287 294 297 297 300 300 301 303 305
312 312 313 313 313 314 313 313 312 312 314 317 312 312 313 314 313 309 301 304 305 303 300 303 302 305 304 304 304 298 296 296 294 295 293 290 288 289 285 286 287 291 292 290 291 295 297 299 301 302 302 302 304 304
312 312 313 313 313 313 313 313 312 312 314 315 311 312 312 313 312 310 300 302 306 303 298 300 311 305 303 305 305 304 301 298 296 293 290 291 289 292 288 290 289 292 293 290 290 293 296 300 302 302 303 304 304 305
311 312 312 312 313 313 313 312 312 312 314 312 311 311 312 312 311 305 300 302 305 305 299 301 304 305 301 305 304 303 302 299 296 295 292 291 291 292 290 291 289 294 292 289 289 295 296 297 300 303 302 303 303 303
311 312 312 312 312 313 313 311 312 313 315 311 311 311 312 311 309 306 303 307 306 307 299 297 303 303 302 303 303 302 301 298 297 295 293 294 296 293 289 284 293 295 296 297 296 297 298 302 305 306 302 302 303 302
311 311 311 312 312 312 312 312 313 314 311 310 310 310 310 310 302 304 304 307 307 306 301 298 300 303 303 302 301 301 301 298 298 295 294 295 294 293 289 284 295 296 298 299 300 301 299 303 301 306 307 307 307 304
311 311 311 311 312 312 312 313 313 313 310 310 310 310 310 309 307 303 307 308 306 305 305 298 298 298 302 297 297 299 298 298 297 295 295 295 294 292 287 293 296 298 299 300 301 301 300 301 302 303 305 305 304 303
311 311 311 311 312 312 312 313 311 310 310 310 309 310 305 303 304 308 314 313 311 305 298 298 294 293 302 298 299 300 298 294 297 294 294 296 290 289 295 296 297 300 299 300 301 301 302 302 301 302 303 303 302 301
310 310 311 311 311 311 310 309 309 309 309 309 306 304 302 307 317 316 310 305 304 304 302 298 300 298 299 297 297 300 302 297 291 294 297 291 290 295 297 299 299 301 302 301 298 297 297 297 300 301 302 303 303 302
308 308 309 309 308 308 308 308 308 308 309 307 304 306 310 314 308 306 301 299 298 297 299 299 301 299 304 297 297 303 300 298 289 292 294 288 291 296 301 301 302 302 302 301 301 300 300 301 301 301 302 303 303 304
309 308 307 307 308 308 308 307 308 307 307 305 305 307 308 306 301 297 295 296 296 295 299 299 300 299 302 302 302 302 298 297 291 298 297 288 294 298 300 301 304 302 303 304 302 302 303 304 303 303 303 303 305 306
308 308 308 308 308 307 307 307 307 308 307 308 308 305 304 299 290 292 289 292 294 299 301 302 300 301 300 300 300 300 296 294 297 295 292 290 296 299 299 300 301 302 303 304 304 304 305 304 306 305 304 305 305 305
308 308 308 308 308 308 308 308 307 306 303 303 299 288 294 291 294 294 293 295 300 303 302 301 300 299 299 298 297 294 295 296 293 291 289 295 296 298 298 300 301 301 302 302 302 302 303 304 302 301 299 300 302 302
307 308 308 307 308 309 308 308 307 301 300 298 299 290 294 298 298 300 300 300 303 304 302 300 299 299 296 296 294 293 294 292 293 291 293 295 296 297 298 298 298 298 299 298 299 298 298 299 298 296 297 296 297 297
308 307 307 308 308 308 308 305 301 300 299 297 296 294 296 295 295 296 297 298 303 302 300 299 295 295 294 293 291 290 289 287 291 293 295 296 296 297 298 297 297 297 296 295 296 297 296 295 295 294 294 295 296 296
307 304 308 308 308 308 307 305 301 298 296 298 296 297 296 296 296 296 295 298 304 302 297 297 294 293 293 290 289 292 290 292 293 294 296 297 297 298 295 296 295 295 295 295 295 295 294 294 294 294 293 294 295 295
303 307 308 307 307 308 307 305 305 304 298 298 296 296 297 298 296 298 301 304 303 301 301 298 297 292 291 289 289 294 295 295 296 297 298 298 297 295 296 295 296 296 295 295 296 295 294 293 293 293 294 294 294 295
305 305 307 307 306 301 302 306 304 298 298 301 299 298 299 299 300 301 303 305 303 303 301 298 294 292 292 294 296 295 295 298 297 297 298 298 296 295 295 296 295 294 294 295 294 294 293 294 294 294 295 294 294 295
308 308 308 308 307 301 300 302 308 299 296 298 297 296 296 297 300 303 302 302 302 301 298 297 297 298 298 301 301 300 298 300 301 298 296 295 295 294 294 294 294 294 294 294 293 293 293 293 294 294 294 294 294 295
305 307 308 306 303 301 300 298 299 302 300 298 299 298 298 302 301 301 300 300 299 297 296 299 300 304 305 302 300 299 301 304 302 300 300 296 296 295 294 294 294 294 294 293 292 292 293 293 293 294 294 295 295 295
304 310 303 305 302 303 296 299 297 299 297 298 298 298 297 298 299 300 301 299 298 300 300 301 303 304 303 301 300 301 303 302 300 298 297 298 293 292 293 293 294 294 294 294 293 292 293 294 294 296 295 297 296 295
307 306 304 304 301 299 297 302 299 299 296 297 299 298 299 299 300 303 299 300 301 304 304 304 305 306 303 300 298 299 302 302 301 299 298 297 295 295 294 294 295 294 293 294 294 294 294 294 296 297 297 296 295 295
307 304 302 301 300 294 300 297 300 300 300 297 296 297 298 300 306 303 300 301 303 305 305 304 302 299 297 297 296 297 297 301 300 298 298 297 294 293 296 296 295 295 296 296 295 295 296 297 296 297 297 296 296 295
295 293 293 288 298 300 298 297 297 297 295 298 301 300 302 305 301 300 299 300 304 303 303 302 302 301 298 296 297 300 298 300 297 296 295 298 294 293 293 294 295 295 295 295 295 296 297 297 297 297 298 297 295 296
288 298 291 294 294 294 297 299 300 300 300 301 303 306 305 301 297 296 299 301 302 303 303 303 302 299 298 299 298 296 296 294 294 295 293 295 298 297 295 294 294 295 295 297 296 297 297 297 297 297 297 296 293 295
292 296 297 298 297 300 299 302 303 302 300 300 303 303 300 296 296 300 303 303 304 305 307 307 305 304 302 301 299 297 296 295 297 298 297 296 297 299 299 297 295 298 298 298 298 299 299 298 298 297 296 296 296 296
296 296 294 296 296 300 297 299 298 297 300 304 304 299 297 299 298 303 305 306 306 307 308 306 306 306 304 303 301 296 294 294 294 294 295 295 294 295 296 297 298 294 299 300 300 299 298 298 298 297 297 296 296 296
295 298 297 295 297 297 297 300 299 300 302 304 302 301 302 305 306 306 306 305 305 307 305 304 304 303 300 299 299 296 295 296 295 294 294 293 294 296 295 296 296 297 298 298 294 297 298 297 297 298 298 297 297 298
295 299 296 296 296 296 299 302 302 304 302 304 305 304 304 304 307 307 305 305 305 306 307 307 303 301 301 299 295 293 295 297 300 298 295 294 295 297 295 295 296 296 296 297 296 295 293 295 294 297 297 297 297 297
297 297 296 296 295 298 300 302 303 304 306 304 304 302 302 304 307 311 311 311 307 301 302 300 297 297 297 295 297 295 294 296 296 299 299 299 297 296 296 296 296 295 296 296 295 295 295 295 296 296 297 297 297 296
296 296 295 294 295 300 302 300 299 301 303 302 302 304 304 305 304 308 312 310 302 299 298 299 298 297 299 299 299 299 296 300 297 297 298 297 297 298 297 296 296 296 296 296 295 295 295 295 295 295 296 296 297 298
296 296 296 296 297 299 301 302 302 301 302 302 304 306 305 303 302 307 313 314 310 308 308 309 310 310 311 310 303 300 297 300 300 295 294 294 295 296 297 296 297 297 297 296 295 295 295 295 295 296 297 297 297 298

GFSWCAN_sfc_thetae_093.txt.gz
Theta_e
311 312 313 314 314 314 315 315 313 313 313 314 317 314 314 314 314 313 314 315 314 308 310 311 308 305 304 304 303 302 303 303 302 300 300 298 300 299 298 299 298 295 296 296 295 293 291 305 305 300 305 309 309 314
312 313 313 313 313 314 314 314 313 312 313 314 317 313 313 314 314 312 314 314 316 312 310 312 314 314 312 311 307 303 305 303 304 302 301 299 298 298 295 294 300 297 300 301 299 299 304 307 307 309 309 308 311 312
312 313 313 313 313 313 314 314 313 312 313 314 317 312 313 314 313 311 310 313 314 312 308 311 311 313 312 312 313 308 306 306 304 306 305 302 298 300 296 296 298 300 301 303 301 305 306 308 309 309 310 310 311 312
312 312 312 313 313 313 314 314 313 312 313 314 316 312 312 313 312 311 308 311 315 312 306 308 316 312 313 313 313 313 309 306 306 306 304 303 301 301 300 300 300 302 302 302 301 303 305 308 310 310 309 311 311 312
311 312 312 312 313 313 314 314 313 312 313 314 313 311 312 312 311 310 309 311 314 313 304 309 312 312 310 314 312 312 311 310 308 305 304 301 302 302 301 301 300 303 303 301 302 308 309 308 311 311 310 310 312 312
311 312 312 312 312 313 313 313 312 312 313 314 311 311 312 311 309 315 310 314 315 317 309 304 311 310 310 312 311 310 310 309 308 308 305 304 303 304 301 300 306 306 306 308 306 308 309 310 311 311 310 310 310 311
312 312 312 312 312 313 313 313 313 313 314 311 311 311 310 309 310 311 309 313 310 316 308 303 307 310 310 310 309 311 310 308 309 306 305 306 306 305 303 301 304 306 307 308 308 309 307 310 310 313 313 312 310 311
311 311 311 311 312 313 313 313 313 314 312 311 310 310 310 309 309 309 314 310 311 313 313 305 306 305 310 307 306 309 308 308 306 306 305 307 304 304 301 306 306 306 306 307 309 309 310 312 311 312 312 311 310 310
309 311 311 311 311 312 312 313 313 312 311 310 309 310 310 310 311 315 313 312 316 312 305 306 304 301 309 306 308 308 308 305 307 305 306 307 304 297 305 307 307 308 307 308 310 309 308 309 310 309 309 309 309 309
308 309 310 310 311 311 311 310 309 309 309 309 309 308 308 315 318 318 315 311 311 309 310 306 309 306 307 306 306 308 308 305 303 305 307 303 302 307 308 309 310 309 310 309 306 306 308 307 307 308 309 310 311 310
309 308 308 308 308 308 307 308 308 308 309 309 308 311 316 314 314 311 306 304 304 302 306 306 308 306 311 306 306 310 305 304 301 303 304 301 295 305 307 308 311 310 310 309 310 311 311 311 309 309 310 310 311 311
308 308 308 308 308 307 308 307 307 309 308 308 308 311 314 311 307 303 301 302 301 299 304 305 306 310 311 312 310 308 304 303 297 306 303 293 303 306 307 307 310 310 310 309 309 309 310 311 311 311 310 311 311 312
308 308 308 308 308 308 307 307 307 308 308 309 310 307 306 304 295 297 294 297 299 304 306 307 306 311 309 311 307 306 300 300 306 301 297 299 306 306 307 308 310 311 311 310 309 311 311 311 312 311 311 311 311 311
308 308 308 308 308 308 308 309 308 307 306 305 302 293 299 297 299 301 300 302 306 309 309 311 308 309 308 306 306 301 302 304 297 294 296 304 306 307 308 309 309 309 310 310 310 310 309 308 306 306 305 306 305 305
307 308 308 307 308 308 308 308 308 306 305 303 304 293 299 304 305 306 306 306 309 311 310 308 307 308 305 302 300 300 297 295 297 297 303 307 308 308 308 308 308 308 308 307 307 306 306 306 305 303 304 304 304 303
307 307 307 308 308 308 308 307 305 306 305 302 302 302 304 302 303 302 304 305 311 311 309 310 305 303 301 302 299 298 296 294 299 304 308 307 307 308 308 308 308 307 307 305 305 305 305 304 303 302 303 303 303 304
307 305 308 308 308 307 307 308 305 301 299 299 300 305 304 303 302 304 304 306 311 309 307 306 300 299 302 299 298 301 299 303 305 305 307 309 308 308 307 306 306 305 304 304 304 304 304 303 303 302 302 302 303 303
304 308 308 307 307 309 309 307 306 305 299 301 299 302 305 306 305 305 307 311 311 310 308 305 305 301 300 297 299 304 306 307 306 307 309 308 309 309 306 306 305 305 305 304 305 304 303 302 302 301 302 304 304 303
306 306 307 307 306 303 303 307 306 299 302 306 307 307 307 307 308 308 309 313 313 313 309 307 303 302 303 305 306 307 305 304 304 306 309 310 310 306 306 306 305 304 304 304 304 303 303 303 303 303 304 305 303 305
308 309 308 308 307 303 299 302 308 303 301 305 305 304 305 306 308 311 311 311 311 311 308 306 306 308 308 311 309 308 307 307 307 305 305 306 306 306 305 305 303 303 304 304 303 299 302 302 303 304 304 303 303 303
306 308 308 308 304 302 300 301 302 306 307 305 308 307 307 308 309 309 308 310 310 309 308 311 313 314 313 314 312 311 309 309 309 309 307 304 304 304 304 304 303 303 303 303 302 300 299 302 302 304 304 305 305 305
306 309 305 306 302 303 301 304 302 305 303 305 305 306 305 306 308 308 309 308 308 311 312 313 312 314 313 312 311 310 311 312 312 306 303 303 302 302 303 303 303 302 303 303 302 301 301 302 303 304 305 305 303 304
307 307 306 305 302 299 297 307 303 305 301 303 306 304 304 305 308 309 308 310 311 315 315 314 315 316 315 313 311 310 311 311 309 309 307 307 306 306 305 304 305 303 302 302 303 302 301 298 301 303 306 305 304 304
307 305 302 300 300 295 303 302 305 303 304 303 302 301 304 306 308 307 305 309 313 316 313 313 312 309 307 307 308 309 310 312 311 309 309 306 304 303 305 304 304 304 304 304 303 302 302 303 301 305 305 304 303 303
296 296 297 289 301 300 299 300 301 302 301 303 302 302 305 309 303 302 304 308 310 312 313 313 312 311 310 309 308 308 309 311 309 308 306 307 305 303 303 304 304 304 304 303 302 302 303 305 305 305 304 304 302 301
289 298 294 298 299 298 299 298 300 300 302 301 302 305 306 303 300 300 306 310 311 313 312 311 311 309 308 310 308 306 305 308 311 309 307 307 305 303 302 301 301 302 304 305 304 303 304 304 304 304 303 302 294 300
291 297 302 305 302 302 300 302 304 304 300 299 301 303 304 299 301 306 310 311 313 315 315 315 313 311 311 308 308 307 304 306 309 308 310 308 308 308 306 304 303 306 306 305 305 305 304 304 304 304 303 303 303 302
299 301 298 301 302 304 300 301 301 300 301 306 306 302 301 302 304 311 312 314 315 317 317 315 315 314 312 311 309 306 303 303 303 303 303 304 305 305 307 307 308 297 306 307 306 306 306 306 305 305 304 303 303 304
298 304 302 299 301 302 302 302 303 305 307 310 305 305 306 310 312 311 315 313 315 316 313 313 313 313 312 311 309 307 305 303 302 301 301 301 300 301 303 304 304 304 306 305 296 302 307 306 306 305 304 304 304 304
300 304 301 300 299 299 303 307 307 308 309 310 311 312 311 311 314 316 314 312 312 312 315 315 313 312 310 310 308 303 303 305 305 304 301 301 302 306 304 303 303 303 305 305 305 304 293 300 297 302 302 303 303 303
303 302 300 300 299 302 304 307 307 307 309 311 311 310 309 312 314 315 313 313 314 312 309 306 305 307 310 307 306 306 305 305 303 303 304 305 304 304 303 304 304 304 304 304 305 304 304 303 303 303 302 302 302 300
301 300 299 298 301 306 307 305 306 307 309 310 310 311 311 311 309 312 314 311 307 307 301 304 302 302 303 305 304 304 296 305 303 302 304 303 303 304 304 303 303 303 304 304 304 304 304 303 302 302 302 302 302 303
301 301 301 300 300 302 306 308 308 308 309 309 309 310 310 309 307 313 318 315 311 308 308 308 309 310 309 310 309 308 302 306 302 296 295 296 297 299 303 304 303 304 304 303 303 303 303 302 301 301 301 301 301 302

GFSWCAN_sfc_thetae_096.txt.gz
Theta_e
310 311 312 313 314 314 314 315 315 315 313 313 315 317 314 314 314 315 323 327 320 315 316 314 312 311 311 310 306 310 307 308 307 303 304 304 303 306 302 304 302 300 299 299 301 297 294 309 308 304 310 314 315 319
311 312 313 313 314 314 314 314 315 315 313 312 314 317 314 313 313 313 320 324 325 318 316 319 319 319 317 316 314 311 310 307 310 307 307 308 303 305 302 299 307 301 304 306 302 304 311 313 313 314 315 314 315 317
311 312 313 313 313 313 314 314 314 314 313 312 314 317 313 313 313 312 318 324 321 316 315 315 314 318 320 318 319 310 314 313 313 316 312 309 301 307 299 299 301 307 308 306 304 308 309 312 314 314 315 314 315 318
311 312 313 313 313 313 313 314 314 314 313 313 314 316 312 313 312 311 316 322 322 316 309 311 321 317 319 319 318 319 317 316 316 315 310 308 304 309 306 306 304 307 308 306 305 309 311 313 314 314 313 314 314 317
311 312 312 312 312 313 313 314 314 313 312 313 315 313 312 312 312 313 317 321 323 317 308 311 318 317 317 319 317 317 317 315 312 309 307 306 310 307 310 307 304 309 306 304 303 308 310 308 314 316 314 313 314 314
311 312 312 312 312 313 313 314 314 312 312 313 314 311 311 311 310 317 311 319 323 324 314 305 317 314 315 318 317 317 317 317 315 311 311 312 311 309 304 304 310 311 312 314 309 314 313 315 315 316 314 315 315 315
310 311 312 312 312 312 313 313 312 312 313 314 311 311 311 310 313 313 312 317 313 325 315 308 309 314 316 317 316 315 318 317 315 314 310 312 310 308 307 304 307 311 313 314 314 314 312 313 312 316 316 316 312 316
309 311 311 312 312 312 313 313 313 313 314 312 310 310 310 310 310 310 318 311 316 318 316 310 309 309 315 311 310 318 313 314 314 314 313 310 311 310 306 311 312 312 312 313 314 315 314 316 317 316 316 314 312 312
309 309 310 311 311 312 312 313 313 313 312 311 310 310 313 313 312 316 313 313 321 317 309 310 307 304 314 313 315 313 315 308 315 309 311 311 310 305 309 312 312 313 312 312 314 314 314 314 314 314 313 311 310 312
309 308 309 309 309 309 309 309 309 309 309 310 310 309 307 316 317 317 319 315 315 315 314 308 316 308 311 310 309 310 313 310 306 310 312 308 308 315 316 315 318 315 315 314 312 311 312 311 311 311 310 313 313 313
308 309 308 308 308 308 308 308 308 308 308 309 308 313 320 314 318 316 309 306 307 304 308 308 312 310 315 308 307 314 309 310 303 308 307 307 302 312 313 314 318 318 316 315 315 315 316 315 312 311 311 312 313 313
308 308 309 308 308 307 307 307 308 309 312 309 313 317 321 316 311 306 303 306 304 301 307 307 309 316 314 320 312 312 307 308 300 311 307 301 308 313 313 313 315 316 316 315 315 315 315 314 313 313 312 313 314 315
308 308 308 308 308 308 307 307 307 309 309 313 314 310 309 308 296 297 296 298 300 306 309 309 308 314 315 316 312 310 303 304 312 304 302 304 314 313 314 315 315 317 316 315 314 315 315 315 316 314 315 315 315 315
308 308 308 308 308 309 308 308 306 307 308 308 303 292 300 299 302 303 302 304 309 312 312 310 310 310 314 311 311 302 308 309 300 299 300 310 314 314 315 315 315 314 315 315 315 315 315 315 313 313 312 311 311 310
308 308 308 308 309 309 309 309 307 307 306 303 304 294 300 306 310 311 311 311 315 317 315 311 311 311 309 307 310 306 302 298 301 301 309 312 315 315 314 315 315 315 315 314 314 312 311 310 310 309 309 309 308 308
307 307 309 308 309 309 309 309 308 306 305 303 305 304 308 306 306 309 309 310 316 313 318 314 309 305 304 307 303 301 300 299 304 309 314 315 316 315 315 315 315 315 314 312 311 310 309 308 307 308 308 308 307 307
307 306 308 308 308 307 308 311 309 305 303 301 302 306 307 308 309 305 308 309 316 314 310 310 303 302 309 304 302 307 304 309 313 312 314 317 316 316 316 315 314 312 311 310 309 308 309 309 308 307 305 307 307 308
305 309 308 308 308 309 310 309 307 305 300 303 301 305 308 309 309 309 310 314 313 311 312 308 312 305 303 300 304 308 311 315 317 315 314 317 318 317 315 313 312 312 310 309 309 309 309 307 306 305 306 307 306 308
308 307 307 307 308 306 306 306 307 299 304 309 309 309 310 309 311 312 314 315 318 321 316 312 306 304 306 311 310 312 314 315 313 313 314 317 318 316 314 313 312 309 309 310 309 307 307 307 306 306 306 306 307 308
308 308 309 308 307 304 300 301 310 306 304 308 309 307 309 309 313 312 312 314 314 313 310 307 308 310 311 313 317 315 318 318 314 308 310 313 315 315 313 311 307 309 308 310 309 304 306 305 306 306 307 308 306 307
305 308 309 308 306 303 301 302 306 308 309 308 312 311 310 311 310 310 311 315 312 310 309 312 313 315 319 321 321 321 319 317 315 314 313 311 313 311 310 308 308 308 306 307 306 304 301 304 305 306 306 306 307 308
310 309 308 307 303 304 304 307 306 309 308 309 309 310 308 309 311 313 315 310 309 311 313 314 315 316 317 321 321 321 320 320 320 315 308 308 309 309 308 308 306 306 306 306 306 304 304 305 306 306 306 306 303 307
307 309 310 307 303 301 300 313 305 306 302 305 308 305 306 309 313 315 309 311 312 317 318 318 320 323 321 322 322 321 320 319 316 315 313 312 312 311 310 308 307 306 306 306 305 305 305 301 302 305 306 305 306 305
307 305 303 303 302 298 307 304 308 306 307 305 304 302 306 311 310 308 307 311 315 319 317 320 319 318 319 319 317 317 318 318 316 315 315 312 310 310 310 308 308 308 307 306 305 305 305 305 302 305 305 305 305 304
296 297 297 292 303 301 299 300 302 303 301 304 303 304 308 313 307 306 307 313 315 317 318 319 318 317 315 316 317 318 319 317 314 313 315 314 312 310 308 308 308 307 307 305 304 304 304 305 305 306 306 305 305 303
292 300 296 301 302 300 300 298 300 302 304 302 304 308 311 306 302 303 311 316 316 318 319 318 317 316 316 318 316 315 316 318 317 314 315 315 313 309 307 305 305 305 308 307 305 304 304 305 305 305 305 303 295 301
292 299 305 309 307 306 304 305 306 304 301 297 298 301 303 301 301 309 318 318 318 319 323 321 319 318 317 317 317 317 317 318 318 316 317 316 315 313 311 307 305 307 309 308 307 306 305 305 305 304 305 305 305 304
302 303 299 304 304 306 301 302 301 299 300 305 304 301 301 302 306 316 317 319 320 322 322 321 321 322 319 317 315 312 314 312 312 313 314 314 315 314 312 311 311 299 309 309 308 308 307 306 306 305 305 305 306 306
301 306 305 301 303 304 304 303 303 305 309 309 304 304 307 314 317 316 318 319 318 320 319 318 317 319 318 316 314 312 310 309 306 304 304 304 307 308 311 311 310 311 310 310 298 303 308 307 307 306 306 306 307 307
302 307 302 302 301 300 305 309 309 312 314 312 312 311 314 316 318 319 317 318 319 319 317 319 319 317 315 313 310 311 311 309 308 307 305 304 305 307 308 308 308 309 309 309 309 308 296 303 300 307 305 305 306 305
308 306 303 303 302 305 307 309 310 311 310 311 316 313 313 317 318 318 317 316 316 318 318 314 313 313 313 312 313 310 308 313 310 308 311 311 311 310 309 309 309 309 309 308 308 308 307 305 306 306 305 305 305 303
304 302 302 300 303 310 311 308 307 308 313 314 313 315 315 315 311 316 318 316 314 313 304 309 305 303 308 310 310 308 301 310 310 311 309 308 309 309 309 308 309 309 308 308 307 307 308 307 306 305 305 305 305 305
304 304 304 303 304 305 308 309 309 311 311 309 309 311 312 311 308 314 320 317 312 309 307 309 311 308 308 309 310 310 304 310 307 299 298 298 298 302 307 308 308 308 308 307 307 306 307 306 306 305 305 305 305 305

GFSWCAN_sfc_thetae_099.txt.gz
Theta_e
311 311 311 312 314 314 314 315 314 315 316 315 314 315 317 314 315 315 322 331 324 316 317 315 315 312 312 312 308 312 309 309 308 305 305 305 303 308 303 306 304 303 301 301 302 298 297 312 310 305 315 317 318 321
311 312 312 313 314 314 314 314 315 315 315 314 313 315 317 313 314 313 317 328 327 320 319 322 320 320 318 318 314 313 312 310 312 308 309 310 305 307 303 299 309 302 306 305 305 306 315 315 316 318 318 317 317 319
311 311 313 313 313 314 314 314 314 315 315 314 313 315 317 313 313 311 318 325 322 318 316 317 314 320 322 320 319 311 313 316 313 317 312 311 303 308 303 303 306 308 312 307 307 310 310 312 315 316 317 316 317 319
311 312 312 313 313 313 314 314 314 315 315 314 313 315 315 313 313 311 317 323 322 320 310 312 322 319 321 320 318 319 320 320 320 314 310 309 306 312 307 308 305 308 311 307 308 311 312 313 315 315 315 315 314 317
311 311 312 313 313 313 313 313 314 315 314 313 314 315 312 312 312 313 317 321 325 319 311 312 319 320 320 320 318 318 317 315 313 310 308 307 313 311 309 309 306 310 308 305 306 312 313 312 316 316 314 314 315 315
310 311 312 312 313 313 313 313 314 314 313 313 314 313 311 311 312 315 312 319 324 323 316 309 319 318 317 319 317 316 317 316 315 312 312 315 315 309 306 306 311 314 314 315 311 315 316 316 317 318 315 316 316 316
310 310 311 312 313 313 313 313 314 312 313 313 314 311 311 311 312 313 313 318 315 326 313 308 311 318 319 318 317 316 317 317 315 315 313 313 313 309 307 306 312 312 314 315 317 317 313 315 314 317 316 317 316 317
309 309 310 311 312 312 313 313 313 313 314 314 311 310 310 310 310 309 318 310 316 319 315 307 309 312 318 312 311 318 314 316 315 314 316 311 314 312 307 312 315 316 315 315 316 317 316 319 317 317 318 317 315 314
309 309 309 310 311 312 312 313 313 314 313 312 311 311 313 311 311 315 316 314 323 319 309 308 307 305 316 313 314 315 316 309 317 311 311 316 310 309 312 315 316 317 315 315 317 316 316 316 317 317 316 314 313 314
309 309 309 309 309 309 309 309 309 310 310 310 310 309 306 313 317 319 319 317 314 312 315 310 313 309 312 312 311 312 313 308 306 312 317 311 309 317 319 320 320 319 318 318 315 313 314 315 314 315 314 315 314 314
309 309 309 308 308 308 308 308 308 308 307 309 308 311 322 317 317 314 307 307 309 306 309 308 312 311 316 309 308 312 310 310 303 308 308 308 309 315 318 319 322 321 320 318 317 317 317 316 314 313 313 313 314 314
309 309 308 309 309 308 307 307 308 308 312 310 314 319 321 315 311 305 303 306 305 302 309 306 308 315 314 319 312 313 308 310 302 313 307 304 312 318 317 317 319 321 320 318 318 317 316 317 316 315 315 314 315 316
309 309 309 309 309 309 307 307 307 309 310 317 314 312 312 308 297 299 297 301 302 307 309 309 305 313 316 316 314 311 305 304 313 307 306 308 317 318 318 318 317 319 318 318 317 318 316 315 316 315 315 317 315 315
309 309 309 309 309 309 308 307 307 308 310 309 304 292 300 299 303 304 304 306 310 310 310 310 310 310 312 310 310 303 308 309 302 300 302 312 319 319 319 318 317 316 317 316 316 316 316 318 317 317 316 316 315 314
309 308 308 309 309 309 310 309 307 309 308 304 304 295 301 308 308 310 311 311 313 315 312 309 310 311 309 306 307 306 303 300 302 303 308 317 321 320 318 318 317 317 316 316 316 316 317 317 315 314 313 313 311 311
308 307 308 309 308 310 309 309 306 307 305 302 305 304 307 306 306 308 310 310 317 319 319 316 310 306 304 306 302 301 300 300 305 310 316 320 321 320 319 318 318 317 316 315 316 316 315 314 312 311 310 311 310 310
306 309 308 309 308 309 309 312 310 305 303 303 303 308 307 308 307 309 311 313 320 318 311 311 303 302 308 303 303 306 304 308 313 314 317 322 322 320 320 319 318 316 316 315 315 315 313 312 311 309 307 309 309 310
309 309 308 308 310 310 315 313 309 307 302 305 303 305 308 310 310 311 315 316 316 315 313 306 310 305 302 301 304 310 312 315 316 316 318 322 323 322 319 318 318 317 316 315 314 312 311 310 308 307 309 309 308 309
309 309 307 307 307 307 305 308 311 301 306 308 309 309 310 310 313 315 314 317 318 319 316 313 308 305 306 310 309 312 313 314 314 317 319 324 323 320 319 318 317 316 314 312 311 309 310 310 308 308 308 307 307 309
307 307 308 308 308 306 300 304 312 305 305 309 311 310 311 311 312 313 314 314 315 315 313 309 309 311 310 313 316 316 317 319 318 315 318 319 319 319 317 315 313 313 311 311 311 306 309 308 308 308 309 308 306 306
308 309 309 309 307 309 307 302 307 309 310 309 310 311 309 312 311 311 310 313 311 311 309 312 313 315 319 324 322 321 321 321 317 316 314 314 316 317 315 314 312 310 309 309 308 307 305 307 307 308 307 306 307 307
310 310 309 309 306 307 306 309 307 311 309 309 311 312 310 310 312 312 315 312 311 311 312 312 314 316 317 321 320 324 322 325 325 319 310 311 314 313 313 312 309 308 309 309 309 307 306 307 308 308 307 307 305 307
309 312 312 306 300 301 303 315 305 307 303 305 307 305 306 307 313 318 312 313 313 317 316 316 321 322 320 322 324 325 326 324 320 320 317 316 317 316 314 312 310 309 308 309 310 308 307 304 304 307 308 308 306 307
309 308 303 304 304 300 309 307 310 308 306 304 304 304 308 312 317 312 307 310 313 317 317 324 319 318 320 323 320 321 322 323 320 319 318 317 314 313 313 312 311 310 310 310 308 307 307 307 304 305 307 306 305 305
296 298 302 293 306 303 300 302 303 303 302 305 304 304 311 314 309 307 308 314 314 316 318 321 321 319 316 316 318 319 324 322 317 315 316 316 313 312 311 312 311 310 310 308 306 306 307 307 306 306 306 306 305 305
292 300 298 302 303 302 303 298 301 303 304 302 305 312 315 309 303 302 309 313 314 316 318 318 318 317 316 320 318 317 320 322 319 313 314 314 313 311 311 309 306 307 310 308 306 306 306 306 306 306 306 304 298 303
292 299 305 310 308 306 306 307 307 304 300 301 305 305 305 300 300 306 315 318 317 318 322 324 321 319 318 318 322 322 321 321 320 317 316 318 315 315 313 309 307 309 310 307 307 307 306 306 306 306 306 307 306 305
303 304 301 307 305 306 302 303 301 298 299 303 304 301 300 301 303 315 322 322 322 324 325 324 323 322 319 319 319 319 319 319 319 319 317 317 318 317 316 314 314 300 310 309 308 308 307 307 307 307 306 306 307 308
303 306 305 302 304 304 304 303 302 303 307 306 304 304 306 314 319 317 320 322 325 322 319 318 319 322 321 320 319 318 318 316 313 310 309 308 311 311 314 313 311 311 310 309 298 303 309 308 308 307 308 307 308 308
303 306 302 302 301 301 305 309 308 309 312 311 313 313 315 319 320 322 320 320 320 321 322 321 321 318 315 314 314 314 314 314 312 310 307 306 309 312 313 312 311 311 310 310 308 307 296 303 302 308 306 307 307 306
305 304 302 302 301 305 309 311 312 312 314 314 317 317 316 319 319 321 319 319 318 318 318 318 319 319 315 314 314 312 309 311 314 313 311 311 311 310 311 312 311 311 310 309 308 308 307 305 307 307 307 307 306 304
303 301 301 300 304 310 312 309 309 309 312 315 313 314 314 317 313 318 317 316 314 313 308 313 314 312 313 309 313 313 306 316 317 316 314 312 312 311 313 311 310 310 310 309 309 308 308 308 308 307 307 307 307 307
304 306 306 305 305 305 309 309 310 311 313 312 311 311 311 310 307 316 318 317 315 314 313 312 311 307 309 309 310 307 308 313 309 301 301 300 301 304 310 312 311 310 309 308 308 307 307 307 308 308 308 307 307 306

GFSWCAN_sfc_thetae_102.txt.gz
Theta_e
312 312 312 312 312 313 314 315 315 315 315 316 317 315 316 318 316 313 316 327 320 318 318 317 314 312 312 311 308 312 308 310 307 304 304 304 302 301 301 306 305 303 302 302 304 299 296 313 311 304 315 318 320 321
311 311 311 312 313 314 314 314 315 315 315 316 316 314 315 317 315 313 313 327 328 318 320 324 320 319 317 318 314 315 312 314 311 307 308 308 304 305 305 299 309 302 308 305 306 307 316 317 319 321 320 318 318 320
310 310 311 313 313 313 314 314 314 315 315 316 316 314 315 317 314 312 313 319 322 313 313 315 315 320 322 319 319 309 314 314 315 316 312 309 305 307 302 303 306 309 313 308 308 313 313 314 315 317 318 317 317 320
310 311 312 312 313 314 314 314 314 315 315 315 315 314 315 317 314 312 313 319 319 317 309 310 318 317 321 320 318 317 318 320 318 316 308 308 305 311 305 309 306 309 312 306 307 312 313 313 314 316 316 315 314 318
311 311 311 312 313 314 314 314 314 314 315 315 314 314 316 315 314 312 314 317 321 317 311 313 317 320 320 319 317 317 316 316 312 310 308 307 311 311 310 308 306 310 308 305 304 315 317 313 317 317 315 313 315 315
311 311 310 311 312 314 313 314 314 315 314 313 313 314 315 313 313 312 310 317 320 321 314 309 318 317 318 318 317 315 316 316 314 311 310 314 316 312 304 305 313 313 314 314 311 315 316 315 318 318 316 316 317 316
311 311 310 311 312 313 313 313 314 314 313 313 314 314 313 312 310 311 310 315 311 325 314 310 310 317 318 316 316 315 317 315 314 312 310 311 313 310 305 305 313 314 315 316 316 317 314 316 315 317 316 317 318 317
311 310 310 310 311 313 313 313 314 314 313 314 314 312 312 311 309 308 316 312 313 318 313 304 308 313 318 311 310 316 313 314 314 312 314 312 315 313 306 312 315 316 316 315 316 317 317 318 318 318 318 318 316 315
311 310 310 309 310 311 312 313 313 314 314 314 313 312 312 309 309 312 319 316 322 317 308 305 303 304 317 313 313 313 315 308 315 310 310 312 309 311 312 315 316 318 316 316 317 317 316 316 317 318 317 316 314 314
311 309 310 309 309 309 309 309 310 311 311 311 311 308 307 311 317 318 318 315 312 311 315 309 311 309 314 310 309 311 312 308 306 311 315 311 310 320 320 320 321 320 319 318 315 314 315 315 315 317 317 317 315 314
311 309 309 309 309 308 308 308 308 308 307 309 308 310 323 317 316 312 305 306 307 302 305 309 312 310 317 307 308 313 308 309 303 309 308 308 307 316 320 320 325 322 321 319 319 318 319 320 315 315 315 315 314 314
310 310 309 309 309 309 308 307 308 308 311 308 309 319 319 311 310 305 303 304 305 301 308 305 307 313 312 320 311 312 308 309 301 312 306 306 311 321 321 319 320 323 320 319 319 319 318 319 317 316 315 315 315 316
310 310 309 309 309 309 308 307 307 308 310 315 312 311 309 308 297 299 297 300 301 306 309 308 306 315 316 316 312 311 305 302 311 306 304 308 321 321 320 319 319 321 321 319 318 318 319 318 317 315 316 318 316 316
310 310 309 309 309 309 309 307 308 309 309 308 304 293 302 300 303 304 304 305 309 310 310 309 307 312 313 309 309 303 306 307 301 300 301 310 322 321 321 320 319 318 318 318 318 317 317 317 318 319 318 317 315 314
310 310 309 308 309 310 309 308 307 311 307 304 304 295 301 307 309 311 312 311 312 313 312 309 307 309 310 307 307 305 301 299 301 301 308 319 325 324 320 319 318 317 317 317 318 317 317 317 316 316 316 315 313 311
310 308 310 310 310 310 310 309 307 308 306 302 303 302 307 306 306 309 310 309 314 314 314 312 309 305 302 304 302 300 299 298 303 312 319 323 325 323 324 320 319 319 318 317 317 317 316 316 315 315 313 311 310 309
308 309 309 309 309 309 309 311 305 303 302 301 303 306 305 307 307 308 312 312 317 315 309 310 300 300 307 302 301 305 302 306 312 315 318 326 326 325 323 321 320 318 318 317 317 317 317 316 315 313 309 310 310 311
307 309 308 309 308 308 312 312 308 305 301 305 302 306 308 309 310 311 312 313 314 315 315 307 309 305 303 300 302 308 311 315 313 316 322 325 328 327 323 321 323 320 318 319 317 316 315 313 310 308 310 311 310 310
310 311 308 307 309 309 309 309 310 303 305 307 308 308 309 310 315 315 315 319 318 316 313 309 302 302 305 311 310 314 314 316 316 318 323 327 327 323 324 322 320 318 317 317 315 312 311 313 310 309 309 309 307 308
308 308 308 308 307 305 301 303 311 306 305 310 311 310 310 310 311 312 313 314 315 309 305 307 305 308 310 310 313 316 317 320 319 317 319 321 322 322 322 319 316 317 315 315 312 306 311 310 309 309 309 308 308 306
306 309 308 309 309 309 305 306 305 308 309 308 311 311 309 312 310 309 310 313 311 310 308 312 314 316 318 317 315 319 322 319 317 318 318 318 319 316 316 317 317 315 311 309 309 308 306 308 308 309 308 307 306 307
310 310 309 310 304 307 307 310 308 312 309 308 309 311 308 309 308 310 314 310 309 310 312 313 316 316 318 315 318 325 325 326 324 318 312 314 316 315 313 314 314 311 309 309 309 309 308 308 309 309 308 307 306 307
309 309 309 309 304 302 300 312 306 306 302 305 308 305 306 308 312 317 312 312 313 316 318 317 322 326 323 326 327 326 326 324 319 318 319 319 319 317 316 315 314 310 308 309 311 310 309 305 305 308 308 307 307 306
308 309 305 304 303 299 308 306 308 305 307 305 304 304 307 311 314 313 308 311 314 317 317 323 320 317 320 325 317 322 323 324 320 319 320 315 313 315 317 315 313 312 311 311 310 309 309 308 305 307 307 306 305 306
298 298 302 294 306 303 302 303 303 303 301 304 303 305 310 316 308 308 307 312 315 317 317 321 318 318 317 316 317 319 326 321 318 318 319 317 316 315 315 314 313 313 312 310 309 308 307 308 307 305 305 306 306 305
292 302 296 302 303 301 301 299 301 303 303 302 305 313 315 310 304 303 309 312 312 315 315 316 315 314 316 318 317 318 317 322 320 318 319 318 316 313 312 311 309 310 312 311 309 307 306 307 305 305 304 303 300 304
294 300 305 310 307 306 305 306 308 306 302 302 306 307 306 301 302 308 311 316 315 318 321 320 319 316 318 319 323 324 324 325 322 320 320 318 317 317 315 312 311 311 312 310 309 307 306 306 306 305 305 307 307 305
303 304 300 307 305 306 301 303 302 300 302 307 307 302 301 301 303 310 312 315 321 323 321 321 321 322 320 321 321 320 321 320 321 319 316 315 317 315 317 317 315 301 312 311 308 308 307 307 306 306 306 306 306 308
303 305 304 302 305 306 305 304 303 304 306 306 304 303 304 312 317 316 319 321 323 322 316 316 318 320 321 321 321 320 319 318 314 311 311 310 312 313 316 314 310 311 311 308 296 303 309 307 308 307 307 307 308 309
302 306 302 302 302 302 305 308 306 308 310 311 312 311 312 318 319 322 320 320 318 317 319 320 320 319 317 314 312 316 318 317 316 315 310 309 310 315 315 311 311 311 311 310 308 307 298 305 303 307 306 307 307 307
306 304 302 302 302 307 309 311 313 313 310 310 310 312 315 319 319 320 318 317 318 318 316 315 315 316 313 312 314 309 308 312 313 313 312 313 315 315 314 313 313 312 311 310 309 308 307 306 306 306 306 306 306 304
304 302 302 301 303 310 311 309 309 309 313 314 313 314 314 315 313 313 315 316 314 313 309 313 313 311 312 314 314 312 305 314 316 315 314 312 312 313 312 312 313 312 311 310 309 308 308 307 306 306 306 306 307 307
305 304 304 303 303 306 308 308 308 310 313 312 310 310 310 310 307 314 318 318 315 314 313 313 314 312 310 310 310 310 308 313 307 301 301 299 298 303 310 311 311 310 310 309 309 308 308 307 307 308 308 308 307 308

GFSWCAN_sfc_thetae_105.txt.gz
Theta_e
312 312 312 311 312 313 314 314 315 315 315 316 316 317 317 315 318 312 311 315 318 314 315 319 317 312 310 308 305 308 306 305 303 299 299 301 296 298 297 302 304 299 296 296 294 291 292 312 310 302 309 313 315 322
311 311 310 311 312 313 314 314 315 315 315 316 316 317 316 315 317 314 309 320 323 318 314 316 316 317 317 315 311 312 311 311 309 304 305 305 300 299 298 295 304 297 303 301 301 298 305 312 312 315 316 312 313 314
311 311 311 312 312 313 313 314 315 315 315 316 316 317 315 316 317 312 309 313 318 316 310 309 309 319 317 316 314 306 311 314 313 312 309 307 300 303 298 299 302 306 308 303 305 307 311 313 313 315 315 311 313 314
310 310 311 312 312 313 314 314 315 315 315 315 316 315 314 315 317 313 310 315 313 315 309 307 315 313 320 317 315 314 312 317 315 313 307 303 303 306 301 304 301 306 305 301 306 310 310 311 313 312 312 313 312 314
310 311 312 311 311 312 313 315 314 314 315 315 315 314 314 316 315 312 311 313 315 313 308 310 317 321 316 315 314 315 312 313 312 306 304 303 310 307 306 303 301 305 304 299 300 310 308 309 313 316 312 312 312 313
310 311 312 311 311 312 314 314 314 314 315 315 314 314 315 315 313 309 309 316 316 318 313 307 317 316 315 315 314 314 313 313 312 308 306 310 312 307 299 300 307 308 310 310 310 313 312 314 316 315 313 314 314 315
310 311 312 310 311 312 313 313 314 314 315 313 313 314 315 312 309 307 308 313 310 311 314 308 309 315 316 314 313 312 313 314 312 309 308 309 308 307 301 298 309 312 313 313 315 314 310 313 312 315 316 316 317 316
310 311 311 310 310 311 313 314 314 314 314 314 314 314 312 311 309 306 311 311 311 318 315 304 306 309 316 309 307 314 310 311 313 310 312 309 310 310 301 308 311 315 314 313 313 313 313 313 315 314 315 316 313 311
309 311 311 310 310 310 310 312 313 314 313 314 314 313 311 307 307 312 320 315 322 318 307 306 302 304 315 310 310 311 313 306 312 306 307 310 306 303 309 310 313 315 313 313 315 315 314 313 315 314 315 314 311 312
309 311 310 310 309 309 309 309 309 310 312 312 311 306 304 311 319 320 318 315 314 312 314 308 310 308 313 311 308 309 310 307 303 308 313 306 307 315 315 316 317 319 316 316 312 310 311 312 314 314 313 313 312 312
309 311 310 309 310 310 309 308 308 308 308 308 306 310 321 318 317 313 306 306 307 302 305 307 309 308 315 307 306 310 308 308 302 307 306 304 303 310 317 319 320 320 319 316 318 316 317 315 313 312 312 312 313 314
309 310 310 309 309 310 310 308 308 307 308 308 308 313 319 313 309 303 303 305 305 299 305 301 305 312 313 315 310 310 306 308 301 310 306 300 309 318 318 319 320 322 320 319 318 317 317 316 314 312 311 312 313 313
308 310 310 309 309 310 309 307 307 308 309 313 310 308 308 307 294 297 296 300 300 307 308 304 303 309 313 314 309 308 302 301 307 305 301 303 316 319 318 318 318 320 320 319 319 319 317 316 316 315 313 314 313 313
308 310 310 309 310 309 309 307 308 308 307 306 303 292 299 298 301 302 303 304 308 311 309 308 306 310 310 306 308 304 306 305 301 298 300 309 317 317 318 319 318 317 318 318 316 316 316 315 314 315 316 314 313 311
309 310 310 309 309 310 309 308 308 309 307 303 303 293 300 305 307 309 313 310 311 312 311 308 308 312 308 307 307 305 301 298 301 300 305 316 318 318 317 318 317 317 317 314 314 315 316 315 313 313 313 311 310 308
309 309 308 311 311 310 310 309 307 308 305 302 303 301 305 304 305 308 310 308 314 314 312 312 308 305 302 304 301 301 299 298 302 312 317 319 318 318 318 318 317 317 315 315 315 315 315 313 312 310 310 308 307 308
309 308 310 310 309 310 309 308 305 302 303 300 300 304 304 306 304 306 310 311 317 313 307 309 303 301 306 301 299 304 301 304 314 318 320 321 320 320 320 320 317 316 315 315 315 314 313 313 311 310 307 306 307 308
307 310 309 309 308 308 308 307 307 302 299 302 300 304 307 309 308 309 311 316 316 309 305 304 309 302 301 299 301 305 310 316 319 319 320 322 323 322 321 317 317 317 316 315 314 314 312 311 310 308 308 307 306 306
309 309 308 308 308 308 306 308 310 302 303 306 307 308 308 308 310 312 315 314 314 314 310 309 305 303 303 310 310 311 311 313 314 317 319 322 323 321 321 317 318 316 315 314 314 312 311 309 307 307 308 307 304 305
308 308 308 308 308 304 301 304 311 305 302 309 311 309 308 311 315 314 313 314 315 310 305 303 305 307 309 314 315 316 315 316 314 313 315 319 322 322 321 318 316 317 316 315 312 309 309 308 308 308 308 306 305 303
306 308 308 308 307 305 304 304 305 307 308 307 310 311 310 315 312 311 311 312 310 309 304 307 308 311 314 314 316 316 315 318 316 317 317 317 320 320 320 316 315 314 313 311 308 306 306 307 306 305 305 306 304 302
309 309 308 307 303 305 306 309 306 310 308 308 308 310 309 309 308 310 316 312 310 311 313 312 312 314 314 311 313 316 314 315 322 317 314 314 317 316 315 314 312 311 311 309 308 307 306 308 307 307 305 304 303 303
309 308 306 306 302 300 298 310 306 307 302 305 309 305 306 308 313 318 311 313 312 318 320 321 322 316 314 315 315 315 315 314 319 320 318 319 319 317 316 314 314 312 309 309 310 309 307 305 304 306 306 305 304 301
308 306 304 303 302 296 307 306 309 306 306 304 303 303 306 310 315 312 305 309 313 317 317 321 321 319 322 322 318 322 322 322 321 321 321 319 317 316 315 314 314 315 311 311 310 310 308 306 305 305 305 304 304 302
297 296 299 289 305 302 301 302 303 304 302 305 303 305 309 315 307 306 306 312 315 317 316 316 316 320 316 318 319 318 325 323 319 318 318 320 317 315 314 315 315 313 311 309 308 308 306 306 306 305 305 304 304 304
291 300 294 301 302 301 301 299 302 302 303 302 305 311 313 308 303 303 309 312 314 316 317 319 320 316 318 318 316 318 319 318 322 316 319 319 317 315 312 312 308 309 312 311 309 307 306 306 305 305 304 301 298 304
292 298 304 308 307 306 303 307 309 306 302 302 305 306 306 300 301 307 311 313 313 317 318 317 319 316 318 319 321 323 323 323 321 318 321 320 319 318 315 311 310 312 311 310 309 307 306 306 305 304 303 304 305 305
301 304 300 307 306 307 302 303 302 302 302 306 305 302 301 301 302 310 313 318 318 317 319 320 320 319 320 322 322 322 322 322 320 318 317 314 317 314 314 314 311 301 309 309 308 308 306 306 306 305 305 304 306 306
302 306 304 301 304 306 306 303 302 305 308 307 305 304 305 311 312 312 315 317 318 318 315 314 314 318 321 323 323 321 320 318 315 312 310 309 309 307 311 313 311 310 308 303 299 305 307 307 307 306 307 306 307 308
301 306 302 302 301 302 305 308 306 308 308 309 312 310 308 310 314 317 317 317 317 317 317 317 318 317 314 312 313 312 313 314 316 311 308 308 309 311 311 310 310 308 307 306 305 303 300 304 302 305 305 306 306 307
305 305 302 303 302 306 309 310 310 312 312 312 311 309 307 313 318 315 316 316 316 315 314 314 312 312 312 312 310 308 306 311 312 312 310 311 313 313 312 312 312 311 308 306 306 306 305 305 306 306 306 306 306 303
303 302 302 301 303 309 311 310 309 309 311 309 309 308 314 315 310 312 317 315 313 312 308 312 311 310 312 312 311 310 304 313 314 313 314 312 315 313 313 313 312 311 310 309 307 307 307 306 305 305 305 306 306 306
304 304 304 304 304 305 309 309 309 310 311 310 310 310 310 309 307 315 318 317 314 312 312 312 312 311 311 311 312 312 308 311 307 300 299 296 294 298 309 311 311 311 311 309 308 308 308 307 305 305 305 305 306 306

GFSWCAN_sfc_thetae_108.txt.gz
Theta_e
313 312 312 311 311 312 313 313 314 315 315 315 315 317 317 317 316 312 305 308 305 308 310 314 314 307 305 303 299 301 301 300 296 294 295 294 293 294 292 296 298 297 292 292 290 286 286 308 309 302 307 313 317 316
312 311 311 311 311 312 313 313 314 315 315 315 316 316 317 316 316 314 301 310 311 310 309 314 316 314 309 308 305 303 302 302 302 298 297 298 295 295 292 291 299 294 299 298 299 295 302 307 307 313 312 317 318 314
312 311 311 311 311 312 312 313 314 315 315 315 315 316 317 315 316 315 303 305 307 310 309 306 304 308 308 310 309 300 301 306 303 303 301 299 294 297 292 293 297 301 303 299 299 303 308 311 311 313 313 309 311 317
312 311 310 311 312 312 312 313 314 315 315 315 316 316 316 315 315 316 303 306 304 306 302 306 316 310 314 313 312 306 307 309 307 303 298 295 295 298 295 298 297 300 299 298 300 304 308 309 309 309 310 312 313 315
311 310 310 311 312 311 312 313 314 314 315 315 316 315 315 315 316 311 306 307 308 305 301 304 312 314 315 311 309 307 306 304 303 299 296 295 300 300 297 296 295 301 298 296 297 304 301 304 308 310 309 309 312 311
311 310 310 311 311 311 312 313 314 314 315 315 314 314 314 315 313 303 301 307 308 307 304 302 311 312 307 308 307 305 305 304 303 301 298 301 304 299 293 292 300 302 304 305 306 308 306 310 312 312 309 311 312 310
311 310 310 311 311 311 312 313 314 314 315 314 313 313 314 313 304 301 303 309 307 304 306 302 303 311 310 307 306 305 304 304 303 300 300 301 301 298 294 292 301 304 307 308 309 308 307 309 307 311 313 314 314 313
310 310 310 311 310 310 311 312 314 314 315 314 313 314 313 311 307 301 304 308 306 306 308 299 299 306 310 302 301 305 302 302 302 302 302 302 303 301 295 299 304 307 308 308 309 309 308 309 309 310 311 310 309 310
309 310 311 311 310 309 310 310 311 313 313 313 313 313 306 301 299 303 317 313 310 309 300 299 296 299 311 305 303 304 303 297 302 299 299 303 298 296 300 302 308 306 306 307 309 309 309 308 309 310 310 309 308 308
308 309 311 311 310 309 309 309 309 309 310 312 309 302 297 303 316 318 311 308 306 304 306 302 306 300 308 305 301 301 301 299 296 301 303 298 296 304 307 308 312 310 309 309 306 304 306 307 308 308 307 310 309 309
308 309 311 310 309 309 310 308 308 308 309 307 302 301 310 317 307 304 299 300 302 297 299 303 302 301 309 303 301 305 302 299 294 299 300 297 297 304 310 309 311 312 311 311 309 309 309 310 308 307 307 308 310 309
308 309 310 310 310 310 309 308 308 307 307 306 305 308 312 309 303 297 297 299 299 297 300 299 302 306 307 308 303 305 300 301 296 302 300 293 301 306 310 313 313 311 312 312 313 313 311 310 308 307 309 310 309 309
308 309 310 310 310 310 309 308 307 308 308 310 308 306 304 301 290 293 291 294 295 302 302 301 301 303 306 306 303 301 298 296 306 297 295 296 302 310 310 312 314 314 314 314 313 313 311 309 310 310 309 309 309 308
308 308 310 310 310 310 309 308 308 308 306 304 302 292 294 293 295 297 298 299 302 304 303 298 304 302 305 300 301 298 300 302 295 293 295 301 308 310 310 312 312 312 313 313 312 311 310 310 309 310 309 309 307 305
308 308 310 310 310 310 309 308 308 308 306 302 302 292 297 300 301 304 306 307 308 308 305 302 306 305 303 301 303 302 299 296 296 296 300 303 310 310 310 310 310 310 310 310 311 310 310 310 308 307 307 305 305 304
308 309 308 310 310 309 309 307 307 307 304 302 301 299 300 300 301 304 304 305 310 309 307 307 301 301 299 301 298 297 295 294 296 302 305 310 310 310 309 310 310 309 309 309 310 310 310 308 306 305 306 306 306 305
308 305 310 309 310 309 309 307 304 302 302 301 297 301 301 301 301 302 307 307 313 309 302 304 297 296 300 297 296 299 296 297 309 310 309 310 312 311 310 310 310 310 310 310 309 309 306 305 306 304 300 300 302 302
306 309 310 309 308 307 306 305 304 301 298 299 295 298 301 304 304 306 306 311 309 304 304 304 302 295 295 295 295 298 300 307 311 312 313 314 314 312 312 309 310 311 311 310 310 307 306 305 303 301 300 300 301 301
308 308 309 309 308 306 304 303 306 299 299 301 301 304 305 304 306 309 311 311 311 311 305 301 300 297 296 299 301 305 304 306 309 310 312 315 315 313 311 310 311 309 309 308 307 307 306 305 305 303 303 301 300 299
309 308 308 308 308 304 301 302 307 301 298 302 304 303 302 302 306 308 309 309 309 305 300 301 300 303 303 305 307 309 311 312 312 308 308 313 314 313 311 311 311 309 308 307 305 305 302 300 301 301 303 301 299 299
307 307 308 308 305 304 303 302 302 302 302 301 304 304 304 305 303 306 306 309 306 304 302 304 302 303 307 310 312 312 311 311 311 312 311 311 314 315 312 310 311 312 309 306 303 301 302 302 301 301 301 300 300 301
308 309 306 306 302 304 302 304 301 305 303 302 301 303 301 301 301 302 309 305 305 304 304 304 305 306 310 308 310 312 314 313 313 311 307 310 312 311 310 311 312 311 310 308 304 302 302 301 301 299 301 300 298 298
309 308 306 305 300 298 295 303 301 301 297 299 303 299 299 300 303 307 301 303 304 308 308 309 310 309 310 310 311 312 312 311 312 313 314 313 315 313 310 309 311 310 309 307 306 303 303 301 301 301 300 299 298 298
309 305 302 300 299 292 301 299 302 301 302 298 297 298 299 300 304 302 300 302 305 307 307 308 309 308 307 308 307 308 311 310 311 315 318 316 312 312 312 310 309 310 310 307 305 304 303 303 300 302 301 300 300 299
297 294 296 289 300 298 299 300 301 299 297 299 298 298 300 303 299 299 299 303 307 308 310 311 311 311 309 308 309 311 314 313 311 312 315 318 315 309 308 309 311 312 307 306 304 304 304 303 301 302 302 302 301 300
289 296 292 299 298 299 298 298 298 298 298 299 300 302 303 300 299 300 303 305 307 310 310 309 309 311 311 312 309 308 311 316 315 311 312 316 314 312 310 308 307 309 308 308 307 305 303 304 302 302 302 300 298 300
291 295 300 303 302 303 299 303 303 300 299 299 301 302 302 300 300 303 305 307 309 311 313 314 314 312 311 312 313 313 314 316 317 316 317 318 318 317 315 311 308 309 306 308 307 305 304 303 303 302 301 299 299 300
297 298 296 301 300 303 299 300 300 299 298 300 300 300 300 299 298 304 307 313 314 315 315 316 315 313 313 312 314 313 313 316 315 315 314 313 313 314 318 312 310 300 308 308 307 306 305 304 303 302 300 299 299 301
298 303 302 298 301 302 302 300 299 300 302 301 299 302 301 307 311 311 312 314 314 316 315 313 313 314 312 312 313 312 312 311 310 306 304 303 306 307 309 307 306 305 306 305 300 303 305 305 304 303 302 301 301 301
297 302 298 300 299 301 303 306 305 307 307 308 309 305 307 308 313 315 313 312 311 312 312 309 307 308 308 308 303 307 309 309 309 307 304 302 303 307 310 309 308 306 306 306 305 303 300 302 299 301 300 300 299 300
300 302 299 300 298 305 306 308 310 311 311 309 309 306 305 309 314 310 308 307 308 308 308 306 306 307 305 306 305 305 305 309 311 311 313 312 311 310 309 308 307 308 308 308 307 304 301 301 299 299 299 299 299 299
298 298 299 298 300 305 308 306 306 307 308 308 307 307 308 308 305 306 310 308 307 305 305 305 303 303 306 306 309 309 302 309 309 307 308 307 310 309 309 307 307 307 306 303 303 301 300 300 299 299 299 300 300 300
299 300 300 299 300 302 306 307 307 306 307 306 305 307 307 305 302 306 309 309 306 305 304 305 305 305 307 306 307 307 304 309 306 298 295 295 295 301 306 306 307 308 307 303 301 300 301 300 300 300 300 300 300 300

GFSWCAN_sfc_thetae_111.txt.gz
Theta_e
314 313 312 312 311 311 312 313 313 314 315 315 315 315 316 317 316 313 307 306 302 300 304 312 313 307 305 300 296 298 299 298 294 293 294 292 291 293 290 294 295 295 291 289 288 285 286 305 306 299 303 310 315 314
314 313 311 311 311 311 312 312 313 314 314 315 315 315 316 317 315 315 304 306 306 299 303 313 317 318 314 310 302 300 301 299 299 296 295 295 293 293 290 289 298 295 297 294 296 294 300 304 305 308 312 314 315 318
313 313 312 311 311 311 312 312 312 314 315 315 315 315 316 316 315 314 306 303 303 304 307 304 309 309 313 310 308 301 300 304 300 301 298 296 293 295 291 292 295 298 302 297 297 299 304 307 309 311 314 313 316 319
313 313 312 311 311 312 311 311 313 314 315 315 315 316 317 315 315 315 308 303 301 301 299 302 315 311 312 312 308 305 307 305 303 300 296 293 294 296 293 296 296 300 300 298 298 301 306 309 307 308 311 314 317 320
310 312 312 311 311 312 311 311 313 314 314 315 315 316 315 314 314 314 310 307 305 300 298 300 307 312 313 312 310 306 306 304 300 297 295 294 296 297 294 294 294 299 296 297 296 302 302 304 306 310 310 311 313 315
309 311 311 310 310 312 311 311 313 314 314 315 315 313 313 314 313 303 298 304 307 306 301 299 307 310 310 309 305 304 303 302 300 299 297 298 301 296 292 290 297 299 300 302 303 305 304 307 308 310 310 310 311 315
309 311 311 310 311 311 311 311 313 314 314 315 313 313 313 313 306 300 299 304 305 303 302 299 300 308 311 305 304 303 302 302 301 298 297 299 298 296 292 293 300 302 304 306 307 308 305 306 305 309 311 312 312 312
309 311 311 310 311 311 310 311 312 314 314 314 313 313 313 312 306 300 303 308 304 300 306 298 298 303 307 300 300 302 300 300 300 299 300 299 300 297 292 296 298 304 306 306 306 306 306 306 307 308 310 311 310 311
310 310 310 310 310 310 309 309 310 311 313 313 313 313 305 301 297 300 315 312 305 306 297 295 293 297 309 302 302 302 300 296 300 298 298 300 296 295 299 300 304 305 305 305 306 307 307 306 307 307 308 309 308 307
310 309 309 310 311 310 309 309 309 309 309 311 309 301 295 301 312 316 308 305 303 302 302 299 303 299 308 304 301 301 300 297 296 298 300 297 296 300 302 304 308 306 306 307 304 302 304 304 305 305 307 309 308 307
308 309 309 310 310 309 309 309 308 308 310 306 301 299 306 314 306 303 300 298 300 296 297 302 302 299 307 303 301 304 298 297 294 296 297 294 293 300 307 306 309 308 307 308 309 308 308 308 306 305 306 309 310 308
308 308 309 310 310 309 309 308 307 306 307 306 305 307 309 306 300 296 295 297 297 294 297 298 300 302 305 309 305 305 299 301 294 301 297 290 299 303 307 309 310 308 309 310 309 309 309 309 308 307 307 308 309 307
308 308 308 310 310 310 309 308 307 307 308 309 307 305 300 298 288 291 289 292 292 299 299 300 300 302 304 304 301 302 298 296 302 296 294 295 299 304 306 309 310 310 311 311 311 310 309 307 308 309 307 307 308 306
307 308 308 309 310 309 309 308 307 308 306 303 301 290 293 291 293 294 294 295 299 300 303 300 301 299 302 300 300 298 299 299 294 290 294 299 301 304 307 310 312 310 310 310 310 308 307 308 307 308 309 308 306 305
307 308 308 309 310 310 309 308 308 308 306 302 302 292 295 297 298 300 302 303 304 305 302 300 303 303 300 298 300 298 297 294 295 295 300 300 302 307 307 309 309 309 309 308 308 307 307 308 307 305 305 304 304 303
308 308 307 309 310 310 308 307 307 307 304 302 301 297 299 297 297 300 303 305 308 305 306 306 301 298 297 298 297 295 295 293 296 299 300 301 304 307 308 308 309 308 308 307 307 308 307 307 306 304 303 303 303 303
308 305 310 309 310 309 308 305 304 302 302 300 297 299 299 298 297 299 302 306 310 306 301 304 298 297 301 296 294 298 295 295 301 306 308 307 307 308 308 308 307 307 307 306 307 306 306 305 304 303 301 301 302 302
305 308 309 309 307 307 304 305 303 301 298 298 294 296 300 301 300 302 306 308 307 305 303 302 303 296 295 295 295 298 301 301 306 308 308 307 307 309 312 308 307 308 307 307 308 305 304 303 302 301 300 300 299 299
308 308 309 309 308 304 300 302 304 299 299 298 299 299 300 301 303 306 307 310 309 310 307 302 299 296 297 299 300 301 303 303 304 306 308 309 309 311 309 307 307 306 307 305 305 305 305 304 304 301 302 300 300 298
308 308 309 309 308 303 300 300 305 299 297 299 302 301 301 300 304 306 307 308 308 305 301 297 298 299 299 302 304 304 303 307 307 306 308 312 311 308 307 308 308 306 306 305 306 303 303 300 299 300 301 300 298 298
307 307 308 307 305 303 302 301 300 300 300 298 303 304 303 305 305 305 302 306 301 301 299 300 302 303 303 305 306 306 306 308 308 307 308 308 311 309 307 306 307 308 306 306 306 304 303 303 302 301 300 299 299 300
307 309 306 306 302 303 302 304 301 303 300 300 300 301 299 299 301 301 305 302 301 302 303 303 305 306 304 307 308 309 310 309 309 308 304 309 310 310 308 308 308 307 307 308 308 305 304 302 302 302 301 300 299 299
308 307 306 304 300 297 295 301 297 299 295 297 302 297 297 299 301 305 300 301 303 306 307 305 305 306 306 308 308 309 313 311 308 308 308 309 311 312 311 309 311 309 306 306 308 307 305 299 300 302 302 299 297 296
308 304 301 300 298 292 299 297 299 299 299 297 296 297 298 298 301 299 298 299 302 305 305 306 307 305 304 305 305 307 309 308 308 309 310 311 311 311 313 312 311 312 311 309 305 305 305 302 299 299 299 299 298 296
296 295 297 289 300 298 296 298 299 297 296 298 297 296 298 301 297 297 296 300 303 305 306 307 307 306 304 304 305 306 307 308 307 307 309 314 312 310 310 310 310 310 310 306 305 305 301 301 301 300 300 300 299 298
289 295 292 296 296 296 298 297 298 296 297 297 298 300 300 298 297 296 301 306 304 306 307 307 309 306 309 310 307 307 309 312 310 308 309 312 312 310 309 307 306 306 308 309 307 305 303 302 302 301 301 300 297 299
289 293 296 300 300 303 298 301 302 297 297 296 299 300 300 298 299 302 304 305 306 309 310 310 310 308 307 309 309 310 312 314 314 314 316 316 316 315 314 311 310 312 310 309 308 307 305 304 302 302 302 301 301 301
296 297 295 301 298 300 298 298 297 297 298 299 299 299 299 298 296 302 304 308 311 314 315 314 312 310 309 309 311 311 311 312 313 313 313 310 311 314 317 316 315 302 309 311 309 309 307 306 304 303 301 300 299 298
296 301 301 298 300 302 300 299 298 300 300 299 298 298 300 304 310 311 313 313 312 311 311 306 306 306 306 305 305 307 309 310 310 308 305 305 307 307 305 306 303 304 307 305 296 302 305 306 304 303 303 301 301 300
296 298 296 297 299 299 302 306 305 307 306 308 308 306 307 308 311 313 310 306 305 305 306 303 303 303 303 304 304 304 307 309 308 307 303 301 301 303 305 308 308 309 309 309 308 305 301 305 302 303 301 299 298 298
299 297 295 297 299 305 306 309 310 311 310 308 308 306 304 308 311 308 306 305 304 304 303 302 303 303 303 303 302 305 306 308 310 310 312 310 311 310 310 311 309 307 309 309 308 307 304 303 303 303 302 300 298 297
295 294 294 295 299 306 308 307 307 306 308 308 307 308 308 307 302 303 306 305 304 303 301 301 301 302 303 304 307 307 301 305 306 304 304 309 311 312 311 305 304 306 307 307 306 306 306 304 301 301 301 298 298 298
295 296 296 297 299 303 305 305 303 305 306 305 305 305 304 305 300 303 306 305 303 302 302 302 302 303 307 305 307 308 304 306 300 296 296 295 296 301 304 304 304 304 304 302 301 301 301 300 299 298 297 297 298 298

GFSWCAN_sfc_thetae_114.txt.gz
Theta_e
315 315 314 313 311 311 310 311 313 313 314 315 315 315 315 316 317 312 309 307 304 297 299 308 311 305 304 299 296 296 298 297 293 292 292 291 290 293 290 292 293 292 290 288 288 286 286 306 307 302 305 313 315 316
313 314 314 313 312 311 310 311 313 313 314 315 315 315 315 316 316 315 307 305 306 299 299 307 310 313 314 311 303 299 298 297 297 294 294 294 292 292 289 289 296 293 295 292 293 292 300 303 305 310 312 314 314 316
311 312 314 313 312 312 311 312 312 312 314 315 315 315 316 316 316 314 308 303 300 298 302 303 305 312 314 315 312 299 301 303 299 300 297 296 293 293 290 291 294 297 300 297 296 300 303 307 309 313 317 316 318 318
308 309 312 313 312 311 312 312 311 312 314 314 315 315 316 316 315 315 309 307 300 298 296 301 311 307 312 308 310 307 303 303 301 298 295 293 293 295 292 294 295 299 300 297 296 301 306 308 310 310 313 317 320 318
307 308 309 312 312 311 311 312 311 312 314 314 315 315 315 315 314 313 312 310 306 298 295 298 305 306 311 312 311 305 305 301 298 296 294 293 294 295 292 293 293 298 298 297 295 303 302 304 309 314 315 316 319 319
307 308 309 311 311 311 311 312 311 312 314 314 315 314 313 313 314 306 298 304 309 304 297 295 303 306 311 309 306 305 303 300 299 298 295 295 299 296 292 290 296 298 299 302 302 305 304 307 309 314 313 314 317 318
308 308 309 311 311 311 311 311 311 312 314 315 314 313 313 312 308 300 298 302 308 305 299 297 299 307 309 304 304 303 302 300 300 297 297 298 297 295 292 291 300 301 302 303 306 307 305 306 305 310 313 314 316 320
308 309 309 311 311 310 311 310 311 311 314 314 313 313 312 312 308 303 306 308 305 299 304 298 297 300 307 299 301 303 301 299 299 298 299 298 298 295 292 296 298 303 306 306 306 306 306 306 308 309 311 313 315 316
309 309 310 311 310 311 310 310 310 310 310 312 313 313 308 303 297 299 313 312 305 303 297 295 292 294 308 300 301 302 301 298 299 297 298 300 294 294 298 298 299 305 306 305 306 306 306 306 307 308 310 312 311 310
309 310 310 309 309 311 310 309 309 309 309 310 310 301 295 299 310 312 306 301 299 301 301 298 302 298 305 302 300 300 299 296 294 297 299 297 295 300 301 302 303 306 306 306 304 303 303 304 306 306 309 311 311 309
310 309 309 309 310 310 309 309 309 308 309 307 301 298 305 312 305 303 299 298 299 295 296 300 302 297 304 302 300 303 296 296 293 296 296 293 292 297 304 305 305 306 306 307 309 308 308 308 305 306 307 309 309 309
308 308 308 309 310 310 309 309 308 306 307 305 305 307 308 305 300 297 295 296 296 293 295 296 300 300 303 307 304 304 298 299 292 300 297 291 298 301 302 307 307 307 307 308 309 308 308 308 308 308 308 307 308 308
307 308 308 309 310 310 310 309 307 307 307 308 305 305 302 299 291 291 290 292 292 298 298 299 298 301 302 305 302 302 297 295 301 295 294 296 299 302 304 306 308 309 308 309 309 309 309 308 308 308 307 308 307 307
306 307 308 308 309 310 310 308 307 307 306 302 301 291 293 291 293 294 293 294 298 299 301 298 299 298 299 298 301 298 300 301 294 290 293 300 303 303 305 307 309 309 309 310 310 309 308 307 307 308 309 308 308 307
307 307 308 308 309 310 310 308 308 308 305 301 300 291 295 297 298 299 301 300 302 303 301 301 301 300 297 296 298 298 295 293 294 294 298 300 301 302 304 307 309 309 308 308 307 307 307 307 307 306 306 307 308 306
307 307 306 309 310 310 308 307 307 307 304 302 301 298 297 296 296 298 299 300 306 303 304 302 299 295 295 295 296 295 294 293 296 300 301 302 301 303 305 307 310 310 308 307 307 307 307 307 306 305 304 304 305 305
307 305 309 309 310 309 308 305 305 302 301 300 298 299 298 296 295 297 299 301 306 302 299 300 295 295 297 295 295 298 295 297 300 303 306 306 307 305 306 307 307 308 306 305 305 306 306 305 304 304 301 302 303 304
305 308 310 309 308 307 304 304 303 301 298 300 294 297 296 298 298 298 302 305 303 302 301 301 304 298 296 295 296 299 301 303 304 305 307 307 307 306 308 307 307 307 305 306 306 304 304 304 304 304 304 302 301 301
307 308 309 309 307 303 300 301 303 298 300 298 298 298 297 298 300 301 303 306 307 308 306 300 299 298 298 300 300 303 303 303 304 306 307 308 307 307 308 309 308 305 305 304 303 304 305 306 306 303 303 303 302 301
308 308 309 309 308 303 300 299 303 298 296 299 301 301 298 299 301 304 305 308 307 305 301 300 299 300 301 302 304 304 304 305 306 306 307 308 308 307 307 308 306 305 305 304 303 301 301 300 300 303 304 304 302 300
307 307 308 307 304 303 302 301 298 299 298 296 302 301 300 303 305 305 305 307 303 302 298 299 300 303 303 304 304 304 304 305 306 308 307 307 310 309 308 307 306 306 305 304 303 303 303 305 303 303 303 302 303 303
306 309 305 306 302 302 300 302 301 302 297 299 298 301 299 299 301 302 305 301 301 301 301 304 305 307 304 306 305 305 306 306 307 307 303 307 309 308 308 307 306 305 305 306 306 305 306 306 304 303 304 303 300 301
308 306 305 303 299 297 295 300 297 298 294 296 301 297 297 298 299 304 299 300 302 304 303 304 304 305 305 306 307 310 308 308 308 309 308 309 311 312 309 308 308 308 306 306 310 308 307 302 301 304 304 303 302 301
308 303 300 299 298 293 298 295 297 297 298 296 295 295 297 298 300 298 297 298 301 304 305 306 306 305 304 304 305 306 307 310 309 309 310 309 309 310 311 311 311 311 311 310 309 309 306 305 301 303 303 302 302 301
296 295 297 290 300 296 294 296 297 295 295 298 297 296 297 300 298 297 296 299 302 305 306 307 306 305 304 304 304 305 307 308 307 307 308 311 311 310 310 312 312 312 310 307 306 307 306 305 304 303 303 303 302 301
289 294 292 297 296 295 298 297 299 298 296 297 297 299 300 299 297 296 302 305 305 305 306 308 308 307 306 307 307 307 307 308 308 307 308 312 312 312 310 309 309 309 311 312 309 308 307 306 304 303 302 301 297 302
289 291 295 298 299 301 297 299 301 299 296 297 299 300 301 298 298 301 305 305 305 308 312 313 310 309 308 308 309 310 310 310 310 310 314 312 314 315 314 311 309 312 312 312 311 310 308 307 305 304 304 303 303 303
294 295 293 298 297 299 297 297 296 296 297 298 298 298 299 298 296 303 304 307 308 311 313 314 311 308 307 307 308 309 311 310 312 311 311 311 311 313 315 317 317 302 312 313 312 312 311 309 307 305 305 303 303 303
294 299 300 297 299 301 301 297 298 300 300 299 297 298 299 304 309 310 312 312 311 310 307 306 306 304 305 306 307 308 309 310 310 308 308 307 310 311 309 312 312 312 310 304 297 306 311 310 308 306 307 304 303 303
296 300 298 298 298 296 301 305 304 306 306 307 306 305 306 307 310 310 307 305 304 304 303 302 302 303 302 305 306 307 308 309 309 311 308 306 306 305 306 306 306 306 307 306 305 304 300 305 302 304 303 302 301 300
299 297 296 298 300 303 305 309 310 310 309 307 308 305 305 308 309 307 305 305 305 304 303 302 303 302 302 303 304 304 303 306 309 310 309 308 310 310 309 308 309 309 309 308 309 309 307 307 308 306 305 303 301 299
293 294 294 295 300 307 309 307 306 305 307 307 306 308 308 306 302 302 304 304 303 302 301 302 303 303 304 304 305 305 299 304 305 305 306 306 309 314 312 308 308 308 309 308 307 307 307 306 305 305 305 306 305 301
294 294 296 298 301 302 306 304 303 304 305 305 305 306 305 304 299 303 305 305 304 303 303 303 304 304 307 308 309 308 304 306 302 297 295 294 296 301 305 305 307 308 308 307 306 306 305 305 303 303 302 302 302 301

GFSWCAN_sfc_thetae_117.txt.gz
Theta_e
312 313 315 315 313 312 311 310 311 313 313 314 315 316 315 315 316 314 310 311 307 301 304 308 313 309 308 306 302 303 304 303 304 303 301 302 301 303 300 301 302 302 301 301 299 298 294 309 310 306 311 317 321 324
308 311 312 314 314 313 312 311 312 312 312 314 315 316 316 316 316 315 308 309 311 305 306 308 310 311 314 314 310 307 305 306 307 303 304 304 302 301 300 299 304 302 305 305 304 304 309 312 312 316 317 319 321 324
307 308 310 312 314 313 312 312 312 312 312 313 315 315 316 316 316 315 311 308 307 302 304 305 307 313 314 313 315 305 307 309 308 311 308 307 304 304 300 302 304 306 308 307 305 308 311 313 316 316 321 321 325 327
307 307 307 309 311 313 312 312 312 312 311 314 315 315 316 316 316 316 310 311 308 304 300 306 314 313 318 317 316 314 309 310 309 309 307 307 305 306 304 304 306 308 309 308 306 310 313 314 316 316 320 324 323 325
308 307 307 308 309 312 312 311 312 312 311 314 315 315 315 315 315 314 314 311 310 305 299 301 308 312 313 314 314 315 312 310 309 306 306 305 306 306 304 305 306 309 310 307 305 315 316 316 317 320 323 324 324 323
309 308 308 307 309 311 312 311 312 312 312 314 315 315 314 313 313 310 303 312 313 311 302 299 310 310 314 313 313 310 310 310 309 307 305 305 307 309 304 303 309 311 312 315 313 316 314 318 318 318 322 325 325 325
308 309 308 308 309 311 312 311 312 311 312 314 315 314 313 312 311 304 303 306 310 310 302 300 304 312 312 309 309 308 309 307 309 307 308 309 307 307 305 303 311 311 312 311 313 316 312 316 316 319 320 324 323 327
308 309 309 309 310 312 311 311 311 311 311 313 314 313 312 312 311 308 312 309 309 306 304 302 303 306 314 306 306 310 308 308 306 306 307 308 305 306 303 309 310 311 313 312 314 316 316 319 319 318 320 324 325 324
309 309 309 309 311 311 310 311 310 310 310 310 313 313 310 309 305 305 312 312 310 304 302 302 299 301 313 309 308 308 309 304 307 306 306 308 305 306 310 313 309 313 315 315 316 314 315 316 317 317 319 321 323 324
309 309 309 310 310 310 310 310 309 309 309 309 310 305 303 305 309 313 309 303 302 304 306 303 307 302 312 309 307 306 307 305 301 305 306 304 305 312 314 315 317 317 316 316 312 310 313 314 315 317 318 320 322 323
310 310 310 309 309 309 311 310 309 308 309 307 304 302 310 312 311 307 303 300 300 300 304 305 306 302 311 309 307 309 304 304 300 303 302 302 300 308 316 316 317 315 317 317 319 318 317 318 316 317 318 320 321 322
308 308 308 309 309 310 310 309 308 307 307 305 306 309 310 310 304 300 300 301 300 298 302 301 304 306 309 315 310 309 305 305 299 306 303 301 305 314 315 316 318 316 316 316 318 318 318 318 318 318 319 319 320 322
307 308 308 308 309 310 310 309 308 308 307 308 305 304 303 302 292 295 293 296 297 303 304 303 303 307 311 313 308 306 301 301 307 302 301 304 311 314 316 314 316 317 317 317 317 318 317 318 319 319 319 320 319 317
306 307 308 308 308 310 310 309 308 307 305 301 301 290 297 295 297 298 299 300 304 305 307 305 306 306 307 306 307 300 303 304 297 296 298 307 316 319 317 315 315 315 316 316 317 317 316 316 316 318 319 318 317 316
306 307 307 307 308 310 310 309 308 308 305 301 302 293 296 301 302 304 305 305 309 311 307 307 306 307 305 303 305 302 299 296 298 298 304 311 316 314 314 314 315 317 318 317 318 317 317 317 316 316 317 317 318 316
307 307 306 308 309 310 309 308 307 307 305 302 302 299 302 301 301 303 305 305 311 310 310 309 305 303 301 303 300 299 298 297 301 306 311 312 316 316 313 314 317 319 319 319 318 318 317 316 316 316 316 317 316 314
307 304 309 309 310 309 308 306 305 302 302 300 299 304 303 302 301 303 305 307 313 310 306 307 300 298 304 300 299 303 300 304 310 309 315 316 316 318 317 315 317 319 319 318 318 318 318 317 316 314 313 314 315 315
305 308 310 309 308 307 306 305 303 302 299 302 299 301 303 304 302 305 306 310 310 310 310 304 307 300 298 296 299 305 308 310 312 312 314 317 318 318 317 318 319 319 319 318 318 317 315 313 313 313 314 314 313 313
307 309 309 309 308 304 301 302 303 298 300 303 303 303 303 304 305 306 309 311 313 314 310 308 302 299 300 307 308 309 311 313 314 316 317 318 318 317 317 318 319 318 317 317 315 314 314 315 315 314 313 312 312 312
308 308 309 309 308 304 301 302 307 301 299 302 304 303 304 304 307 308 306 310 309 308 304 302 304 306 307 310 311 310 311 315 313 314 316 318 317 316 317 317 318 317 314 314 314 309 314 313 313 312 312 313 312 310
306 308 309 308 305 304 302 301 301 303 303 301 304 303 304 305 306 308 306 309 306 306 304 308 308 309 313 314 312 312 311 312 313 314 315 317 319 318 316 317 316 314 313 312 311 310 308 312 312 312 311 311 312 312
306 309 306 306 303 303 301 304 302 304 302 302 302 304 304 304 304 306 309 306 305 307 308 309 310 311 311 311 312 314 314 315 315 314 305 309 318 316 315 315 313 313 314 314 313 312 313 314 312 312 312 310 306 308
308 307 305 304 299 296 296 304 299 302 298 300 302 301 302 303 305 310 306 307 308 311 311 311 312 314 313 315 315 316 315 315 314 316 318 319 321 321 316 315 316 315 314 315 316 315 314 307 306 310 308 305 305 306
307 303 300 298 298 294 301 299 302 301 302 301 300 299 302 303 308 306 303 305 310 313 314 314 314 314 315 314 313 315 316 316 317 318 318 317 317 318 318 317 317 318 319 318 317 316 314 310 303 308 307 306 306 306
295 296 297 291 300 297 296 297 298 299 298 300 299 301 303 305 302 301 302 307 310 312 313 314 313 312 312 314 316 316 316 316 315 315 318 318 317 318 318 319 319 319 319 316 315 316 314 313 310 309 309 310 309 308
291 296 293 297 298 297 298 297 299 299 299 299 300 304 306 304 300 300 304 307 308 310 313 311 309 308 311 314 315 317 318 318 318 316 319 320 319 317 316 315 315 317 319 318 318 314 312 311 310 309 306 305 300 309
290 294 298 302 300 301 300 301 303 301 299 299 302 302 302 298 298 303 307 312 312 315 316 315 314 310 311 312 315 317 319 319 318 318 321 321 322 322 321 318 318 322 321 319 318 316 313 310 311 309 308 308 311 311
297 298 295 300 300 303 299 300 299 299 301 304 302 301 299 299 301 309 312 315 315 316 316 314 315 312 312 313 314 316 320 320 320 320 318 318 319 321 322 321 322 304 320 319 317 317 315 315 313 311 309 310 311 310
297 300 300 298 300 302 302 301 301 304 306 305 303 302 304 308 312 310 311 314 314 314 310 310 311 312 315 317 316 317 319 320 318 315 314 315 318 317 318 322 320 320 319 315 302 309 314 314 313 312 310 310 310 309
298 301 299 300 298 297 302 306 307 308 309 310 310 309 309 312 314 314 311 311 309 309 309 309 309 311 311 310 310 312 315 316 316 317 314 311 311 312 314 312 312 314 315 314 313 312 298 309 305 309 306 305 306 304
301 301 299 301 300 303 306 308 310 311 310 309 309 307 308 312 315 313 310 311 310 310 310 309 309 310 310 309 308 309 308 312 314 314 315 314 313 314 313 313 314 314 313 313 312 311 310 310 309 308 307 303 302 303
299 298 298 298 301 306 309 307 306 306 308 307 306 308 310 310 306 309 311 312 311 310 304 310 310 310 312 312 312 311 301 312 312 310 310 311 312 317 316 315 314 314 313 313 314 313 312 311 311 311 308 307 306 305
299 299 301 300 299 300 305 304 303 304 306 305 307 308 310 308 303 310 314 313 312 311 311 312 312 313 313 313 313 314 307 314 307 294 294 295 295 303 314 315 316 316 314 313 313 312 312 311 310 310 308 306 306 308

GFSWCAN_sfc_thetae_120.txt.gz
Theta_e
309 310 311 313 315 314 313 312 311 312 313 313 314 315 316 315 316 315 313 317 309 306 308 311 312 312 313 311 306 309 306 308 307 304 304 304 301 306 304 306 305 304 303 303 304 300 296 313 313 308 316 323 325 328
308 308 309 310 312 314 314 313 312 312 313 312 313 315 316 316 316 316 311 315 314 306 309 314 314 315 314 314 312 311 311 310 310 307 309 310 304 308 306 301 310 305 309 309 306 306 315 319 317 320 321 323 327 327
307 307 308 308 309 311 314 313 312 312 312 312 314 315 316 316 316 316 313 311 310 307 310 310 310 316 318 315 317 309 313 315 313 319 313 312 305 310 303 305 308 312 314 310 309 314 315 318 320 321 325 326 330 328
307 307 307 307 308 309 312 313 312 312 313 312 313 316 316 316 316 316 312 314 310 308 304 309 319 316 320 318 315 314 315 317 317 319 312 310 307 314 310 310 309 313 315 308 309 314 318 319 323 324 326 330 330 329
308 308 308 308 308 308 310 312 312 312 313 312 313 315 315 315 315 316 315 314 313 306 303 306 313 315 316 317 317 316 313 314 314 312 310 308 313 312 315 313 308 315 312 307 307 314 319 320 324 327 327 327 328 328
308 308 309 309 308 308 310 312 312 312 312 312 314 315 315 314 313 313 304 313 314 311 305 302 313 313 316 317 316 317 316 315 313 314 314 316 315 313 306 305 312 316 318 319 315 320 320 322 324 325 327 328 327 329
308 309 309 308 309 309 310 312 312 312 311 312 314 315 313 312 314 307 306 310 313 313 306 302 306 314 317 316 315 316 316 314 313 314 312 314 314 312 308 304 310 315 319 321 321 323 319 320 318 324 327 329 327 330
307 308 309 309 309 309 310 312 311 311 311 312 313 313 312 312 311 309 315 310 313 308 308 302 306 309 318 310 309 315 312 314 313 312 314 311 312 312 304 310 312 316 319 319 319 322 320 322 323 322 325 326 327 327
308 309 309 309 310 310 311 311 311 310 310 310 311 313 311 310 307 312 313 313 314 307 304 307 303 303 318 312 314 313 315 307 315 308 308 312 307 306 309 312 314 317 318 318 320 322 321 321 321 321 322 323 322 325
308 309 310 309 310 311 310 311 310 309 309 309 310 306 303 311 314 314 311 307 305 306 307 303 311 305 314 311 309 309 310 306 303 309 313 306 305 314 316 318 322 320 321 321 318 318 319 319 320 320 321 322 323 327
308 310 310 310 311 310 310 311 310 310 308 307 305 304 313 314 312 310 306 303 304 302 306 308 308 305 315 311 307 313 305 308 302 306 305 304 304 311 317 318 321 323 324 323 322 322 323 323 321 321 321 322 324 326
309 309 309 309 309 309 310 310 309 309 308 306 307 311 311 310 307 303 302 304 303 301 307 305 308 309 311 319 315 312 307 308 300 310 305 302 308 316 317 317 320 324 322 321 323 322 322 323 323 323 323 322 323 326
308 308 308 308 309 310 311 309 309 308 308 309 305 304 304 306 296 297 295 299 301 306 307 306 305 309 312 315 313 310 304 303 312 305 302 305 314 317 318 319 320 322 323 321 322 324 324 323 324 324 324 325 325 327
307 307 308 308 309 310 310 310 309 307 305 302 300 293 299 295 300 301 302 305 309 311 312 309 307 307 311 308 310 301 307 309 300 298 301 308 317 320 322 323 321 320 321 322 323 323 323 324 324 325 326 326 326 326
306 307 307 308 308 309 310 309 309 308 304 300 301 294 298 304 308 309 310 309 313 315 312 308 310 312 307 305 306 304 299 298 300 300 306 312 321 323 321 321 321 320 321 322 324 323 323 324 325 325 326 326 326 326
307 307 306 308 308 309 309 309 310 308 305 302 302 301 305 304 304 307 307 307 313 313 317 313 306 302 301 304 300 299 297 297 303 310 316 319 320 324 325 323 321 323 322 322 324 324 324 324 324 325 326 326 326 325
307 305 308 308 309 309 308 307 305 303 302 301 302 307 307 306 303 307 309 309 319 314 305 308 300 300 307 301 299 304 301 304 309 313 318 322 323 324 325 324 322 323 325 324 325 325 325 326 326 325 323 325 325 325
305 309 310 309 309 307 308 307 303 303 299 303 302 306 308 308 306 307 311 313 314 312 311 305 310 303 301 298 302 307 310 314 316 316 317 322 326 326 325 325 324 324 325 326 326 326 326 325 324 323 325 324 323 323
307 309 310 309 308 305 304 304 305 298 301 305 307 308 308 307 310 310 311 313 314 319 314 311 305 303 304 308 307 308 312 313 311 315 318 323 326 325 325 324 325 325 326 327 326 324 324 326 324 323 323 322 320 320
307 309 309 309 309 304 303 302 308 303 301 306 308 307 307 308 312 312 311 311 315 313 308 306 306 308 309 312 314 315 316 316 316 314 315 321 323 323 324 324 324 326 325 326 325 316 323 323 323 323 322 321 320 319
306 308 309 308 306 306 305 304 304 306 306 304 309 308 307 310 308 311 312 315 311 308 303 309 310 314 317 317 317 317 317 317 316 315 315 315 324 324 323 324 324 323 322 322 321 319 317 321 322 322 320 320 321 320
307 309 307 307 303 305 303 304 304 305 303 304 303 305 306 307 306 306 312 307 305 310 312 311 312 313 316 316 317 320 321 320 320 317 306 310 318 321 321 322 322 321 320 320 320 320 321 322 322 321 320 320 315 318
308 308 306 305 300 297 296 309 301 302 300 304 307 303 304 306 309 313 307 312 313 318 318 317 319 322 320 321 322 322 321 320 318 318 318 318 321 325 324 323 323 321 320 321 321 321 321 313 315 320 320 318 318 317
307 303 300 300 300 295 302 300 304 303 305 303 302 301 304 309 312 309 305 309 316 321 320 320 320 319 320 322 320 320 322 321 319 320 322 322 321 326 324 321 321 321 322 322 322 321 322 320 312 318 319 318 317 315
295 295 296 290 300 297 297 299 300 300 300 303 301 303 306 310 306 305 306 312 315 317 317 319 317 314 316 318 320 323 325 321 319 319 321 322 322 323 322 323 322 322 323 321 321 321 321 321 318 318 317 314 312 312
291 297 294 297 299 299 300 296 298 301 302 301 304 310 312 308 302 302 307 311 310 312 315 314 313 313 314 318 318 320 323 325 323 320 323 324 322 321 319 318 315 319 323 321 321 320 321 320 317 316 314 311 302 310
291 295 301 304 301 301 299 303 306 304 301 301 306 305 304 299 300 303 310 316 314 317 319 317 316 316 315 317 319 323 324 327 325 324 326 327 326 326 324 321 319 322 326 324 322 322 320 318 317 316 315 313 313 312
299 301 298 301 300 303 300 303 302 301 304 309 307 301 300 301 302 310 312 315 316 319 320 316 318 316 317 320 321 323 326 327 326 326 326 325 327 327 327 328 328 303 323 324 322 321 320 320 319 317 314 309 310 310
300 302 304 301 303 304 305 304 305 308 311 310 306 305 306 308 312 311 314 313 315 315 313 313 313 319 321 324 324 326 326 324 320 317 317 319 322 320 323 326 326 327 326 323 302 309 317 317 318 317 316 316 314 313
300 302 302 301 300 299 305 309 310 311 313 312 313 311 310 313 314 316 315 314 313 313 314 315 317 317 316 315 315 315 318 319 318 315 312 312 312 317 319 319 320 322 322 321 321 320 300 311 308 317 316 314 312 309
308 306 302 303 300 303 307 312 314 314 311 311 311 309 310 313 313 314 315 315 315 316 315 314 314 316 315 314 313 311 310 314 314 315 316 318 320 319 319 319 319 319 319 319 320 319 317 316 317 316 314 313 307 305
305 302 302 299 303 308 310 307 307 308 309 308 306 309 311 311 305 310 315 317 314 313 307 313 314 314 316 315 315 314 302 313 313 315 317 317 318 320 322 322 321 318 318 317 317 316 315 315 316 315 314 312 309 307
304 304 303 301 300 300 305 305 304 304 306 304 305 309 311 307 304 311 317 317 314 312 312 313 314 314 316 315 316 314 309 316 307 294 296 295 295 304 317 318 318 318 316 316 314 314 314 312 313 313 312 309 306 306